GFSNGP_prec_cloud_003.txt.gz
Cloud_Cover
100 100 100 100 100 100 100 100 100 100 100 100 100 100 100 100 100 100 100 89 5 0 0 0 0 0 5 79 100 100 84 45 5 5 5 5 5 61 14 12 5 5 65 84
100 100 100 100 100 100 100 100 100 100 100 100 100 100 100 100 100 100 100 31 1 0 0 0 1 7 100 100 100 96 45 5 5 5 5 49 78 22 11 18 99 81 6 4
100 100 100 100 100 100 100 100 100 100 100 100 100 100 100 100 100 100 100 100 35 5 4 5 5 5 81 76 28 5 5 5 5 5 92 82 49 81 100 100 76 5 5 5
100 100 100 100 100 100 100 100 100 100 100 100 100 100 100 100 100 100 100 100 100 48 5 5 5 5 5 5 5 5 5 5 60 87 98 100 81 99 71 5 5 5 5 78
100 100 100 100 100 100 100 100 100 100 100 100 100 100 100 100 100 100 100 100 100 84 5 5 0 1 2 5 5 12 45 87 90 99 91 93 46 5 5 5 5 29 93 10
100 100 100 100 99 100 100 100 55 98 100 100 100 100 100 100 100 100 99 82 7 6 31 46 11 5 5 5 85 92 90 82 92 90 99 50 56 5 5 10 100 67 67 26
100 98 100 100 100 100 100 100 100 100 77 30 99 100 99 100 100 93 100 100 98 98 50 5 5 10 59 73 61 72 94 98 98 100 62 5 5 5 90 84 39 77 31 5
48 64 80 100 100 98 89 94 69 70 67 14 50 96 100 100 87 87 100 100 76 8 5 63 35 15 89 64 42 37 76 68 5 5 5 5 24 73 50 95 88 20 5 86
74 34 43 100 98 55 5 5 3 5 5 5 5 19 64 100 100 100 100 7 5 74 97 62 83 17 5 23 8 6 5 5 5 5 6 76 44 68 77 15 5 15 93 44
77 5 5 39 47 34 5 57 77 75 80 29 5 5 5 98 100 100 55 39 73 48 9 13 5 60 99 66 5 5 5 5 21 60 8 5 13 5 5 5 33 51 5 5
99 36 53 23 5 5 85 35 100 100 99 100 98 54 16 5 5 18 86 100 99 87 42 59 66 69 8 5 5 5 5 36 9 5 5 5 5 5 5 5 5 5 5 5
99 52 13 5 5 34 100 100 100 100 100 100 99 55 32 70 98 100 100 100 99 85 76 50 15 5 5 5 5 41 10 5 5 5 5 5 5 5 6 5 5 5 2 5
5 48 52 29 98 100 100 100 100 100 95 100 100 100 100 100 100 100 100 100 100 70 10 82 11 5 5 14 9 5 5 5 5 5 5 5 5 42 8 5 2 0 4 5
100 100 100 83 20 57 76 5 37 92 100 100 100 100 100 100 100 100 94 81 53 6 5 5 4 5 5 15 41 5 5 5 5 5 6 44 17 5 2 1 3 5 3 1
99 100 84 64 51 85 86 100 99 100 96 100 100 100 100 84 82 73 99 90 59 5 5 3 28 42 87 40 5 5 9 5 6 15 26 5 5 4 4 5 2 0 0 0
100 100 94 86 76 78 99 100 100 100 100 100 100 100 100 99 100 100 99 94 8 3 64 63 78 81 5 5 24 9 5 6 28 7 5 5 5 4 1 0 0 0 0 5
100 100 99 100 98 100 100 100 100 100 100 100 100 96 96 70 39 19 3 5 5 5 25 64 63 10 8 6 5 5 19 43 5 5 5 5 0 0 0 0 0 0 5 12
100 100 100 100 100 100 100 100 95 75 72 91 64 36 21 15 25 17 28 69 57 51 69 42 30 5 5 10 44 29 17 5 5 5 5 4 0 0 0 0 0 5 5 8
92 100 98 99 89 76 54 28 32 86 83 83 27 50 28 12 78 70 79 76 96 82 48 26 30 32 12 25 22 6 5 5 5 1 0 1 3 4 0 0 5 5 8 45
100 100 97 78 73 65 98 100 100 94 82 65 38 9 7 48 85 86 90 96 95 54 42 33 66 13 38 6 5 5 5 2 0 3 5 5 5 4 0 5 5 53 78 71
12 56 60 88 85 100 100 100 100 100 72 7 40 82 100 98 86 85 94 83 95 44 9 28 49 9 5 5 5 5 3 4 5 5 10 17 5 2 5 5 68 80 75 98
100 100 100 97 98 99 100 100 100 100 97 100 100 100 100 91 93 99 75 100 64 63 55 55 15 16 5 5 5 5 5 11 26 25 26 5 5 5 5 33 71 80 100 100
100 100 100 100 100 100 100 100 100 100 100 98 99 83 73 98 90 83 100 100 81 54 47 29 7 5 5 5 5 5 32 56 58 39 6 5 5 5 13 56 95 85 100 100
100 100 100 100 100 100 100 100 100 100 91 91 94 99 100 100 93 100 100 100 74 95 40 28 5 5 5 42 33 49 54 69 34 5 5 5 5 26 52 74 93 100 99 95
100 100 100 99 77 94 89 95 100 100 99 100 100 100 100 100 100 100 100 99 100 85 66 20 21 22 60 37 30 53 33 7 5 5 5 6 45 63 66 86 100 100 100 78
100 100 93 88 98 99 100 100 100 100 100 100 100 100 100 97 96 100 100 94 69 59 39 60 42 78 43 28 19 5 4 3 5 5 40 51 63 70 96 100 100 100 100 100
95 72 100 100 100 100 100 100 100 100 100 100 100 100 96 60 40 62 77 68 88 63 70 82 87 28 19 5 5 4 5 5 5 35 53 31 73 97 100 100 100 100 100 97

GFSNGP_prec_cloud_006.txt.gz
Cloud_Cover
100 100 100 100 100 100 100 74 100 100 100 100 100 100 100 98 81 29 98 100 87 100 98 59 5 3 4 5 1 5 72 73 83 100 58 5 41 69 5 5 66 36 44 5
100 100 100 100 100 100 100 100 100 100 100 100 100 100 100 100 100 84 100 100 100 88 34 99 5 5 5 3 0 5 80 65 96 9 10 96 70 6 5 74 79 5 5 5
100 100 100 100 100 100 99 100 95 100 100 100 100 100 100 100 100 99 100 98 65 90 100 100 8 4 2 23 5 38 49 73 12 74 75 59 80 37 84 66 5 5 2 0
100 100 100 100 100 100 100 100 100 85 100 97 100 100 96 98 100 100 100 100 100 100 100 99 97 100 100 68 5 56 59 7 57 68 94 76 61 73 76 5 5 5 0 0
100 100 100 100 100 99 100 100 100 100 100 100 100 100 100 100 100 100 100 100 100 100 100 100 100 100 54 5 49 36 5 51 66 47 45 74 98 18 5 4 0 0 2 5
100 100 100 100 100 100 100 82 100 100 100 100 100 100 100 100 100 100 100 100 100 100 100 100 100 100 57 38 19 9 62 78 86 56 72 42 5 5 5 1 0 5 5 5
100 100 100 100 100 100 100 100 94 98 98 100 100 100 100 100 100 100 100 100 100 100 100 97 33 15 5 12 61 62 36 16 56 21 5 5 5 4 1 5 5 5 5 4
100 100 100 100 100 100 100 100 100 100 100 100 100 100 100 100 100 100 100 99 100 90 74 90 20 25 83 26 5 32 12 7 5 5 5 5 0 4 5 5 5 5 5 5
100 98 100 98 100 100 100 100 100 100 100 100 97 72 95 94 98 96 100 100 100 100 91 89 97 100 53 57 8 5 5 5 5 5 5 5 5 5 5 5 5 5 5 5
60 98 100 100 98 100 100 100 91 24 65 23 34 16 68 100 100 100 100 100 100 97 100 100 99 93 52 63 88 71 63 7 5 5 5 5 5 5 5 4 5 5 5 5
97 99 100 100 92 36 38 57 24 98 72 53 96 80 85 70 96 100 100 100 100 100 99 100 100 100 98 100 100 93 5 5 5 5 5 5 5 5 5 5 3 5 5 5
37 94 99 59 83 57 5 58 90 73 93 100 93 100 100 98 100 100 100 100 100 100 100 100 100 100 100 100 51 5 5 27 5 5 5 5 5 5 4 5 0 5 2 5
58 63 58 10 84 46 9 95 100 100 100 100 100 100 100 100 100 100 100 100 100 100 100 100 100 100 94 6 4 5 5 5 5 5 5 5 5 5 5 5 4 0 0 5
28 40 37 71 100 100 100 100 84 71 84 96 100 100 100 100 100 100 100 100 100 100 99 67 26 5 5 5 5 17 15 6 5 5 5 4 5 5 5 2 0 0 0 0
100 100 100 100 88 100 100 100 82 83 95 100 100 100 100 100 100 100 100 100 95 47 5 25 3 3 5 5 5 44 57 5 5 4 5 5 5 5 0 0 0 0 0 0
100 100 100 100 100 85 94 100 99 100 100 100 100 100 100 100 94 100 100 50 5 5 5 5 5 43 100 92 54 18 7 5 5 5 5 5 1 0 0 0 0 0 0 2
100 100 100 100 100 100 100 100 100 100 100 100 100 95 100 100 100 100 40 5 5 8 64 96 100 100 100 19 9 5 5 5 5 5 4 0 0 4 0 0 2 5 4 5
100 100 100 100 100 100 100 100 100 100 100 79 100 100 100 100 100 90 14 5 34 87 93 96 100 74 49 46 7 5 5 5 5 0 1 4 5 1 5 5 5 5 5 5
100 100 100 100 100 100 100 100 100 100 100 100 100 100 100 94 70 32 62 75 59 61 60 72 73 47 49 5 5 5 5 5 1 5 4 5 5 5 5 5 5 5 5 5
100 100 100 100 100 100 100 100 100 100 100 100 100 100 100 98 74 65 29 17 54 83 58 48 14 30 11 6 5 5 5 5 5 5 5 5 5 5 5 5 5 33 63 46
100 100 99 99 95 96 100 100 97 93 100 100 100 100 100 96 70 27 58 98 92 64 98 55 27 45 24 5 5 5 5 5 5 5 5 5 5 5 5 5 32 76 72 95
100 83 81 91 72 90 100 98 93 100 100 100 99 95 82 91 74 82 95 89 96 100 95 83 74 23 5 5 5 5 5 5 5 5 5 5 5 5 25 58 83 87 100 95
99 100 100 100 100 100 100 100 100 100 100 96 97 91 85 74 88 98 100 100 100 100 100 100 25 5 5 5 5 5 5 5 5 5 5 5 5 5 44 84 96 74 89 100
97 97 99 96 100 100 100 100 100 100 100 100 100 100 100 100 100 100 100 100 100 100 81 7 5 5 5 16 18 5 5 5 5 5 5 40 5 48 72 83 88 89 96 93
88 98 99 100 100 100 100 99 99 98 97 98 100 100 100 100 100 100 100 100 97 31 6 5 5 5 18 11 5 5 5 5 5 36 5 15 62 84 74 74 90 100 100 79
100 100 100 98 99 97 100 100 96 99 100 100 100 100 100 100 100 100 98 52 5 5 5 5 16 29 8 5 5 5 2 5 5 5 49 52 61 62 72 80 96 98 95 100
89 100 98 95 79 67 99 100 100 100 100 100 100 100 100 100 92 22 6 5 5 5 9 5 5 5 5 5 1 2 5 5 20 36 40 53 48 68 80 93 100 100 100 100

GFSNGP_prec_cloud_009.txt.gz
Cloud_Cover
95 100 100 100 100 100 100 96 100 100 100 100 100 100 100 99 100 18 0 4 5 13 5 15 63 99 100 100 94 95 100 100 100 100 100 22 5 95 100 74 57 20 38 26
100 100 100 100 100 100 97 84 98 100 100 100 100 100 100 100 96 14 84 98 31 11 79 32 26 63 77 92 100 32 5 99 100 100 65 5 99 95 57 51 59 72 47 100
100 100 100 100 100 100 100 100 98 100 100 100 100 100 100 100 100 100 99 76 72 66 88 6 8 65 62 5 9 24 77 100 89 44 31 100 94 67 55 76 80 70 95 5
100 100 100 100 100 100 100 98 100 100 100 100 100 100 100 100 100 100 100 78 82 99 86 97 100 100 100 100 100 100 100 100 100 75 100 87 73 86 93 78 87 40 4 0
100 100 100 100 100 100 100 100 100 100 100 100 100 100 100 100 100 96 100 100 100 99 100 100 100 100 100 100 100 100 100 100 100 100 96 95 99 71 63 73 5 1 0 0
100 100 100 100 100 100 100 100 100 100 100 100 100 100 100 100 99 100 100 100 100 100 100 100 100 100 100 100 100 100 100 100 100 100 99 60 51 69 5 5 0 0 1 5
100 100 100 100 100 100 100 100 100 100 100 100 100 100 100 100 100 100 100 100 100 100 100 100 100 100 100 100 100 100 100 100 85 66 48 52 12 5 4 2 1 5 5 4
99 92 96 100 100 100 100 100 100 100 100 100 100 100 100 100 100 100 100 100 100 100 100 100 100 100 100 100 94 99 99 87 63 45 35 5 5 5 5 5 5 5 4 1
100 62 85 72 100 100 99 100 100 100 100 100 100 100 100 100 100 100 100 100 100 100 100 100 100 100 100 100 100 100 100 100 70 32 55 5 5 5 5 5 2 0 1 4
100 100 84 100 96 91 100 93 84 98 81 67 55 82 100 100 100 100 100 100 100 100 100 100 100 100 100 100 100 100 100 100 100 86 5 5 5 5 1 0 0 0 0 1
100 100 100 90 100 85 42 22 87 93 75 88 50 89 54 93 100 100 100 100 100 100 100 100 100 100 100 100 100 100 96 56 19 5 5 5 4 2 0 0 0 3 1 4
99 85 90 75 72 100 100 81 100 93 99 100 100 100 100 89 65 100 100 100 100 100 100 100 100 100 100 100 96 26 5 2 5 5 5 5 5 2 0 0 0 0 0 5
80 56 58 32 60 93 98 49 93 100 100 100 100 100 100 100 100 100 100 100 100 100 100 100 100 100 94 82 5 0 5 5 5 5 5 0 4 5 4 0 0 0 0 0
100 100 53 27 91 74 99 94 100 100 100 100 100 100 100 100 100 100 100 100 100 100 100 80 22 19 5 3 2 5 10 44 8 8 5 5 5 3 0 0 0 0 0 0
100 82 86 88 73 99 100 100 100 100 100 100 100 100 100 100 100 100 100 100 99 92 99 99 5 5 5 18 27 40 6 5 6 6 5 3 0 0 0 0 0 0 0 3
100 100 100 96 99 100 100 100 100 100 100 100 100 100 100 98 99 100 100 100 100 100 95 16 7 7 70 64 8 5 5 5 5 5 5 4 0 0 0 0 0 4 5 5
100 100 100 100 100 100 99 78 100 100 100 100 100 100 100 99 73 100 100 100 100 91 35 6 27 85 98 68 5 5 5 5 5 5 5 3 0 0 0 0 5 5 1 5
100 100 100 100 100 100 100 100 100 97 79 87 86 88 97 90 100 100 100 100 100 94 68 65 61 92 63 5 5 5 5 5 5 5 5 0 0 1 5 4 2 5 5 5
95 100 100 100 100 100 100 100 94 97 100 100 100 100 100 100 100 100 100 100 100 93 72 16 5 10 32 28 5 5 5 5 5 5 3 5 5 5 0 4 5 5 9 60
100 100 100 100 100 100 100 100 100 98 84 96 100 100 100 72 95 100 90 100 100 87 33 9 30 70 31 6 10 29 12 30 5 5 5 5 5 4 5 5 5 53 72 82
100 100 100 100 100 100 100 100 94 100 100 100 97 83 85 99 100 95 92 99 89 57 20 50 89 43 68 74 75 37 5 5 5 5 5 5 5 5 5 25 73 82 88 98
98 92 100 100 100 100 100 100 100 100 97 89 100 97 99 100 100 98 82 78 63 67 88 66 97 89 70 36 6 5 5 5 5 5 5 5 5 9 63 73 88 86 100 99
100 88 85 100 100 100 100 100 100 100 100 100 100 100 100 100 100 100 90 92 92 94 86 79 69 29 6 5 5 5 5 5 5 5 2 5 22 43 42 87 100 100 93 100
100 100 100 100 100 100 100 99 100 99 99 96 100 100 98 89 79 88 92 76 73 48 66 43 9 5 5 5 5 5 15 34 5 2 5 42 6 25 78 92 98 99 100 83
100 100 100 100 100 100 100 100 100 86 100 96 44 71 100 98 76 91 85 60 39 31 7 5 5 5 5 5 5 5 5 2 3 5 5 5 47 79 75 79 83 100 100 75
100 100 100 100 100 100 100 90 97 99 98 85 85 77 65 60 79 100 67 14 6 5 5 5 5 5 5 5 5 5 2 3 5 5 23 26 62 59 68 67 80 76 77 90
100 100 100 100 100 100 100 100 96 99 71 79 72 74 75 95 87 83 80 60 6 6 5 5 5 5 5 5 5 5 5 5 5 19 56 20 14 50 61 62 68 74 92 97

GFSNGP_prec_cloud_012.txt.gz
Cloud_Cover
100 85 96 99 100 100 100 100 100 100 100 100 100 94 60 5 0 1 51 22 7 23 51 70 100 90 85 100 100 100 100 82 63 66 100 100 100 100 100 90 67 100 81 84
100 80 99 100 100 100 100 100 100 100 100 100 100 100 36 28 100 88 100 55 86 16 22 100 100 100 100 100 100 100 100 67 98 100 100 96 100 100 97 62 100 86 95 91
100 96 97 99 100 100 100 100 100 100 100 100 100 100 100 100 100 100 100 69 36 33 87 100 100 100 100 100 100 100 100 96 100 100 100 100 100 97 76 100 100 99 93 92
100 99 100 100 100 100 100 100 100 100 100 100 100 100 100 100 97 47 100 88 92 95 100 100 100 100 100 100 100 100 100 100 100 100 100 100 100 100 100 100 100 100 47 49
100 100 97 100 100 100 100 100 100 100 100 100 100 100 100 100 100 99 100 100 98 100 100 100 100 97 99 100 100 100 100 100 100 100 100 100 100 100 100 100 98 59 8 64
100 100 100 100 100 100 100 100 100 100 100 100 100 100 100 100 100 100 100 97 100 100 100 100 91 81 76 95 99 100 100 100 100 100 100 100 100 100 100 75 19 84 5 5
100 100 100 100 100 94 100 100 100 100 100 100 100 100 100 100 100 100 100 100 100 100 100 100 100 97 100 100 100 100 100 100 100 100 100 100 99 98 86 98 76 6 5 5
84 100 100 100 100 99 100 62 100 100 100 100 100 100 100 100 100 100 100 100 100 100 100 100 97 100 100 100 100 100 100 100 100 100 100 100 100 100 98 33 5 5 5 5
100 76 80 100 99 83 65 30 96 88 86 100 100 100 100 100 100 100 100 100 100 100 100 100 100 100 100 100 100 100 100 100 100 100 100 100 85 10 5 5 5 5 5 13
70 77 100 100 94 81 48 44 46 91 96 99 74 100 100 100 100 100 100 100 100 100 100 100 100 100 100 100 100 100 100 100 100 89 21 5 5 5 5 5 5 5 5 5
97 40 36 10 38 53 37 6 99 78 100 100 100 100 100 100 100 100 100 100 100 100 100 100 100 100 100 100 100 100 100 97 79 84 10 5 5 32 9 3 5 4 5 4
7 5 47 25 44 5 25 24 78 100 100 100 100 100 100 100 88 100 100 100 100 100 100 100 100 100 100 100 100 99 61 69 21 5 43 88 48 9 6 5 5 8 5 4
5 84 100 100 98 24 33 27 96 65 100 100 100 100 100 100 78 77 98 100 100 100 100 100 100 100 100 100 97 48 9 23 49 63 61 36 5 9 63 59 5 5 1 0
99 100 99 100 99 73 100 100 100 100 100 100 100 100 100 100 100 94 100 100 100 100 100 100 100 100 94 9 5 5 32 75 84 38 5 5 5 5 5 5 5 0 0 0
80 99 100 100 50 85 92 100 100 100 100 100 100 100 100 100 100 100 100 100 100 100 100 98 82 83 22 5 5 5 5 14 5 5 5 5 13 6 5 5 5 5 1 2
51 99 100 78 72 98 100 100 100 100 100 100 100 100 81 100 100 100 100 100 90 64 44 44 96 54 6 6 5 5 5 5 5 10 5 5 5 5 5 5 5 4 0 0
97 16 58 100 100 100 100 100 100 100 100 87 99 100 100 100 100 100 100 100 83 63 87 100 92 81 52 5 5 5 5 5 5 5 43 47 7 5 5 5 5 5 5 4
100 100 95 99 100 100 100 100 100 100 88 99 99 100 100 100 100 100 99 82 97 99 90 87 87 48 33 5 5 5 5 16 58 73 30 20 26 6 5 5 5 5 5 5
100 100 100 100 100 100 100 100 100 98 93 99 100 100 100 100 100 95 62 67 78 52 27 14 5 5 5 5 18 54 54 51 55 28 21 6 5 5 5 4 5 5 5 5
100 100 100 100 100 99 100 100 100 100 100 100 93 100 96 100 88 66 53 74 97 59 51 17 5 6 71 77 45 49 40 49 11 5 5 5 5 5 4 5 5 5 5 5
100 100 100 100 100 100 100 100 100 100 100 92 73 76 91 52 80 100 100 80 39 21 31 38 43 51 65 61 47 51 29 5 5 5 5 5 5 3 5 5 5 5 6 5
100 100 100 100 100 100 100 100 100 100 100 100 100 100 67 81 77 82 100 100 98 72 63 59 63 52 58 38 29 11 5 5 5 5 5 4 5 5 5 5 62 99 93 90
100 100 100 100 100 100 100 100 100 100 100 100 98 100 96 86 74 78 92 94 63 39 45 32 10 5 5 5 5 5 5 5 5 5 2 5 5 5 17 96 100 100 100 100
100 100 100 100 100 100 100 100 100 100 100 99 92 85 99 88 60 71 98 83 62 60 58 39 8 5 5 5 5 5 5 5 4 1 5 33 5 41 98 100 100 100 100 100
100 100 100 100 100 99 100 100 100 100 100 100 96 100 100 64 45 42 79 86 69 54 10 5 5 5 5 5 5 5 4 0 3 5 5 39 91 100 100 100 100 100 100 100
100 100 100 100 100 100 100 100 100 100 100 100 84 90 79 83 99 69 94 100 82 27 56 7 5 5 5 5 5 4 1 4 5 5 48 80 90 94 89 88 94 100 100 100
100 100 100 96 100 100 98 100 100 100 100 100 100 100 85 58 51 73 84 93 66 5 5 5 5 5 5 5 2 2 5 5 5 15 60 59 67 95 99 97 100 100 100 100

GFSNGP_prec_cloud_015.txt.gz
Cloud_Cover
21 20 43 100 100 100 100 98 100 100 100 100 100 100 100 82 32 99 100 100 93 5 43 100 100 100 64 95 100 100 100 100 100 100 100 100 100 53 100 100 100 100 99 97
100 41 63 100 100 100 100 100 100 100 100 100 100 100 97 63 36 100 100 88 100 24 97 100 100 76 73 87 100 100 100 100 100 100 100 99 91 97 100 100 93 81 100 100
73 82 84 74 100 100 100 100 100 100 100 100 100 100 100 92 100 100 100 100 100 99 100 100 100 100 100 100 100 100 81 100 100 84 34 73 82 100 100 100 100 80 100 100
100 63 94 99 100 100 100 100 100 100 100 100 100 100 100 100 100 100 100 100 100 100 77 100 100 100 100 100 100 100 100 100 100 99 93 99 100 100 100 100 100 100 100 100
100 79 92 100 100 100 100 100 100 100 100 100 100 100 100 100 100 100 100 100 100 100 100 100 100 100 100 100 100 100 100 100 100 100 100 100 100 100 100 100 100 100 100 100
100 100 98 98 100 87 94 99 100 100 100 100 100 100 100 100 100 100 100 100 100 100 100 100 100 100 100 100 100 100 100 100 100 100 100 100 100 100 100 100 100 100 100 100
100 100 99 100 100 66 96 100 100 100 100 100 100 100 100 100 100 100 100 100 100 100 100 100 100 100 100 100 92 72 95 100 100 100 100 100 100 100 100 100 100 100 100 100
96 100 100 100 31 74 54 91 98 95 100 68 100 100 100 100 100 100 100 100 86 86 80 99 97 78 100 100 95 100 100 100 100 100 100 100 100 100 100 100 100 100 99 23
100 100 100 84 91 34 38 10 49 99 86 100 99 100 100 100 100 100 100 100 100 100 100 97 100 100 100 100 100 100 95 98 100 100 100 100 100 100 100 100 76 9 5 27
74 50 34 49 53 6 14 5 57 42 80 62 48 48 91 100 100 100 100 100 100 100 100 100 100 100 100 100 100 100 100 100 100 100 100 100 100 80 45 14 44 99 84 70
28 19 72 20 5 5 22 12 11 30 98 98 89 74 83 100 99 100 100 100 100 100 100 100 100 100 100 100 100 100 100 100 100 100 100 100 81 55 93 93 77 69 46 14
77 48 28 5 5 5 18 86 8 11 89 100 99 100 76 87 64 87 100 100 100 100 100 100 100 100 100 100 100 100 100 100 100 100 93 90 69 28 13 25 73 36 6 10
38 7 5 6 7 90 97 100 94 100 66 100 100 100 98 100 70 62 68 100 100 100 100 100 99 100 100 100 100 100 100 93 97 54 6 5 5 5 22 92 96 32 5 10
18 30 11 33 79 96 100 99 92 100 97 100 100 100 100 100 99 100 88 81 86 99 87 99 100 96 95 95 86 70 43 16 5 5 5 5 5 5 6 23 25 18 6 15
99 99 98 100 100 100 100 85 91 87 90 99 100 100 100 98 97 100 100 87 94 98 90 54 34 12 45 48 51 10 5 5 5 5 5 5 5 6 20 37 36 31 28 6
100 73 100 100 100 100 99 98 96 100 100 100 100 100 100 84 97 94 99 88 87 94 89 59 68 52 61 28 30 15 5 5 5 5 20 46 11 23 11 15 13 5 3 0
81 43 91 100 100 100 100 100 100 100 98 100 100 100 98 97 93 80 94 86 100 92 88 91 95 86 85 82 70 54 5 5 19 71 54 12 6 11 5 5 4 0 0 1
87 99 95 100 100 97 98 100 100 100 100 100 100 81 84 100 99 88 99 79 78 63 45 70 60 46 22 5 17 5 10 60 56 57 32 21 6 5 4 0 0 0 1 5
100 100 100 100 100 100 100 100 100 100 100 98 87 94 94 98 100 100 78 36 17 18 59 41 42 53 57 57 38 44 60 58 36 15 29 5 5 0 0 0 0 5 5 5
100 100 100 100 100 100 100 100 100 100 100 100 100 100 81 82 99 96 67 48 72 60 90 100 100 99 78 66 67 64 32 38 12 5 5 0 0 0 0 3 5 5 5 5
100 100 100 100 100 100 100 100 100 100 100 100 100 100 91 91 88 26 43 60 81 83 91 99 96 86 61 37 34 25 5 5 5 0 0 0 0 0 1 5 5 5 7 6
100 100 100 100 100 100 100 100 100 100 100 100 100 100 96 71 56 82 58 39 63 70 73 63 46 56 36 19 6 5 5 5 2 0 0 0 0 4 5 5 9 72 86 82
100 100 100 100 100 100 100 100 100 100 100 100 100 92 58 70 69 66 66 64 36 33 30 6 5 5 5 5 5 5 5 3 0 0 0 0 5 5 5 13 66 89 86 73
100 100 100 100 100 100 100 100 100 100 100 100 100 99 92 91 97 70 46 20 21 6 5 24 5 5 5 5 5 1 0 2 0 0 0 5 5 5 58 68 74 79 74 67
100 100 100 100 100 100 100 100 100 100 100 100 100 100 100 100 100 100 97 91 84 59 35 11 5 5 5 5 5 5 2 5 5 5 5 5 6 77 84 77 78 71 83 93
98 98 93 84 85 99 100 100 100 98 100 100 100 100 100 100 100 100 100 100 83 60 9 64 77 34 5 5 5 5 5 5 0 5 5 5 23 58 70 61 43 45 43 72
88 69 32 62 89 87 89 99 100 100 100 100 100 91 100 100 100 100 93 81 72 66 95 99 67 52 15 5 5 5 5 0 4 5 5 5 5 11 72 78 79 84 89 85

GFSNGP_prec_cloud_018.txt.gz
Cloud_Cover
15 5 6 7 100 97 100 86 100 100 82 99 100 100 100 100 100 100 99 34 97 100 100 100 100 100 100 100 100 100 78 100 100 100 100 100 98 100 100 100 100 100 76 55
67 5 47 94 100 100 100 100 100 100 100 100 100 100 100 100 94 94 13 5 76 100 100 100 100 100 100 100 100 100 85 100 100 100 100 100 100 100 100 100 82 65 100 100
66 33 27 87 100 100 100 100 100 100 100 100 97 83 90 100 100 99 96 100 100 100 100 100 100 100 100 100 100 100 100 100 100 100 100 100 100 100 100 91 100 100 100 100
99 28 50 100 86 100 100 100 64 95 100 100 100 100 100 100 100 100 100 54 100 100 100 100 100 100 100 100 100 100 100 100 100 100 100 100 100 100 100 100 96 100 100 100
100 87 56 99 88 100 100 48 80 88 100 100 100 100 100 100 100 100 100 100 100 100 100 100 100 100 100 100 100 100 100 100 100 100 100 100 100 100 100 100 100 100 100 100
100 100 89 99 35 100 100 58 63 51 68 100 100 98 100 100 100 100 100 100 100 100 100 100 100 100 100 100 100 100 100 100 100 100 100 100 100 100 98 89 100 100 99 77
100 100 100 100 100 100 71 41 8 59 24 100 100 100 99 100 100 100 100 100 100 100 100 100 100 100 100 100 100 100 100 100 100 100 86 100 100 100 100 100 96 97 100 100
100 100 85 92 100 100 80 49 61 28 50 100 100 100 100 100 100 100 100 100 100 100 100 100 100 100 100 100 100 100 100 100 100 100 100 100 100 89 80 100 100 100 100 83
85 72 83 100 98 22 5 5 5 70 70 44 80 98 100 98 99 100 100 100 100 100 100 100 100 100 98 100 86 98 100 100 100 98 96 90 99 100 100 100 92 47 52 72
100 92 100 40 5 5 5 10 15 57 99 94 66 80 100 100 100 100 100 94 100 100 100 100 96 97 100 100 100 100 95 61 98 100 99 100 100 98 56 26 5 7 5 5
50 44 5 8 5 5 6 11 97 70 99 100 93 95 87 100 100 97 78 98 100 100 100 100 100 100 100 100 99 100 100 100 100 100 96 61 15 11 5 5 5 5 5 56
76 76 11 5 5 5 51 53 22 93 100 100 100 87 100 98 92 51 94 100 100 100 100 100 100 100 99 100 100 100 100 82 62 26 10 15 12 11 62 23 5 5 5 38
96 93 18 5 5 6 91 92 86 68 100 100 98 75 100 100 100 99 52 70 100 100 100 100 100 100 100 99 100 72 50 58 52 38 41 50 53 36 10 5 5 39 54 43
100 30 5 33 88 100 100 100 100 82 95 100 98 99 100 99 100 100 100 96 100 100 99 100 100 98 70 63 50 52 62 36 70 72 73 32 6 5 5 66 97 64 66 67
98 5 13 90 81 98 100 100 99 98 100 94 100 100 96 100 100 100 99 97 98 100 100 100 69 55 85 83 45 15 80 94 67 59 31 5 5 18 72 59 58 53 12 2
7 5 31 95 96 100 100 100 88 91 88 80 94 100 92 67 96 99 88 99 99 100 84 69 85 81 15 24 42 76 66 23 5 8 5 30 65 62 67 24 6 4 0 0
79 51 91 100 99 100 100 100 100 100 100 97 100 96 96 87 98 84 97 94 88 93 70 68 27 14 6 33 31 6 8 18 36 66 62 96 56 11 5 5 2 0 0 0
92 92 100 100 100 100 100 98 100 100 100 100 100 100 100 100 92 93 100 84 95 76 38 40 35 29 60 65 80 96 100 99 90 80 53 5 5 5 4 0 0 0 0 0
94 100 100 100 100 100 100 100 100 100 100 100 100 100 100 100 100 100 100 98 83 89 62 67 62 87 89 89 80 68 58 30 14 5 5 5 3 0 0 0 0 0 0 0
100 100 100 100 100 100 100 100 100 100 100 100 100 100 100 98 100 91 76 100 100 98 89 54 70 72 60 44 33 18 5 5 5 5 0 0 0 0 0 0 0 0 0 1
100 100 100 100 100 100 100 100 100 100 100 100 100 100 100 99 95 100 100 98 75 77 71 63 64 41 15 30 5 5 5 4 1 0 0 0 0 0 0 0 3 4 5 5
100 100 100 100 100 100 100 100 100 100 100 100 96 100 100 100 95 95 100 84 50 26 28 86 79 69 51 30 5 5 5 4 3 0 0 0 0 0 1 5 5 5 5 23
100 100 100 100 100 100 100 100 100 100 100 100 100 100 100 100 99 84 96 64 57 23 92 100 100 100 63 5 5 5 5 5 5 0 0 0 0 4 5 14 20 25 5 5
100 100 100 100 100 100 100 100 100 100 100 100 100 100 100 100 100 96 92 82 73 54 53 83 92 24 5 5 5 5 5 5 5 4 0 5 5 24 26 5 7 5 8 15
100 100 100 100 100 100 100 100 100 100 100 100 100 100 100 100 98 91 100 93 71 62 40 30 6 5 5 5 5 5 5 5 5 5 5 5 5 14 17 10 8 14 73 46
91 100 100 100 96 100 100 100 100 100 100 100 100 100 97 92 98 100 100 99 64 29 45 57 74 62 5 5 5 5 5 5 5 5 5 5 5 5 5 5 5 5 17 14
100 100 91 78 91 98 93 100 100 100 100 100 100 100 100 100 100 100 100 98 82 73 59 73 72 24 5 5 5 5 5 5 2 5 8 21 13 16 11 46 52 60 40 60

GFSNGP_prec_cloud_021.txt.gz
Cloud_Cover
100 22 66 68 57 90 69 64 100 79 72 92 100 100 98 100 99 62 5 21 82 82 7 2 14 75 90 95 98 67 100 99 99 100 100 100 100 100 100 100 100 100 100 100
82 52 5 8 55 100 100 100 100 100 100 98 100 100 91 100 100 100 100 97 15 39 55 100 100 100 100 96 100 100 100 100 100 100 100 100 100 100 100 100 100 100 100 100
42 46 8 89 100 100 73 76 100 100 94 69 100 100 100 100 100 100 100 96 75 100 77 100 100 100 100 100 100 100 100 100 100 100 100 100 100 100 100 100 100 100 100 100
100 78 49 85 100 100 82 100 97 36 46 57 89 100 100 100 100 100 99 100 49 39 97 93 100 100 100 100 100 100 100 100 100 100 100 100 100 100 100 100 100 100 100 100
100 89 37 55 97 100 85 97 92 10 6 5 12 88 100 100 100 100 100 100 100 100 100 100 100 100 100 100 100 100 100 100 100 100 100 100 100 100 100 100 100 100 100 100
100 91 68 96 90 100 60 100 5 65 8 92 66 95 100 100 100 100 100 100 100 100 100 100 100 100 100 100 100 100 100 100 100 100 100 100 100 100 100 100 100 100 100 98
100 98 95 97 99 89 100 100 5 82 38 45 55 96 66 100 100 100 100 100 100 100 100 100 100 100 100 100 100 100 100 100 100 100 100 100 100 100 96 100 84 59 44 100
100 100 98 100 99 100 100 22 5 10 28 68 58 87 64 70 98 100 100 100 100 100 100 100 100 100 100 100 100 100 100 100 100 100 100 100 100 100 100 98 74 100 100 100
100 97 21 45 79 100 16 5 5 5 92 100 95 11 100 49 85 95 100 100 100 100 100 100 100 100 100 100 100 100 96 100 100 100 100 89 94 100 100 100 100 100 96 37
78 70 94 36 99 78 14 21 5 8 84 100 100 83 99 99 63 100 84 100 100 100 98 82 90 100 100 100 100 100 96 100 100 100 100 100 100 100 100 100 74 7 5 5
75 97 72 38 100 34 5 5 26 100 98 100 100 99 100 97 91 97 98 100 98 100 100 100 100 100 100 100 95 73 66 29 61 100 100 100 100 86 30 5 5 5 5 4
83 100 99 100 48 5 5 47 80 97 100 100 100 97 94 97 98 55 96 100 100 100 100 100 100 100 100 100 100 100 100 100 91 97 96 56 13 5 6 5 5 3 3 5
100 100 100 41 5 10 9 90 91 92 100 100 100 100 100 100 69 19 75 100 100 100 100 100 100 100 100 88 63 78 83 72 29 6 5 5 22 55 6 5 3 5 5 5
100 100 96 6 43 18 10 89 80 95 100 100 89 89 100 100 87 99 100 100 100 100 100 100 91 77 65 12 5 5 5 5 5 5 5 5 6 10 8 5 5 5 16 5
100 97 7 21 57 20 69 87 71 100 97 100 87 67 64 100 100 100 100 100 100 100 93 68 38 6 12 5 5 5 25 40 68 82 78 71 64 56 18 5 16 6 5 3
100 97 37 35 44 91 99 83 100 100 97 59 69 53 72 80 90 80 95 100 99 41 48 71 27 15 71 47 45 59 89 97 74 63 60 46 15 5 5 5 5 5 1 0
100 100 99 5 19 20 97 99 69 100 99 100 100 100 68 93 76 75 100 95 96 100 100 100 91 21 48 56 97 89 42 44 34 30 5 5 5 5 5 1 0 0 0 0
87 44 51 48 22 100 85 90 100 100 100 100 99 100 100 94 100 100 100 100 100 100 90 48 57 71 87 88 82 59 43 26 17 5 5 5 5 1 0 0 0 0 0 0
100 100 73 55 100 97 94 100 100 100 100 100 100 100 100 100 100 98 100 100 75 100 80 58 53 90 100 100 72 34 5 5 5 5 5 5 5 0 0 0 0 0 0 0
100 100 99 97 100 100 100 100 99 100 100 100 100 100 100 100 100 100 97 74 65 70 43 44 68 69 56 31 31 8 25 5 5 5 5 5 0 0 0 0 0 0 0 2
100 100 100 100 100 100 100 100 100 96 100 100 100 100 100 100 100 96 95 94 70 52 47 36 58 67 54 78 97 70 18 5 5 5 5 1 0 0 0 0 0 2 5 5
100 100 100 100 100 100 100 100 100 100 100 100 100 100 100 100 100 80 54 59 62 60 33 43 69 28 43 59 11 5 5 5 5 5 0 0 0 0 1 5 5 5 24 41
100 100 100 100 100 100 100 100 100 100 100 100 100 100 100 100 100 100 76 80 71 65 64 5 5 5 5 5 15 5 5 5 5 5 0 2 3 5 12 15 42 38 53 15
100 100 100 100 100 100 100 100 100 100 100 100 100 100 99 97 100 100 99 70 59 64 63 5 5 5 5 5 5 5 5 3 3 4 0 4 5 27 30 21 43 50 53 43
100 100 100 100 100 100 100 100 100 100 100 100 100 100 100 100 100 99 89 77 73 94 73 63 18 11 6 5 5 5 5 5 4 5 5 5 11 47 27 32 48 33 91 69
100 100 100 100 100 100 100 100 100 100 100 100 100 100 100 100 100 100 100 100 100 94 76 35 43 57 22 5 5 5 5 3 3 5 5 5 6 21 53 29 45 34 40 51
100 100 100 100 100 100 100 100 100 100 100 100 100 100 100 100 100 100 100 100 100 100 82 83 60 49 29 22 7 5 5 5 5 5 10 46 14 25 46 54 52 76 74 79

GFSNGP_prec_cloud_024.txt.gz
Cloud_Cover
100 100 99 33 11 49 52 97 82 5 53 48 92 100 100 100 100 96 98 94 85 35 77 95 92 47 3 0 0 0 4 92 86 38 100 96 96 98 100 100 100 100 100 100
100 100 87 57 36 100 92 100 99 24 5 98 58 99 99 100 100 100 100 100 100 72 94 100 100 79 53 60 9 38 88 84 100 100 100 100 98 100 58 100 100 100 100 100
100 33 53 22 31 100 61 99 10 63 5 7 5 8 89 100 100 100 100 100 100 100 93 100 100 100 100 100 99 98 100 100 100 100 100 100 100 100 100 100 100 100 100 100
99 74 56 25 26 96 9 5 38 5 5 27 84 74 100 100 97 100 100 100 98 89 100 100 100 100 100 100 100 100 100 100 100 100 100 100 100 100 100 100 100 100 100 100
100 94 70 9 90 41 13 5 24 5 64 62 100 78 93 100 100 100 100 100 100 100 100 100 100 100 100 100 100 100 100 100 100 100 100 100 100 100 100 100 100 100 100 100
100 90 91 92 83 5 5 46 18 13 69 53 100 63 76 100 96 100 100 100 100 100 100 100 100 100 100 100 100 100 100 100 100 100 100 100 100 100 100 100 100 100 100 100
100 100 95 100 67 14 14 90 96 82 11 96 81 74 49 100 100 96 100 100 100 100 100 100 100 100 100 100 100 100 100 100 100 100 100 100 100 100 100 100 100 100 100 100
100 100 98 89 73 32 37 84 100 100 31 68 73 43 76 96 99 100 100 100 100 100 100 100 100 100 100 100 100 100 100 100 100 100 100 100 100 100 100 100 100 100 100 84
96 100 99 98 7 5 38 78 100 63 5 5 62 41 88 78 100 97 100 100 100 100 100 100 100 100 100 100 100 100 100 100 100 100 100 97 97 77 100 100 100 82 18 13
57 86 100 68 85 10 22 94 77 6 23 66 87 95 75 100 95 98 97 90 100 97 98 100 100 100 100 100 100 100 76 75 44 22 5 95 99 84 20 29 62 97 100 100
51 38 79 91 90 68 62 42 17 8 48 88 86 91 22 95 100 99 100 83 66 93 100 96 99 100 98 74 58 50 79 57 79 96 94 100 100 100 100 100 100 100 98 100
99 93 100 98 90 44 100 46 83 42 5 84 73 96 43 44 69 100 97 100 100 100 100 100 100 100 88 46 73 97 100 100 73 35 84 100 100 100 85 92 82 27 8 5
100 100 100 39 11 86 96 86 78 70 35 38 52 67 100 43 75 96 100 100 100 100 100 100 100 100 100 100 100 100 100 100 100 99 69 10 7 5 5 20 66 67 41 72
60 68 11 7 47 91 100 100 100 97 47 72 29 78 98 5 43 62 100 100 100 100 100 97 54 37 65 83 81 62 31 5 5 7 16 44 60 39 62 90 87 46 5 5
100 100 94 65 70 91 100 100 97 56 46 95 54 30 11 5 47 97 100 100 100 100 100 72 80 54 16 5 5 5 6 34 55 54 70 66 65 77 58 11 5 5 3 0
92 100 100 97 43 63 97 100 98 100 57 100 100 61 19 19 100 100 100 100 100 99 26 6 5 5 5 5 5 5 67 60 71 86 24 42 10 5 5 5 5 1 0 0
65 83 41 74 15 94 100 100 96 56 93 100 100 99 99 95 56 87 100 99 98 17 5 5 5 5 8 9 5 68 94 98 91 48 5 5 5 5 5 5 0 0 0 0
67 71 51 61 80 30 76 41 5 58 100 100 100 100 100 99 100 78 69 97 80 51 14 5 5 5 5 5 5 6 5 6 5 5 5 5 5 4 0 0 0 0 0 0
96 100 91 86 28 26 36 87 82 92 93 100 100 90 98 100 100 100 68 77 77 53 7 5 5 5 6 5 5 5 5 5 5 5 5 5 5 0 0 0 0 0 0 0
100 96 99 99 96 100 98 100 100 100 100 100 100 100 97 100 98 78 86 99 55 49 5 5 6 50 45 30 6 5 5 5 5 5 5 5 5 1 0 0 0 0 0 5
100 100 100 100 100 100 100 100 100 100 100 100 100 100 100 98 100 100 100 93 98 38 50 37 29 34 23 9 5 5 5 5 5 5 5 5 5 2 0 0 2 5 5 5
100 100 100 100 100 100 100 100 100 100 100 100 100 100 100 100 100 100 100 80 78 87 86 58 25 41 20 5 5 5 5 11 14 5 5 5 5 2 3 5 5 5 26 60
100 100 100 100 100 100 100 100 100 100 100 100 100 100 100 100 100 100 100 95 90 84 82 87 76 70 64 19 5 5 21 10 16 11 5 5 2 5 12 54 49 62 65 57
100 100 100 100 100 100 100 100 100 100 100 100 100 100 100 100 100 100 100 100 100 100 100 100 62 70 57 10 5 40 38 25 33 21 5 5 5 25 56 52 52 56 59 72
100 100 100 100 100 100 100 100 100 100 100 100 100 100 100 100 100 100 100 100 100 100 100 100 52 47 95 93 78 43 23 59 61 6 5 5 11 53 52 59 60 57 72 70
100 100 100 100 100 100 100 100 100 100 100 100 100 100 100 100 100 100 100 97 96 100 100 100 100 100 100 100 98 95 100 60 37 10 5 5 55 58 56 42 56 34 32 46
100 100 100 100 100 100 100 100 100 100 100 100 100 100 100 100 100 100 100 100 100 100 100 100 100 100 100 100 100 100 94 53 20 5 40 56 53 57 54 51 58 71 80 86

GFSNGP_prec_cloud_027.txt.gz
Cloud_Cover
100 100 100 100 100 99 92 100 100 100 100 22 86 100 99 82 100 93 22 69 18 34 100 100 98 98 94 93 90 99 100 100 100 100 100 100 100 100 100 100 100 100 100 100
100 100 100 100 100 100 100 100 100 100 33 69 41 71 92 100 100 93 5 65 100 96 100 55 100 100 100 95 79 12 4 53 100 100 100 100 100 100 100 100 100 100 100 100
100 100 100 100 100 100 100 98 100 38 31 5 20 99 93 97 97 100 73 99 93 65 98 100 100 100 100 100 98 51 6 87 100 100 100 100 100 100 100 100 100 100 100 100
100 100 100 100 100 100 100 94 91 46 13 5 67 99 94 13 87 100 91 55 87 100 100 100 100 100 100 100 100 100 92 95 100 100 100 100 100 100 100 100 100 100 100 100
100 100 100 100 76 48 100 97 65 44 46 90 97 72 22 65 44 93 91 100 96 96 100 100 100 100 100 100 100 100 100 100 100 100 100 100 100 100 100 100 100 100 100 100
100 100 65 37 78 15 84 65 98 6 18 85 76 87 5 98 58 94 99 100 100 100 100 100 100 100 100 100 100 100 100 100 100 100 100 100 100 100 100 100 100 100 100 100
100 100 22 95 80 64 58 18 5 11 40 5 70 82 46 43 44 46 95 100 100 100 100 100 100 100 100 100 100 100 100 100 100 100 100 100 100 100 100 100 100 100 100 100
100 100 92 100 100 88 32 17 5 5 5 11 80 98 72 100 64 27 100 100 100 100 100 100 100 100 100 100 100 100 100 100 100 100 100 100 100 100 100 100 100 100 100 99
67 61 95 90 87 50 15 27 5 5 14 82 93 98 96 42 99 96 66 100 100 100 100 100 100 100 100 100 100 100 100 100 100 100 100 100 100 100 100 100 100 73 99 91
27 79 83 76 76 100 76 8 100 13 80 22 90 89 99 56 49 93 85 94 89 100 100 100 100 100 100 96 99 98 100 100 99 96 53 64 56 74 80 72 63 96 88 88
54 25 56 77 98 100 100 100 45 64 82 64 82 71 88 98 100 98 79 75 93 90 69 89 98 100 82 19 46 66 63 92 97 94 95 93 93 86 91 98 94 100 100 100
100 9 60 98 100 100 79 51 5 23 67 100 98 91 69 41 87 100 100 100 100 100 83 74 100 89 5 5 16 16 37 67 82 83 92 82 83 77 66 47 96 79 73 97
98 100 95 100 6 5 12 56 54 96 100 100 100 100 47 9 52 100 100 100 100 100 100 100 85 55 16 23 75 94 99 99 11 5 5 5 8 55 90 80 88 100 100 100
100 100 94 21 7 69 20 56 85 100 100 100 100 100 45 81 28 86 100 100 100 100 100 100 91 84 64 54 49 38 21 5 5 5 12 31 48 66 98 100 100 100 95 74
89 100 100 83 38 59 70 100 100 100 100 100 100 100 100 98 28 85 100 100 100 100 100 70 39 18 6 16 5 8 5 5 20 81 96 96 100 95 68 65 60 45 11 5
93 94 62 90 98 91 6 17 95 100 79 100 100 100 96 62 99 100 100 100 100 100 99 13 33 45 8 6 5 5 5 6 60 77 86 73 60 45 8 5 5 5 5 5
60 99 59 80 74 34 10 92 100 100 99 100 100 78 100 88 100 100 100 100 100 97 58 52 5 5 5 5 5 28 52 35 6 18 29 33 6 5 5 28 27 5 5 5
29 91 93 100 100 76 64 88 90 80 86 100 100 100 100 89 77 100 100 100 100 100 74 60 30 8 10 23 75 76 85 88 72 60 59 23 5 5 5 5 5 5 5 3
92 93 83 100 95 85 72 31 9 32 76 100 100 100 93 100 93 97 99 100 100 100 94 97 80 82 79 70 89 84 77 94 85 52 9 5 5 5 5 0 1 0 0 0
100 100 100 100 99 100 100 100 97 96 74 98 100 100 100 86 92 100 100 100 100 100 100 100 79 76 70 62 87 55 80 77 36 5 5 5 2 0 0 0 0 0 1 4
100 100 100 100 100 100 100 100 100 100 100 100 100 100 100 100 100 100 100 100 100 100 100 100 87 70 67 70 75 83 82 51 22 5 5 5 5 5 3 0 4 5 5 5
100 100 100 100 100 100 100 100 100 100 100 100 100 100 100 100 100 100 100 100 100 100 100 100 100 100 82 91 82 67 52 30 5 5 5 5 5 5 5 5 5 5 25 58
100 100 100 100 98 100 100 100 100 100 100 100 100 100 100 100 100 100 100 100 100 100 100 100 100 100 100 78 47 56 5 5 9 31 33 5 5 5 12 6 32 42 62 56
100 100 100 100 100 100 100 100 100 100 100 100 100 100 100 100 100 100 100 100 100 100 100 100 100 99 64 38 63 97 46 73 58 6 5 5 5 5 52 50 53 8 40 39
100 100 100 100 100 100 100 100 100 100 100 100 100 100 100 100 100 100 100 100 100 100 100 100 100 100 99 58 100 94 100 100 98 79 76 56 53 33 30 55 54 49 64 77
100 100 100 100 100 100 100 100 100 100 100 100 100 100 100 100 100 100 100 100 100 100 100 100 100 100 100 98 100 100 100 100 100 100 96 92 57 23 79 58 59 48 52 42
100 100 100 100 100 100 100 100 100 100 100 100 100 100 100 100 100 100 100 100 100 100 100 100 100 91 73 86 100 100 100 100 100 100 100 100 92 63 58 99 58 70 78 89

GFSNGP_prec_cloud_030.txt.gz
Cloud_Cover
100 100 100 100 100 100 100 98 90 99 100 100 91 98 100 96 100 22 67 9 8 99 17 76 83 76 31 9 97 88 100 100 100 100 100 100 100 100 100 100 100 100 100 100
100 86 82 99 100 100 99 90 100 100 100 100 100 100 97 79 15 27 100 55 5 66 100 100 100 100 100 100 100 94 98 86 99 100 87 100 100 100 100 100 100 100 100 100
100 100 98 100 100 99 84 100 100 100 100 100 83 40 17 5 5 5 24 70 11 70 93 100 100 100 100 100 100 100 100 87 47 100 78 98 100 100 100 100 100 100 100 100
100 100 100 100 100 100 100 100 100 100 100 78 25 65 5 5 5 5 56 99 100 85 100 100 100 100 100 100 100 100 100 100 100 100 100 100 100 100 100 100 100 100 100 100
100 100 100 100 100 100 100 100 100 100 100 67 51 71 7 5 5 5 64 98 100 86 100 100 100 100 100 100 100 100 100 100 100 100 100 100 100 100 100 100 100 100 100 100
98 100 100 100 100 100 100 100 100 74 64 6 5 46 8 5 6 5 52 92 88 100 99 100 100 100 100 100 100 100 100 100 100 100 100 100 100 100 100 100 100 100 100 100
100 100 100 100 100 100 100 100 100 44 61 23 9 69 59 24 16 21 97 41 89 100 100 100 100 100 100 100 100 100 100 100 100 100 100 100 100 100 100 100 100 100 100 100
100 99 87 97 100 100 99 97 90 6 7 54 39 37 59 79 27 75 65 34 79 58 100 100 100 100 100 100 100 100 100 100 100 100 100 100 100 100 100 100 100 100 100 100
73 84 72 73 90 86 96 83 76 5 5 11 6 5 25 33 90 95 74 89 100 69 26 86 100 100 100 100 100 100 100 100 97 98 100 98 31 37 100 97 94 42 100 98
100 23 99 93 98 100 100 95 33 5 5 5 69 24 28 11 58 95 71 5 77 95 26 43 74 98 98 100 92 62 49 10 40 88 100 98 98 92 95 83 80 73 63 40
88 68 100 100 100 100 100 100 100 69 9 8 67 54 56 43 100 96 100 81 21 17 37 84 100 76 18 42 35 6 5 51 50 53 80 99 88 98 100 100 93 84 88 86
100 71 100 98 100 100 30 23 8 8 29 55 70 74 99 48 87 99 95 99 100 78 27 71 98 61 14 30 40 39 9 23 45 56 45 23 9 8 9 5 10 27 54 53
100 86 100 100 100 61 67 16 10 64 16 64 82 86 100 100 38 98 100 100 100 100 100 81 96 100 30 39 54 46 77 18 5 5 5 5 32 54 52 8 21 5 13 90
100 83 92 99 54 30 75 62 15 38 33 58 100 100 100 100 91 48 100 100 100 100 100 91 87 72 28 36 26 5 5 5 5 8 57 36 38 12 5 5 5 5 5 5
100 99 56 38 76 99 50 54 7 11 70 59 38 60 97 100 87 77 98 100 100 100 100 100 91 62 74 57 28 5 7 7 20 7 5 5 5 5 5 5 5 9 6 32
100 99 100 64 99 82 100 62 39 26 100 99 28 89 100 100 100 79 100 95 100 100 100 100 100 99 100 96 48 29 23 32 5 5 6 20 26 53 17 5 16 5 17 13
80 87 81 78 92 96 81 100 76 27 12 17 5 78 88 100 100 98 97 100 100 100 100 100 100 100 100 40 26 19 24 32 48 75 93 67 16 5 5 5 5 5 5 5
96 89 97 84 100 100 100 82 72 75 18 5 48 100 99 100 99 100 100 100 100 100 100 100 100 100 86 61 57 48 60 70 89 98 61 8 5 5 5 5 5 5 5 1
98 100 100 100 100 100 99 100 100 96 53 75 100 100 100 100 100 100 100 100 100 100 100 100 100 100 100 100 98 83 89 98 61 76 68 6 5 5 5 5 5 2 0 0
100 100 100 100 100 95 100 100 100 100 100 100 100 100 100 100 100 98 93 100 100 100 100 100 100 100 100 100 100 100 89 100 72 40 12 26 6 5 5 5 5 4 1 4
100 100 100 100 100 100 100 100 99 100 100 100 100 100 100 100 100 100 100 100 100 100 100 100 100 100 100 100 100 100 100 100 98 70 32 7 5 5 5 5 4 5 5 5
100 100 100 100 100 100 100 100 100 100 100 100 100 100 100 100 100 100 100 100 100 100 100 100 100 100 100 100 100 100 100 100 100 34 18 5 5 5 5 5 5 5 16 57
100 100 100 100 100 100 100 100 100 100 100 100 100 100 100 100 100 100 100 100 100 100 100 100 100 100 100 100 100 100 100 91 70 50 17 5 5 5 12 6 15 35 60 23
100 100 100 100 100 100 100 100 100 100 100 100 100 100 100 100 100 100 100 100 100 100 100 100 100 100 100 100 100 100 82 55 65 24 15 5 5 5 8 5 34 12 41 62
100 100 100 100 100 100 100 100 100 100 100 100 100 100 100 100 100 100 100 100 100 100 100 100 100 100 100 100 98 85 66 69 54 43 5 5 5 12 5 30 50 40 71 79
100 100 100 100 100 100 100 100 100 100 100 100 100 100 100 100 100 100 100 100 100 100 100 100 100 100 100 97 85 70 69 84 62 27 12 6 18 16 71 11 37 49 66 65
91 100 100 100 100 79 97 100 100 100 100 100 100 100 100 100 100 100 100 100 100 100 100 100 100 100 98 89 82 76 52 76 70 68 36 34 80 98 74 5 44 69 74 88

GFSNGP_prec_cloud_033.txt.gz
Cloud_Cover
100 100 100 100 100 100 100 100 100 100 100 87 88 81 22 18 74 97 5 5 5 4 5 100 100 100 78 45 10 17 50 48 67 47 98 86 84 100 100 100 100 100 100 96
100 100 100 100 100 100 100 100 100 100 100 67 100 100 90 100 72 5 4 5 11 8 65 95 92 96 92 100 100 100 100 76 5 5 5 33 64 100 100 100 100 100 100 100
100 100 100 100 100 100 100 100 100 90 100 100 100 100 100 59 18 24 0 6 33 42 88 97 100 100 100 100 82 59 100 98 80 97 99 100 100 100 100 100 100 100 100 100
95 76 81 74 100 100 100 100 100 100 100 100 100 100 100 35 8 0 0 8 29 75 100 100 100 100 100 100 99 95 100 100 98 99 100 100 100 100 100 100 100 100 100 100
100 95 74 46 100 72 70 81 100 100 100 100 100 100 84 26 4 4 0 63 77 100 100 100 100 100 100 100 100 100 100 100 100 100 100 100 100 100 100 100 100 100 100 100
100 98 56 66 100 100 100 100 100 100 100 100 100 90 75 5 5 5 47 100 85 100 100 100 100 100 100 100 100 100 100 100 100 100 100 100 100 100 100 100 100 100 100 100
99 96 35 6 100 100 100 100 100 100 100 100 97 5 5 5 5 61 75 25 100 100 100 94 95 100 100 100 100 100 100 100 100 100 100 100 100 100 100 100 100 100 100 100
99 100 100 45 98 95 100 100 100 100 100 100 66 5 5 5 5 11 5 5 51 86 77 82 92 100 100 100 100 100 100 100 100 100 100 97 92 100 100 100 100 100 100 100
78 45 40 96 100 100 100 100 100 100 100 100 17 5 5 5 14 6 5 56 29 6 14 99 100 100 100 100 100 100 100 100 92 52 71 92 47 80 99 75 100 100 100 100
64 49 27 92 100 100 100 100 99 98 100 95 35 5 6 54 44 72 5 5 86 73 5 9 73 96 100 99 86 5 5 5 5 5 5 14 27 41 46 63 99 100 100 100
46 73 34 67 38 91 100 62 66 78 69 63 5 5 7 42 93 99 93 40 45 20 16 32 16 93 93 68 23 5 6 5 5 5 10 5 5 5 5 57 90 90 89 79
99 29 95 84 16 100 100 83 97 97 86 67 62 42 38 58 64 100 100 83 86 93 84 84 16 42 100 99 92 53 52 55 33 6 5 5 5 5 5 5 7 15 5 10
100 76 16 98 100 100 100 30 24 32 9 16 51 30 49 78 73 74 100 95 100 100 99 98 82 100 100 100 100 100 69 23 5 36 5 5 5 5 5 5 5 5 5 5
100 98 56 99 100 100 100 54 10 83 100 70 21 40 5 62 75 56 60 99 100 100 100 100 100 100 100 100 100 94 42 26 53 40 5 5 5 5 5 5 5 5 5 5
100 99 87 100 98 94 99 93 59 28 94 56 6 12 5 5 35 60 62 95 100 100 100 100 100 100 100 100 100 93 49 31 32 11 28 40 43 55 9 5 5 5 5 5
100 100 99 65 100 52 64 70 100 77 99 33 5 45 49 22 52 80 100 100 100 100 100 100 100 100 100 100 100 98 77 93 78 65 92 100 86 55 5 5 5 5 5 5
100 100 100 62 98 98 46 35 86 100 100 84 26 34 99 84 94 100 100 100 98 100 100 100 100 100 100 100 100 100 100 85 88 96 95 46 29 5 5 5 5 5 5 5
100 100 100 100 100 92 92 85 86 88 100 67 56 28 88 100 100 100 100 100 100 100 100 100 100 100 100 100 100 100 100 99 75 90 48 15 28 5 5 5 5 5 5 5
64 100 100 100 100 100 100 100 100 100 100 100 99 100 100 100 100 100 100 100 100 100 100 100 100 100 100 100 100 100 100 100 96 64 100 93 82 10 8 5 5 11 5 5
36 100 100 100 100 100 100 100 100 100 100 100 100 100 100 100 100 100 100 100 100 100 100 100 100 100 100 100 100 100 100 100 79 100 100 100 54 28 11 5 8 31 5 5
67 83 100 100 100 100 100 100 100 100 100 100 100 100 100 100 100 100 100 100 100 100 100 100 100 100 100 100 100 100 100 100 96 100 100 100 40 5 5 5 50 41 5 5
100 100 100 100 100 100 100 100 100 100 100 100 100 100 100 100 100 100 100 100 100 100 100 100 100 100 100 100 100 100 100 100 100 100 66 52 43 11 6 51 62 39 5 5
100 100 100 100 100 100 100 100 100 100 100 100 100 100 100 100 100 100 100 100 100 100 100 100 100 100 100 100 100 100 100 100 100 95 76 73 28 13 57 78 38 7 5 5
100 100 100 100 100 100 100 100 100 100 100 100 100 100 100 100 100 100 100 100 100 100 100 100 100 100 100 100 100 100 100 94 96 94 92 57 20 49 81 45 6 5 5 37
100 100 100 100 100 100 100 100 100 100 100 100 100 100 100 100 100 100 100 100 100 100 100 100 100 100 100 100 100 100 100 100 76 71 84 30 53 73 59 21 6 19 57 82
100 100 100 100 96 100 100 100 100 100 100 100 100 100 100 100 100 100 100 100 100 100 100 100 100 100 100 100 100 100 100 100 100 99 95 62 57 55 38 49 79 7 23 66
19 12 41 88 100 85 40 100 100 100 100 100 100 100 100 100 100 100 100 100 100 100 100 100 100 100 100 100 100 100 100 100 100 76 99 95 89 94 100 97 7 14 64 85

GFSNGP_prec_cloud_036.txt.gz
Cloud_Cover
100 71 53 99 100 100 100 81 100 100 98 100 100 99 99 100 97 77 90 100 100 23 19 93 100 99 98 78 47 30 25 10 5 5 38 43 21 29 34 34 88 100 92 100
100 100 100 100 100 100 100 100 67 92 100 100 100 100 100 100 98 100 100 100 20 21 92 100 100 100 100 100 69 49 16 7 96 58 27 95 69 56 90 64 10 24 100 100
100 100 100 100 100 100 100 100 100 100 100 100 100 100 100 100 100 100 93 7 55 80 100 100 100 100 100 100 100 98 70 68 87 100 68 99 100 100 100 96 98 100 100 100
100 100 100 100 100 100 100 100 100 100 100 100 100 100 100 100 100 88 5 48 19 96 100 100 100 100 100 100 97 86 100 98 88 78 79 100 100 100 100 100 100 100 100 100
76 75 100 100 100 100 100 100 100 100 100 100 100 100 100 100 91 35 54 4 84 100 100 100 100 100 100 100 100 100 100 100 91 99 99 100 100 100 100 100 100 100 100 100
80 95 58 48 58 14 78 100 100 100 100 100 100 100 100 100 100 48 5 37 87 100 100 100 100 100 100 100 100 100 100 100 100 100 100 100 100 100 100 100 100 100 100 100
96 100 78 87 95 71 94 89 96 100 100 100 100 100 100 100 58 6 3 46 98 96 100 100 100 100 100 100 100 100 100 100 100 100 100 99 100 100 100 100 100 100 100 100
89 98 97 76 82 96 100 98 100 100 100 100 100 100 100 82 85 6 5 10 72 79 94 88 100 100 100 100 100 100 100 96 91 92 97 83 66 69 66 33 81 100 100 100
100 98 75 98 88 100 100 100 100 100 100 100 100 100 100 79 83 5 5 5 11 41 98 86 96 100 90 100 100 78 84 100 24 14 6 5 5 5 5 5 5 8 17 51
100 95 58 74 52 79 100 100 100 98 100 100 100 100 100 70 23 7 5 5 5 5 12 87 100 100 100 34 10 5 5 4 5 5 5 5 5 2 5 5 5 17 37 30
100 83 99 64 52 68 85 100 100 100 100 100 100 100 100 96 89 76 43 20 20 5 67 46 10 5 5 18 98 63 5 5 10 15 17 5 0 5 5 4 5 5 5 5
99 43 94 56 40 20 9 65 100 93 88 100 100 100 64 51 59 86 100 100 97 100 90 95 53 5 5 5 58 100 67 44 46 41 28 5 5 5 5 5 5 5 5 5
100 42 30 65 22 5 6 5 26 93 59 92 100 88 100 100 100 100 100 100 100 100 100 100 100 13 5 30 43 72 98 66 34 34 5 5 14 5 5 5 7 5 5 28
100 74 26 65 13 22 100 6 14 56 50 83 98 95 98 100 100 98 89 98 100 100 100 100 100 66 85 82 100 100 100 98 67 14 17 7 9 15 32 51 7 11 5 5
15 88 32 35 5 5 100 26 8 49 47 50 77 90 100 100 88 95 56 69 100 96 100 100 96 87 82 80 96 100 100 100 73 65 75 62 63 80 83 24 12 14 5 5
8 86 100 18 5 5 45 99 59 65 67 100 96 73 99 100 90 32 11 91 97 92 100 100 100 100 100 100 100 100 100 100 99 92 97 95 100 100 100 51 56 10 5 5
12 92 100 100 69 62 34 100 100 100 92 100 100 100 72 71 60 50 46 96 96 100 100 100 100 100 94 100 100 100 100 100 100 100 100 82 100 100 100 99 42 8 5 5
5 12 72 92 82 99 100 100 100 86 59 98 98 100 81 71 77 100 77 100 100 100 100 100 100 100 93 100 100 100 100 100 100 100 100 81 100 100 100 41 44 6 5 5
5 100 100 100 100 100 100 100 100 98 77 82 100 100 100 100 100 100 100 100 100 100 100 100 100 100 100 99 100 100 100 100 100 100 100 96 100 100 100 78 40 27 10 5
28 94 95 83 100 100 100 100 100 100 100 100 100 100 100 100 100 100 100 100 100 100 100 100 100 100 100 100 100 100 100 100 100 100 100 100 100 100 100 35 55 48 5 5
21 62 28 98 100 100 100 100 100 100 100 100 100 100 100 100 100 100 100 100 100 100 100 100 100 100 100 98 100 100 100 100 100 100 100 100 100 100 65 61 67 7 5 5
100 98 100 100 100 100 100 100 100 100 100 100 100 100 100 100 100 100 100 100 100 100 100 100 100 100 100 100 100 100 100 100 100 93 81 100 100 82 83 58 21 18 9 12
100 100 100 100 100 100 100 100 100 100 100 100 100 100 100 100 100 100 100 100 100 100 100 100 100 100 100 100 100 100 100 100 100 100 100 100 100 100 80 51 43 44 11 6
100 100 100 100 100 100 100 100 100 100 100 100 100 100 100 100 100 100 100 100 100 100 100 100 100 91 100 100 100 100 100 100 100 100 100 100 100 74 77 88 53 42 9 11
100 100 100 100 100 100 100 100 100 100 100 100 100 100 100 100 100 100 100 100 100 100 100 100 100 100 100 100 100 100 100 100 99 100 94 99 100 78 81 81 40 22 56 94
100 100 100 100 97 88 93 100 100 100 100 100 100 100 100 100 100 100 100 100 100 100 100 100 100 100 100 100 100 100 100 100 100 100 96 100 96 100 86 73 70 55 76 100
14 27 27 33 68 86 60 21 90 100 100 95 60 98 100 100 100 100 100 100 100 100 100 100 100 100 98 99 100 100 100 100 100 100 100 91 78 85 100 93 84 100 100 100

GFSNGP_prec_cloud_039.txt.gz
Cloud_Cover
100 91 18 100 68 88 100 100 100 100 100 98 100 100 99 98 73 83 69 14 40 74 36 77 100 100 93 98 100 51 21 10 29 43 29 5 4 9 9 2 12 38 27 40
100 100 52 10 100 100 100 67 100 95 100 100 100 90 96 100 42 19 61 83 100 100 99 100 100 100 86 100 100 98 71 94 94 96 81 61 62 55 73 99 100 100 100 100
99 85 100 100 100 100 100 100 88 100 100 100 100 100 100 100 100 100 100 100 100 46 48 100 100 100 100 100 100 100 100 98 96 91 87 73 73 100 100 100 100 100 100 100
86 74 64 100 100 100 100 100 100 99 100 100 100 100 100 100 100 100 100 100 95 75 99 100 100 100 100 100 100 100 100 100 88 84 78 97 100 100 100 100 100 100 100 100
100 99 100 65 100 100 100 100 100 99 100 99 98 90 100 100 100 100 100 100 25 86 97 100 100 100 100 100 100 100 100 100 100 98 100 100 100 100 100 100 100 100 100 100
100 88 95 100 100 100 100 100 100 100 100 100 100 100 100 100 100 100 100 100 98 95 79 100 100 100 100 100 100 100 100 100 100 100 100 100 100 100 100 100 100 100 100 100
100 97 99 95 98 80 100 100 100 100 100 100 100 100 100 100 100 100 100 100 78 71 99 100 100 100 100 100 100 100 100 100 100 100 100 99 100 100 100 100 98 78 67 79
100 100 78 100 99 67 84 49 91 100 100 100 100 100 100 100 100 100 100 98 58 70 100 100 100 100 100 100 98 100 100 99 100 100 93 84 71 63 28 4 0 0 0 1
100 100 99 99 86 76 65 100 100 93 100 100 100 100 100 100 100 100 100 69 28 61 57 86 88 100 100 92 96 76 73 21 7 5 0 4 0 4 0 0 0 0 0 0
100 100 100 100 100 100 100 100 100 100 100 99 100 100 100 100 100 100 100 86 5 30 10 22 31 82 6 6 5 2 5 21 5 0 0 2 5 5 0 0 0 0 0 4
100 100 100 100 67 77 88 100 100 100 100 100 100 100 100 100 100 100 100 63 17 5 10 15 9 5 5 4 0 0 10 98 32 5 4 13 22 5 0 1 5 5 5 5
38 59 100 100 100 75 61 58 79 100 100 100 100 100 100 100 100 100 100 100 96 86 99 100 82 8 5 5 5 5 5 20 68 46 46 95 48 5 5 5 5 5 5 5
14 5 57 100 100 100 65 41 25 99 100 100 100 100 100 100 100 100 98 88 100 100 100 100 100 100 57 5 5 5 31 35 68 100 100 66 19 22 5 6 5 5 5 5
5 5 5 50 95 100 73 14 18 45 90 100 100 100 100 100 100 100 74 98 100 100 96 98 99 99 100 88 6 5 12 88 100 100 100 93 67 58 62 34 15 24 6 5
5 5 5 5 77 100 100 76 67 86 57 52 62 98 99 100 100 100 85 69 75 100 100 98 100 100 88 98 78 5 62 48 76 93 97 100 100 96 98 98 99 96 42 20
23 5 5 5 6 89 100 100 56 59 40 5 5 10 61 63 65 58 22 67 85 100 100 100 100 100 100 99 93 79 71 74 97 96 100 100 100 100 98 62 56 51 25 40
97 5 5 5 5 25 100 100 100 49 99 39 56 22 99 100 95 28 77 77 100 100 100 100 100 100 100 100 100 92 84 68 68 100 100 100 100 100 83 72 61 55 48 25
100 68 5 13 51 68 99 100 100 68 92 100 100 95 87 100 100 95 78 75 96 100 100 100 100 100 100 100 92 100 94 79 97 100 100 100 90 100 100 100 100 100 38 47
100 99 38 100 100 100 100 100 99 99 66 100 100 94 93 98 99 100 100 100 100 99 100 100 100 100 100 100 100 98 94 85 100 99 100 100 100 100 100 100 100 91 56 59
100 85 53 33 84 95 100 100 100 100 100 94 94 100 100 100 96 100 100 100 100 100 100 96 100 100 100 100 98 100 94 92 100 100 100 100 100 100 100 100 100 94 71 44
95 88 5 6 52 86 98 100 98 100 100 100 100 100 100 100 100 100 100 100 100 100 100 100 100 100 100 100 100 88 93 98 100 100 100 100 100 100 100 100 100 100 94 50
89 85 65 90 100 100 100 100 100 100 100 100 100 100 100 100 100 100 100 100 100 100 100 100 100 100 100 100 100 100 100 100 100 100 100 100 100 100 100 100 100 94 54 30
100 76 90 67 98 100 100 100 100 100 100 100 100 100 100 100 100 100 100 100 100 100 100 100 100 100 100 100 100 100 100 100 100 100 100 100 100 100 100 100 82 26 56 26
100 100 100 100 100 100 100 100 100 100 100 100 100 100 100 100 100 100 100 100 100 100 100 100 100 100 100 100 100 100 100 100 100 100 100 100 100 100 100 100 52 6 49 26
100 100 100 100 100 100 100 100 100 100 100 100 100 100 100 100 100 100 100 100 100 100 100 100 100 100 100 100 100 100 100 100 100 100 100 100 100 100 100 100 100 100 68 44
100 100 100 100 100 100 100 100 100 100 100 100 100 100 100 100 100 100 100 100 100 100 100 100 100 100 100 100 100 100 100 100 100 100 100 100 100 100 100 100 71 53 63 61
85 88 100 100 100 100 100 100 100 100 63 100 89 93 77 98 100 100 100 100 100 100 100 100 100 100 100 100 100 100 100 100 100 100 91 96 99 97 99 82 84 95 99 100

GFSNGP_prec_cloud_042.txt.gz
Cloud_Cover
100 100 100 100 100 100 100 100 100 100 75 100 81 100 100 100 100 100 100 100 100 100 100 100 100 100 100 100 100 98 49 24 52 48 1 5 0 1 2 30 65 39 41 66
100 77 5 5 86 100 100 100 100 100 100 100 100 97 99 100 100 100 100 100 100 100 100 100 100 100 100 100 100 100 100 100 100 69 100 100 98 100 52 44 36 92 98 74
100 98 90 100 99 69 100 100 100 100 100 100 100 100 100 100 100 100 100 100 100 100 100 100 100 100 100 100 100 100 100 71 83 100 100 100 100 100 100 100 100 100 100 100
87 61 100 100 100 97 10 56 91 100 100 100 100 100 100 100 100 100 100 100 100 100 100 100 100 100 100 100 100 100 100 100 100 100 100 100 100 100 100 100 100 100 100 100
91 77 92 87 100 100 100 100 100 100 100 100 100 100 100 100 100 100 98 96 100 100 21 100 100 100 100 100 100 100 100 100 100 100 100 100 100 100 100 100 100 100 100 100
100 100 86 100 98 100 100 100 100 100 100 100 100 98 97 100 100 100 100 100 100 100 100 100 100 100 100 100 100 100 100 100 100 100 100 100 100 100 100 100 100 100 100 97
100 100 99 100 97 100 100 100 100 100 100 100 100 100 100 100 100 100 100 100 100 100 100 100 100 100 98 100 100 100 100 98 97 100 100 100 100 100 100 96 25 16 97 86
88 100 100 100 93 82 100 100 100 100 100 100 100 100 100 100 100 100 100 100 100 100 100 100 100 100 100 100 100 100 100 100 100 100 86 88 50 99 68 12 4 0 0 2
78 89 100 91 100 100 91 98 71 99 100 100 100 100 100 100 100 100 100 100 100 100 100 100 100 100 100 96 100 84 18 5 0 5 91 10 4 5 0 0 5 0 0 0
52 44 56 98 100 68 94 62 70 99 91 100 100 100 100 100 100 100 100 100 100 100 100 98 89 61 5 3 5 3 0 0 0 9 100 96 16 1 2 6 5 5 2 0
94 86 74 89 68 100 99 70 76 84 97 100 100 100 100 100 100 100 100 100 100 100 100 98 5 8 5 5 1 0 0 0 3 5 46 55 6 5 20 58 46 12 5 5
54 44 73 100 99 74 83 100 100 100 100 100 100 100 100 100 100 100 100 100 100 100 100 100 99 97 64 5 5 5 1 4 3 5 11 8 72 70 92 99 99 21 5 5
5 5 17 86 100 100 79 84 86 100 100 100 100 100 100 99 100 100 100 100 100 100 100 100 100 100 100 100 52 5 5 5 5 5 28 100 100 100 100 100 100 91 60 30
10 14 12 81 64 67 100 100 100 96 63 56 97 100 100 100 100 100 100 98 100 100 100 100 100 98 100 95 100 20 5 5 8 6 5 32 77 100 100 100 100 100 81 75
78 52 35 15 65 44 79 98 77 78 48 46 26 78 100 100 100 100 99 100 100 100 100 100 100 94 98 100 100 67 37 10 5 5 9 59 81 100 100 100 100 90 89 79
100 72 6 5 19 23 21 60 66 59 47 54 50 47 68 100 100 100 100 100 99 95 97 100 100 100 100 100 100 96 80 76 65 28 5 47 99 86 100 100 100 88 98 95
100 100 76 98 86 8 15 57 20 41 33 17 18 50 65 47 66 100 100 100 91 100 100 95 100 100 100 100 100 100 97 91 79 64 81 69 98 100 100 97 81 92 90 56
100 100 100 100 98 80 65 100 100 100 66 81 77 87 44 24 35 83 98 100 100 98 100 75 100 100 100 100 100 100 100 96 92 75 91 83 77 98 100 100 100 100 100 86
100 100 100 100 100 100 100 100 100 100 100 100 100 99 82 42 34 86 97 94 100 100 100 100 96 98 100 100 100 100 100 98 100 100 97 97 84 96 100 99 100 100 100 100
100 100 100 100 100 100 48 54 66 86 100 100 100 100 80 77 97 100 100 100 100 100 100 98 85 100 100 100 100 100 100 100 100 99 93 91 87 92 83 98 100 100 100 100
100 100 100 100 100 88 43 87 94 97 94 100 100 100 99 98 99 100 100 100 100 100 89 82 100 100 100 100 100 100 98 100 100 88 100 99 99 86 100 100 100 100 100 100
100 100 100 98 77 93 86 97 93 89 94 97 100 100 100 100 98 98 98 100 100 98 95 96 100 100 100 100 100 100 100 100 100 92 100 100 88 96 94 100 100 100 100 97
100 100 100 94 68 100 100 100 100 99 100 100 100 100 100 100 100 100 100 97 100 100 100 100 100 100 100 100 100 100 100 100 100 100 100 100 98 96 76 67 96 99 100 72
100 100 100 100 94 100 100 100 100 100 100 100 100 100 100 100 100 100 100 100 100 100 100 100 100 100 100 100 100 100 100 100 100 100 100 100 100 100 92 100 84 92 88 100
100 100 100 100 100 100 100 100 100 100 100 100 100 100 100 100 100 100 100 100 100 100 100 100 100 100 100 100 100 100 100 100 100 100 100 100 100 100 100 98 100 100 98 46
100 100 100 100 100 100 100 100 100 100 100 100 100 100 100 100 100 100 100 100 100 100 100 100 100 100 100 100 100 100 100 100 100 100 100 100 100 100 100 100 100 98 58 22
100 100 100 100 100 100 100 100 100 100 100 100 100 100 100 96 92 100 97 91 100 100 100 100 100 100 100 100 100 100 100 100 100 100 100 100 100 100 100 100 97 98 99 100

GFSNGP_prec_cloud_045.txt.gz
Cloud_Cover
100 89 92 96 100 100 100 100 100 100 98 100 100 100 100 100 100 100 100 100 100 100 100 100 100 100 100 100 100 100 100 100 100 100 100 98 68 4 5 2 39 83 35 68
100 95 97 15 97 100 100 100 100 100 100 100 100 100 100 100 100 100 100 100 100 100 100 100 100 100 100 100 100 100 100 100 100 100 100 100 100 100 100 100 86 63 89 67
43 86 60 92 92 41 100 100 97 100 100 100 100 100 100 100 100 100 100 100 100 100 100 100 100 100 100 100 100 100 100 100 100 100 100 100 100 100 100 100 100 100 100 100
100 99 86 100 14 5 5 9 85 100 100 100 100 100 100 100 100 100 100 100 100 100 100 100 100 100 100 100 100 100 100 100 100 100 100 100 100 100 100 100 100 100 100 100
95 98 100 100 100 100 91 19 33 100 100 100 100 100 100 100 100 100 100 100 100 100 100 100 100 100 100 100 100 100 100 100 100 100 100 100 100 100 100 100 100 100 100 100
100 100 100 99 22 58 100 100 99 98 100 100 100 100 100 100 99 100 100 100 100 100 100 100 100 100 100 100 100 100 100 100 100 100 100 100 100 100 100 100 100 100 57 32
57 100 100 83 54 97 100 100 100 94 100 100 100 99 90 100 100 100 100 100 100 100 100 100 100 100 100 100 100 100 94 100 100 100 100 99 100 100 77 13 53 100 100 90
70 98 92 86 78 100 95 68 90 100 100 100 100 100 100 100 100 100 100 100 100 100 100 100 100 100 100 100 100 100 100 100 100 60 72 100 99 93 100 78 5 1 1 0
100 93 60 82 56 72 100 100 100 97 100 100 100 100 100 100 100 100 100 100 100 100 100 100 100 98 100 100 100 100 62 34 6 3 0 0 6 85 100 99 10 3 0 3
39 99 73 100 38 56 46 32 90 99 100 100 100 100 100 100 100 100 100 100 100 100 100 100 100 100 99 72 44 5 5 5 0 0 0 0 4 5 8 37 7 5 5 30
88 12 71 93 98 82 57 9 5 7 30 69 100 100 100 100 100 100 100 100 100 100 100 100 100 100 100 100 77 18 5 4 0 0 0 2 2 5 5 7 13 5 6 18
100 73 90 79 100 30 61 52 8 21 5 10 6 68 100 100 100 97 92 100 100 100 100 100 100 100 100 100 100 94 5 5 5 4 4 5 5 5 6 45 39 39 62 89
61 95 100 100 100 54 71 24 26 38 16 10 28 45 12 94 100 100 100 77 94 100 100 100 100 100 100 100 100 91 13 56 6 5 5 5 5 5 9 19 9 48 91 100
77 100 93 100 100 78 61 93 82 86 60 27 34 17 53 72 62 99 100 93 100 100 100 100 100 100 100 100 100 84 73 85 66 40 58 65 63 62 62 81 90 72 69 100
100 100 89 71 100 100 91 27 81 80 98 72 50 67 34 21 51 97 84 12 9 60 100 84 93 99 100 100 100 100 100 84 78 77 77 68 58 21 47 81 92 95 97 96
100 100 100 100 97 100 100 62 83 33 57 100 71 58 69 61 14 10 77 72 47 36 79 99 100 99 100 100 100 100 100 100 88 83 96 86 69 67 61 78 70 90 99 100
100 100 100 100 100 100 100 100 82 6 6 20 55 80 75 70 68 66 28 30 100 100 100 100 100 88 100 100 100 100 100 100 100 100 100 96 82 84 72 64 73 90 96 100
91 98 100 100 100 100 100 99 90 100 100 79 27 39 50 50 29 66 62 78 58 93 100 100 97 99 100 100 100 100 100 100 100 100 100 99 92 100 92 74 92 86 95 100
100 100 100 100 100 100 100 100 100 100 100 100 100 100 75 26 8 25 64 92 95 100 100 100 99 100 100 100 100 100 100 100 100 100 100 100 100 100 97 95 91 85 98 98
100 100 100 100 100 100 100 100 100 100 68 71 97 100 100 96 64 61 55 69 100 100 100 84 95 99 100 100 100 100 100 100 100 100 100 100 100 98 96 86 88 100 100 100
100 100 100 100 96 98 100 100 100 94 51 34 83 99 100 100 95 37 55 100 100 100 100 100 97 98 95 100 100 100 100 100 100 100 100 100 100 100 100 100 74 90 96 100
100 100 100 100 100 100 100 100 99 83 60 12 25 70 96 100 100 100 100 100 87 93 94 100 97 100 100 100 100 100 100 100 100 100 100 100 100 100 100 100 99 100 100 100
100 100 100 100 100 100 100 100 100 100 100 92 79 100 100 100 100 100 100 99 99 100 100 100 100 100 100 100 100 100 100 100 100 100 100 100 100 100 100 100 97 100 100 100
100 100 100 100 100 96 82 94 94 100 100 100 100 100 100 100 100 100 100 100 100 100 100 100 100 100 100 100 100 100 100 100 100 100 100 100 100 100 100 100 100 100 100 100
100 100 100 100 100 100 83 98 100 100 100 100 100 100 100 100 100 100 100 100 100 100 100 100 100 100 100 100 100 100 100 100 100 100 100 100 100 100 100 100 100 100 100 100
99 100 100 100 96 93 97 96 100 98 98 100 100 100 100 100 100 100 100 100 100 100 100 100 100 100 100 100 100 100 100 100 100 100 100 100 100 100 100 100 100 100 100 100
100 99 97 95 98 99 100 100 97 97 100 100 100 99 50 65 74 91 94 100 100 100 100 100 100 100 100 100 100 100 100 100 100 100 100 100 100 100 100 100 100 100 100 68

GFSNGP_prec_cloud_048.txt.gz
Cloud_Cover
74 18 59 100 71 96 100 100 89 100 96 100 100 100 84 100 100 100 100 100 100 100 100 100 100 100 100 100 100 100 100 98 96 100 100 100 62 100 100 100 100 70 13 27
95 65 6 61 91 100 97 100 100 100 100 100 100 100 100 100 100 100 100 100 100 100 100 100 98 97 100 100 100 100 100 100 100 100 100 100 100 100 100 100 100 95 87 100
93 41 63 56 12 72 99 100 100 100 100 100 100 100 100 100 100 100 100 100 100 100 100 100 100 100 100 100 100 100 100 100 100 100 100 100 100 100 100 100 100 100 100 100
38 8 19 94 14 6 67 36 9 82 100 100 100 100 100 100 100 100 100 100 100 100 100 100 100 100 100 100 100 100 100 100 100 100 100 100 100 100 100 100 100 100 100 100
52 55 92 33 62 32 15 22 26 9 6 89 100 100 90 100 100 100 100 100 100 100 100 100 100 100 100 100 100 100 100 100 100 100 100 100 100 100 100 100 100 100 100 100
94 96 100 90 100 100 91 97 77 5 5 29 92 100 100 88 100 100 100 100 100 100 100 100 100 100 100 100 100 100 100 100 100 100 100 100 100 100 100 100 100 36 16 54
92 97 95 9 53 67 58 52 55 32 12 5 99 96 100 100 100 100 100 100 100 100 100 100 100 100 100 100 100 100 100 100 100 100 100 100 100 100 90 99 100 100 96 74
98 100 50 84 51 40 46 92 36 100 99 99 77 71 98 100 100 100 100 100 100 100 100 100 100 100 100 100 77 100 100 100 100 100 100 100 94 97 87 25 11 19 23 67
87 100 100 98 88 82 97 97 100 100 100 100 100 100 100 100 100 100 100 100 100 100 100 100 100 100 100 100 100 100 100 100 100 50 74 100 61 28 5 4 0 2 5 5
40 53 100 100 100 100 83 64 99 100 100 87 100 100 100 100 100 100 100 100 100 100 100 100 100 100 100 100 100 100 100 100 97 42 5 5 5 0 0 0 0 1 5 5
97 35 5 86 100 100 100 69 65 64 76 74 99 99 100 100 100 100 100 100 100 100 100 100 100 100 100 100 100 100 100 100 80 55 5 5 5 0 0 0 5 1 2 5
100 97 69 11 47 97 100 84 70 61 52 57 63 59 85 95 99 100 100 100 100 100 100 100 100 100 100 100 100 100 100 100 100 98 29 5 5 5 5 5 5 5 5 5
100 96 87 100 91 13 30 100 100 84 62 57 47 72 72 41 100 100 100 100 100 100 100 100 100 100 100 100 100 100 100 100 100 100 100 5 5 5 5 5 5 5 45 52
67 88 78 95 100 100 100 90 49 96 95 91 85 68 73 78 83 74 100 100 100 100 100 92 100 100 100 100 100 100 100 100 100 100 100 60 54 16 5 6 5 5 5 5
91 100 100 94 96 100 100 100 100 39 81 100 100 100 82 72 77 78 73 87 99 100 100 96 76 100 100 100 100 100 100 98 100 100 100 78 67 68 42 28 34 5 5 5
98 100 100 95 100 100 100 100 100 100 98 97 92 100 100 93 77 70 64 87 97 64 52 61 44 94 99 100 100 100 100 100 100 100 100 100 78 76 80 76 74 56 17 14
100 100 100 100 100 100 100 100 100 100 100 100 100 52 47 90 80 88 80 51 76 83 93 100 100 65 98 100 100 100 100 100 100 100 100 100 99 88 91 70 84 66 56 92
100 100 100 100 100 100 100 100 100 100 100 100 100 82 16 51 55 85 99 61 66 91 99 83 100 100 100 100 100 100 100 100 100 100 100 100 100 100 100 75 77 76 66 100
100 100 100 100 100 100 100 100 100 100 100 100 100 100 100 92 27 52 58 74 54 52 72 99 100 100 100 100 100 100 100 100 100 100 100 100 100 100 100 86 92 75 100 100
100 100 100 100 100 100 100 100 100 100 100 100 100 98 92 100 94 94 68 33 53 52 86 95 100 100 100 100 100 100 100 100 100 100 100 100 100 100 96 100 100 100 100 100
100 100 100 100 100 100 100 100 100 100 100 100 100 100 87 90 71 100 99 78 54 94 100 100 100 100 100 100 100 100 100 100 100 100 100 100 100 100 100 100 100 100 100 100
100 100 100 100 100 100 100 100 100 100 100 100 100 58 98 98 82 73 99 78 80 92 81 85 85 100 100 100 100 100 100 100 100 100 100 100 100 100 100 100 100 100 100 100
100 100 100 100 100 100 100 100 100 100 100 100 72 67 92 82 97 100 94 84 98 97 100 100 100 100 100 100 100 100 100 100 100 100 100 100 100 100 100 100 100 100 100 100
100 100 100 100 100 100 100 100 100 100 100 100 100 32 75 89 100 96 85 100 99 100 100 100 100 100 100 100 100 100 100 100 100 100 100 100 100 100 100 100 100 100 100 100
100 100 100 100 100 100 100 100 98 95 78 35 34 82 94 100 100 100 100 100 100 100 100 100 100 100 100 100 100 100 100 100 100 100 100 100 100 100 100 100 100 100 99 100
100 100 100 100 100 100 100 100 100 81 63 100 100 100 100 100 100 100 100 100 100 100 100 100 100 100 100 100 100 100 100 100 100 100 100 100 100 100 100 100 100 100 100 100
100 100 100 100 100 100 100 100 100 100 97 100 100 99 100 64 65 76 84 87 100 100 100 100 100 100 100 100 100 100 100 100 100 100 100 100 100 100 100 100 100 100 100 91

GFSNGP_prec_cloud_051.txt.gz
Cloud_Cover
91 96 45 64 52 68 100 100 65 100 91 100 93 97 96 35 100 100 97 100 100 100 100 100 100 100 100 100 100 100 100 100 100 100 100 100 100 100 100 100 83 27 92 100
5 16 5 17 99 100 100 100 96 36 100 100 91 86 100 100 98 100 100 100 100 100 100 100 100 100 100 100 100 100 100 100 100 100 100 100 100 100 100 100 100 100 100 100
25 5 5 29 43 35 90 100 100 100 100 100 100 100 100 100 100 97 100 100 100 100 100 100 100 96 100 100 100 100 100 100 100 100 100 100 100 100 100 100 100 100 100 96
48 5 57 97 7 5 10 54 54 100 100 99 100 100 100 100 89 93 90 100 100 100 100 100 100 100 100 100 100 100 100 100 100 100 100 100 100 100 100 100 100 100 100 49
10 51 42 7 5 5 15 61 5 100 56 84 100 100 100 100 100 40 92 99 100 100 100 100 100 100 100 100 100 100 100 100 100 100 100 100 100 100 100 100 100 100 100 74
13 64 42 91 6 5 5 34 5 5 5 30 34 100 100 54 5 64 67 100 100 100 100 100 100 100 100 100 100 100 100 100 100 100 100 100 100 100 100 100 100 60 19 74
100 100 96 83 98 26 22 95 24 49 8 59 78 23 85 100 100 100 91 100 99 100 100 100 100 100 100 100 100 100 100 100 100 100 100 100 100 100 100 99 100 50 29 14
100 100 99 87 72 76 70 80 53 25 89 100 90 21 99 100 100 100 100 100 100 100 100 100 100 100 100 100 100 100 100 100 100 100 100 100 100 100 100 98 95 68 7 2
10 96 100 53 69 40 62 78 98 89 80 100 95 78 99 100 100 100 100 100 100 100 100 100 100 100 100 100 100 100 100 100 100 100 100 100 100 100 100 62 59 3 0 0
32 6 10 69 95 71 75 24 49 93 98 100 100 100 100 100 100 100 100 100 100 100 100 100 100 100 100 100 100 100 100 100 100 100 100 100 98 100 100 90 13 4 0 0
71 77 5 5 6 78 71 62 61 49 66 83 100 100 100 100 100 100 100 100 100 100 100 100 100 100 100 100 100 100 100 100 100 100 100 100 100 100 100 8 5 5 3 0
60 100 76 86 26 8 72 100 100 100 100 100 96 100 100 100 96 100 100 100 100 100 100 100 100 100 100 100 100 100 100 100 100 100 100 100 100 100 100 68 5 5 5 5
57 50 67 100 58 76 20 6 99 100 100 100 100 90 77 76 97 100 100 100 100 100 100 100 100 100 100 100 100 100 100 100 100 100 100 100 100 100 100 71 48 16 5 5
5 78 58 9 88 100 100 84 7 64 100 100 100 100 98 93 99 86 99 100 100 100 100 100 100 100 100 100 100 100 100 100 100 100 100 100 100 100 100 86 89 37 5 5
53 5 18 48 82 100 100 100 100 56 77 93 100 100 100 96 76 72 82 99 100 100 100 100 100 90 98 100 100 100 100 100 100 100 100 100 100 100 91 69 55 22 7 14
46 49 45 100 77 100 100 100 100 100 100 100 41 89 84 100 100 100 96 73 83 78 96 92 100 95 100 100 100 100 100 100 100 100 100 100 100 100 100 100 85 71 94 88
100 100 100 100 100 100 100 100 100 100 100 68 100 100 100 100 96 99 100 100 100 69 64 81 80 100 91 100 99 99 100 100 100 100 100 100 100 100 100 100 97 98 100 99
100 100 100 100 100 100 87 100 100 100 100 100 99 100 100 100 100 100 71 92 78 88 93 100 100 100 100 100 100 97 89 100 100 100 100 100 100 100 100 100 100 100 100 100
100 100 100 100 100 100 100 100 100 100 100 100 100 100 100 100 100 100 100 23 38 36 59 94 100 100 100 100 100 100 100 100 100 100 100 100 100 100 100 100 100 100 100 100
100 100 100 100 100 100 100 100 100 100 100 100 100 100 100 100 100 100 100 99 57 59 47 38 55 91 100 100 100 100 100 100 100 100 100 100 100 100 100 100 100 100 100 100
100 100 100 100 100 100 100 100 100 100 100 100 100 100 100 100 100 97 100 96 74 54 51 48 92 98 98 100 100 100 92 100 100 100 100 100 100 100 100 100 100 100 100 100
100 100 100 100 100 100 100 100 100 100 100 100 100 100 100 100 100 100 92 64 48 47 42 85 100 100 97 99 98 100 100 100 100 100 100 100 100 100 100 100 100 100 100 100
100 100 100 100 100 100 100 100 100 100 100 100 100 100 100 100 100 100 100 83 100 90 99 96 100 100 100 93 73 97 100 100 100 100 100 100 100 100 100 100 100 100 100 100
100 100 100 100 100 100 100 100 100 100 100 100 100 100 100 100 100 100 100 100 100 100 100 78 100 98 100 100 100 100 100 100 100 100 100 100 100 100 100 100 100 100 100 100
100 100 100 100 100 100 100 100 100 100 100 100 100 100 100 100 100 76 60 95 100 100 100 100 91 100 100 100 100 100 100 100 100 100 100 100 100 100 100 100 100 100 100 100
100 100 100 100 100 100 100 100 100 100 100 100 100 100 100 100 90 58 100 100 100 100 100 100 100 100 100 100 100 100 100 100 100 100 100 100 100 100 100 100 100 100 100 100
100 100 100 100 100 100 100 100 100 100 100 100 99 100 100 96 100 100 100 50 56 100 100 100 84 100 99 100 80 97 100 100 100 100 100 100 100 100 100 100 100 100 100 100

GFSNGP_prec_cloud_054.txt.gz
Cloud_Cover
90 100 89 94 95 100 100 78 75 99 47 100 67 91 82 10 8 87 37 5 5 5 5 100 100 100 100 100 100 100 100 100 100 100 100 100 100 100 100 100 100 100 100 100
94 71 98 82 100 99 24 8 99 100 95 11 13 85 26 6 76 100 86 76 96 5 5 100 83 46 94 100 100 100 100 100 100 100 100 100 100 100 100 100 100 100 100 100
74 75 93 100 100 42 59 100 76 96 100 99 100 69 77 95 56 100 96 69 92 100 17 9 96 100 95 100 96 100 100 100 100 100 100 100 100 100 100 100 100 100 100 100
72 51 100 100 57 5 33 99 64 99 100 100 77 76 100 74 100 100 81 89 92 93 100 100 77 81 100 98 100 100 100 100 100 100 100 100 100 100 100 100 100 100 100 100
69 49 98 98 32 19 83 29 9 98 46 99 26 100 100 100 100 97 45 83 100 100 100 100 87 73 100 99 80 100 100 100 100 100 100 100 100 100 100 100 100 100 100 100
5 5 17 47 5 25 100 88 70 94 56 97 24 72 71 18 56 77 32 99 100 100 100 100 100 100 100 100 100 100 100 100 100 100 100 100 100 100 100 100 100 100 100 100
47 92 100 5 100 100 57 96 50 42 100 100 95 91 10 7 18 13 79 98 100 99 100 100 100 100 100 100 100 100 100 100 100 100 100 100 100 100 100 100 100 100 100 100
34 85 100 6 15 33 56 87 59 70 100 100 100 100 31 13 5 12 50 97 84 100 100 100 100 100 100 100 100 100 100 100 100 100 100 100 100 100 100 100 100 100 100 100
31 5 20 5 5 5 5 8 78 78 100 100 100 100 100 100 100 64 59 100 100 100 99 100 100 100 100 100 100 100 100 100 100 100 100 100 100 100 100 100 100 100 100 100
70 5 15 6 5 42 31 48 39 94 100 100 100 100 100 100 100 95 65 100 100 100 100 100 100 100 100 100 100 100 100 100 100 100 100 100 100 100 100 100 100 100 100 100
91 100 77 64 12 5 17 69 62 68 66 100 100 100 100 100 100 100 100 100 100 100 100 100 100 100 100 100 100 100 100 100 100 100 100 100 100 100 100 100 100 100 100 100
64 57 5 97 28 22 8 25 6 12 66 26 100 100 100 100 100 100 100 100 100 100 100 100 100 100 100 100 100 100 100 100 100 100 100 100 100 100 100 100 100 100 100 100
100 99 98 100 96 4 7 72 52 5 6 72 78 71 100 100 100 100 100 100 100 100 100 100 100 100 100 100 88 100 100 100 100 100 100 100 100 100 100 100 100 100 100 100
92 100 100 100 100 100 99 99 96 33 5 28 100 67 86 54 65 78 82 100 100 100 100 100 100 100 100 100 100 100 100 100 100 100 100 100 100 100 100 100 100 100 100 83
100 98 100 100 82 98 100 100 100 100 25 63 26 94 95 42 83 51 54 76 75 89 100 100 100 100 100 100 100 100 100 100 100 100 100 100 100 100 100 100 100 100 100 82
100 100 100 100 100 99 81 67 93 100 100 100 92 75 83 98 68 62 94 94 86 63 71 95 100 100 100 100 100 100 100 100 100 100 100 100 100 100 100 100 100 100 84 66
100 100 100 100 100 100 100 100 100 100 100 100 100 100 100 97 62 65 67 100 100 88 100 100 100 100 100 100 100 100 100 100 100 100 100 100 100 100 100 100 100 100 100 100
100 100 100 100 100 100 100 100 100 100 100 100 100 100 100 100 98 64 88 92 43 83 100 99 100 100 100 100 100 100 100 100 94 100 100 100 100 100 100 100 100 100 100 100
100 100 100 100 100 100 100 100 100 100 100 100 100 100 100 100 100 100 100 100 96 100 96 92 88 79 96 82 84 100 100 100 100 100 100 100 100 100 100 100 100 100 100 100
100 100 100 100 100 100 100 100 100 100 100 100 100 100 100 100 100 100 100 100 100 100 100 100 76 50 43 97 100 100 100 100 100 100 100 100 100 100 100 100 100 100 100 100
100 99 100 100 100 100 100 100 100 100 100 100 100 100 100 100 100 100 100 100 100 92 98 86 63 54 88 100 71 67 90 100 100 100 100 100 100 100 100 100 100 100 100 100
100 100 100 100 100 100 99 99 100 100 100 100 100 100 100 100 100 100 100 100 100 100 100 82 77 27 81 100 100 100 100 67 97 100 90 99 100 100 100 100 100 100 100 100
100 100 100 100 100 100 100 100 100 100 100 97 100 100 100 100 100 100 100 100 100 100 100 100 97 100 63 34 93 100 100 94 75 82 91 100 100 100 100 100 100 100 100 100
100 100 100 100 100 100 100 100 100 100 100 100 100 100 100 100 100 100 100 100 100 100 100 100 100 100 100 100 74 41 89 100 100 100 100 100 100 100 100 100 100 100 100 100
100 100 100 100 100 100 100 100 100 100 100 100 100 100 100 100 100 100 100 100 100 100 100 100 100 99 100 100 100 100 100 100 100 100 100 100 100 100 100 100 100 100 100 100
100 100 100 100 100 100 100 100 100 100 100 100 100 100 100 100 100 100 100 100 100 100 100 100 100 100 100 100 100 100 100 100 100 100 100 100 100 100 100 100 100 100 100 100
76 100 100 100 100 100 100 100 100 100 100 100 100 100 100 100 100 100 100 100 100 100 100 100 100 100 100 100 100 100 93 82 90 96 100 100 100 100 100 100 100 100 100 100

GFSNGP_prec_cloud_057.txt.gz
Cloud_Cover
79 73 85 80 95 89 100 100 100 99 5 100 5 5 5 5 5 5 5 5 3 0 0 0 27 47 31 14 5 88 97 88 98 73 40 86 100 90 59 93 76 100 100 100
100 89 41 92 100 98 58 99 100 100 88 10 5 5 3 5 5 5 5 5 5 5 4 0 0 0 2 86 58 23 72 99 95 100 100 96 88 100 100 100 100 100 100 100
100 77 86 100 98 98 95 100 82 93 94 5 4 1 7 94 86 72 98 67 5 5 18 34 95 82 19 5 5 5 7 85 100 100 100 100 100 100 100 100 100 100 100 100
33 5 43 95 20 9 50 12 5 51 80 62 75 17 100 100 98 53 21 8 41 51 83 100 99 100 100 96 85 81 100 92 100 100 100 100 100 100 100 100 100 100 100 100
87 20 71 100 61 54 50 20 15 47 87 54 94 100 100 100 93 98 100 93 91 90 84 100 100 100 100 100 100 95 100 100 100 100 100 100 100 100 100 100 100 100 100 100
100 100 99 5 10 45 14 7 98 19 5 5 7 79 6 5 12 86 60 94 92 100 100 100 100 100 98 100 100 100 100 100 100 100 100 100 100 100 100 100 100 100 100 100
77 86 22 5 10 5 4 23 5 5 5 6 6 11 62 5 10 5 11 54 8 63 100 100 100 100 100 100 100 100 100 100 100 100 100 100 100 100 100 100 100 100 100 100
53 76 67 32 42 95 49 37 98 100 100 100 86 60 100 75 100 87 88 70 35 82 82 97 99 100 100 100 100 100 100 100 100 100 100 100 100 100 100 100 100 100 100 100
5 5 27 26 7 5 78 87 100 100 100 100 100 100 87 100 100 100 94 64 46 54 84 100 100 100 100 100 100 100 100 100 100 100 100 100 100 100 100 100 100 100 100 100
100 20 51 12 25 44 76 94 93 98 83 100 100 100 100 97 100 100 100 100 100 100 100 100 100 100 100 100 100 100 100 100 100 100 100 100 100 100 100 100 100 100 100 100
100 96 24 67 17 59 78 51 82 87 78 63 73 100 100 99 100 98 91 93 98 100 100 100 100 100 100 100 100 100 100 100 100 100 100 100 100 100 100 100 100 100 100 100
100 100 100 100 62 68 95 92 89 60 21 91 100 93 100 100 100 99 100 99 99 99 100 100 100 100 100 100 100 100 100 100 100 100 100 100 100 100 100 100 100 100 100 100
100 100 100 100 100 61 90 46 62 92 75 84 58 93 100 96 100 100 98 99 100 100 100 100 100 100 100 100 100 100 100 100 100 100 100 100 100 100 100 100 100 100 100 100
100 100 100 100 100 99 100 100 95 100 56 60 47 69 80 100 100 96 98 55 65 99 100 100 100 100 100 100 100 100 100 100 100 100 100 100 100 100 100 100 100 100 100 100
100 100 100 100 100 100 100 100 100 100 79 98 100 78 87 89 96 100 98 100 54 39 80 100 100 100 100 100 100 100 100 100 100 100 100 100 100 100 100 100 100 100 100 100
100 100 100 100 100 100 100 100 100 100 100 100 100 100 100 100 80 98 100 100 72 84 93 79 60 100 100 100 100 100 100 100 100 100 100 100 100 100 100 100 100 100 100 100
100 100 100 100 100 100 100 100 100 100 99 100 100 100 100 100 95 100 100 100 86 99 100 100 91 90 100 100 100 100 100 100 100 100 100 100 100 100 100 100 100 100 100 100
100 100 100 100 100 100 100 100 100 100 100 100 100 100 100 100 100 100 100 100 100 55 98 100 100 100 100 100 100 100 100 97 96 94 100 100 100 100 100 100 100 100 100 100
100 100 100 100 100 100 97 100 100 100 100 100 100 100 100 100 100 100 100 100 100 100 100 100 100 100 100 100 100 85 100 100 100 100 100 100 100 100 100 100 100 100 100 100
15 68 100 100 100 57 59 93 99 100 100 100 100 100 100 100 100 100 100 100 100 100 100 100 100 99 100 100 100 100 100 100 100 100 100 100 100 100 100 100 100 100 100 99
5 13 51 100 100 100 100 100 96 100 100 100 100 100 100 100 100 100 100 100 100 100 100 100 100 100 100 93 98 100 100 100 100 73 68 98 100 100 99 100 100 100 100 100
5 10 55 100 100 100 100 100 100 97 100 100 100 100 100 100 100 100 100 100 100 100 100 100 100 100 100 38 54 86 100 100 100 100 100 87 100 96 93 94 100 100 100 100
6 24 98 100 100 100 100 100 96 100 100 100 100 100 100 100 100 100 100 100 100 100 100 100 100 100 100 100 73 45 30 65 100 100 97 100 94 82 98 98 97 100 100 100
7 42 100 100 100 100 100 100 100 99 100 100 100 100 100 100 100 100 100 100 100 100 100 100 100 100 100 100 100 100 82 67 79 100 100 94 84 98 72 71 80 100 100 100
5 10 33 94 100 100 100 100 100 100 100 100 100 100 100 100 100 100 100 100 100 100 100 100 100 100 100 100 100 100 100 100 100 97 60 65 79 89 76 70 87 100 100 100
98 99 28 60 99 100 100 100 100 100 100 100 100 100 100 100 100 100 100 100 100 100 100 100 100 100 100 100 100 100 100 100 100 100 72 78 70 73 78 99 95 100 100 100
39 5 32 100 100 100 100 100 100 100 100 100 100 100 100 100 100 100 100 100 100 100 100 100 100 100 100 100 100 100 97 95 73 78 71 28 59 67 76 100 100 100 100 100

GFSNGP_prec_cloud_060.txt.gz
Cloud_Cover
57 95 100 100 100 100 48 100 98 100 58 80 14 5 1 1 0 4 0 0 0 0 0 0 0 0 0 32 9 28 82 76 100 100 100 100 96 87 77 100 71 93 100 100
100 100 100 100 97 100 100 94 93 61 32 32 3 0 0 0 0 5 0 5 0 0 0 0 0 0 4 0 0 0 5 87 37 34 97 100 100 100 100 100 100 100 100 100
94 89 99 56 100 92 100 87 18 31 100 88 58 5 3 5 3 1 96 4 5 1 1 0 5 36 1 2 3 23 1 1 29 83 92 100 100 100 100 100 100 100 100 100
36 17 54 100 45 5 5 5 5 80 100 100 42 6 41 5 3 10 4 3 5 5 5 5 5 52 44 50 90 100 86 72 71 88 88 100 100 100 100 100 100 100 100 100
64 83 83 73 8 5 5 39 5 5 20 8 10 87 48 21 68 56 35 11 23 100 100 100 65 88 58 61 88 93 100 100 99 100 98 100 100 100 100 100 100 100 100 100
100 84 39 23 20 9 49 58 98 97 81 26 33 71 5 28 47 14 5 58 7 51 83 5 66 61 74 96 100 92 100 100 100 99 100 100 100 100 100 100 100 100 100 100
92 98 37 27 62 70 46 71 52 10 9 5 5 57 12 10 16 16 10 7 3 5 13 83 100 68 61 82 88 98 98 96 100 100 100 100 100 100 100 100 100 100 100 100
85 93 46 76 85 79 100 100 62 45 63 38 5 36 56 23 56 9 5 5 5 5 57 93 92 67 73 90 100 99 100 100 100 100 100 100 100 100 100 100 100 100 100 100
54 94 17 66 6 26 5 7 47 85 7 87 74 88 30 11 7 26 5 31 100 92 77 81 44 87 100 100 100 100 100 100 100 100 100 100 100 100 100 100 100 100 100 100
72 5 5 5 5 5 22 100 86 98 100 6 99 42 88 92 98 87 100 92 96 100 58 72 25 95 100 100 100 95 100 100 100 100 100 100 100 100 100 100 100 100 100 100
89 8 10 28 5 17 41 12 5 22 93 100 99 100 100 100 100 98 100 100 78 100 100 100 100 100 100 100 100 100 100 100 100 100 100 100 100 100 100 100 100 100 100 100
100 100 100 79 6 5 43 6 30 100 95 89 79 61 61 100 100 100 100 100 100 100 100 100 100 100 100 100 100 100 100 100 100 100 100 100 100 100 100 100 100 100 100 100
100 100 100 100 100 98 67 99 100 100 100 99 29 100 32 42 87 100 100 100 100 100 100 100 100 100 100 100 100 100 100 100 100 100 100 100 100 100 100 100 100 100 100 100
100 100 100 100 100 100 100 100 100 100 100 100 100 84 100 64 23 64 92 100 100 100 100 100 100 100 100 100 100 100 100 100 100 100 98 100 100 100 100 100 100 100 100 100
100 100 100 100 100 100 100 100 100 100 100 100 98 76 100 100 58 60 89 100 100 100 100 100 100 100 100 100 100 100 100 100 100 100 100 100 98 100 100 100 100 100 100 100
100 100 100 100 100 100 100 100 100 100 100 100 100 95 82 100 100 100 100 89 64 100 100 100 100 100 100 100 100 100 100 100 100 100 100 100 100 100 100 100 100 100 100 100
99 100 100 100 100 100 100 100 100 100 100 100 100 100 100 100 100 100 100 59 98 84 100 100 100 100 100 100 100 100 100 100 100 100 100 100 100 100 100 100 100 100 100 100
5 40 100 100 100 100 100 99 99 100 100 100 100 100 100 100 100 100 100 100 97 100 100 100 100 100 100 100 100 100 100 100 100 100 100 100 100 100 100 100 100 100 100 100
5 5 10 100 100 100 100 100 97 90 83 90 92 100 100 100 100 100 100 100 100 100 100 100 99 81 94 100 100 100 100 100 100 100 100 100 100 100 100 100 100 100 100 100
1 4 5 41 59 92 100 94 100 100 100 60 66 96 100 100 100 100 100 100 100 100 100 100 100 100 100 100 100 100 100 100 100 100 100 100 100 100 100 100 100 100 100 96
6 5 5 23 49 90 74 71 100 100 100 86 86 87 98 100 100 100 100 100 100 100 100 100 100 100 100 100 100 100 100 100 100 100 100 100 100 100 100 99 98 100 99 90
79 5 6 38 100 100 82 91 98 100 100 100 100 100 100 100 100 99 100 100 100 100 100 100 100 100 100 100 100 100 100 57 70 100 100 100 100 100 100 97 98 100 99 98
5 5 5 46 74 100 94 78 91 100 100 100 100 100 100 100 100 100 100 100 100 100 100 100 100 100 100 100 100 99 97 63 70 53 60 78 91 100 100 100 100 100 100 100
5 5 5 5 68 99 98 82 68 100 100 100 100 100 100 100 100 100 100 100 100 100 100 100 100 100 100 100 100 100 100 100 85 88 81 100 100 100 100 100 100 100 100 100
10 33 47 100 100 100 100 97 89 100 100 100 100 100 100 100 100 100 100 100 100 100 100 100 100 100 100 100 100 100 100 100 100 100 100 93 97 100 100 100 100 100 100 96
43 100 100 100 89 100 100 100 100 100 100 100 100 100 100 100 100 100 100 100 100 100 100 100 100 100 100 100 100 100 100 100 100 100 100 98 96 86 85 89 88 82 98 97
98 88 100 100 100 100 100 100 100 100 100 100 100 100 100 100 100 100 100 100 100 100 100 100 100 100 100 100 100 100 100 100 100 100 99 90 78 84 73 82 69 77 67 73

GFSNGP_prec_cloud_063.txt.gz
Cloud_Cover
14 5 26 77 64 86 100 96 90 100 78 7 61 80 14 5 5 4 0 0 0 0 0 0 0 0 0 0 0 0 3 51 39 100 100 100 100 100 100 98 100 100 98 97
100 99 86 24 46 90 95 94 99 100 86 100 74 90 6 4 3 4 0 0 0 0 0 0 0 0 0 0 0 0 0 0 31 5 100 100 100 100 100 100 100 100 100 100
92 100 100 100 100 100 95 100 99 100 100 82 79 10 5 5 5 3 0 0 0 3 4 1 1 0 0 0 0 0 0 0 0 1 18 100 100 80 100 100 100 100 100 100
100 100 100 100 100 100 100 100 86 88 17 76 73 17 5 18 5 2 4 0 0 3 4 24 5 5 5 5 0 0 2 0 4 18 85 100 94 76 98 100 100 100 100 100
65 80 39 41 17 31 25 67 60 30 37 63 59 100 75 100 74 22 5 5 0 2 4 25 89 53 61 37 5 8 5 5 16 44 96 100 94 95 100 100 100 100 100 100
55 26 16 92 16 5 5 72 27 48 94 100 91 100 65 5 5 20 63 87 13 22 66 5 52 86 7 17 88 66 65 56 58 56 100 85 100 100 100 100 100 100 100 100
98 100 93 39 19 74 5 30 87 25 22 96 76 56 94 5 5 37 43 32 6 5 5 5 5 5 28 68 81 86 62 70 69 100 100 100 100 100 100 100 100 100 100 100
100 100 89 100 100 96 74 78 84 41 5 5 5 5 5 5 5 5 5 10 40 62 39 5 14 47 100 95 100 79 100 93 99 100 100 100 100 100 100 100 100 100 100 100
65 85 6 7 12 22 19 59 66 45 39 13 5 5 5 5 5 5 5 5 5 28 7 68 48 76 98 77 99 94 77 100 100 100 100 100 100 100 100 100 100 100 100 100
100 96 34 10 5 37 7 7 5 28 16 5 11 50 5 5 5 5 22 6 5 6 32 84 100 100 26 50 67 23 41 100 100 98 100 100 100 100 100 100 100 100 100 100
100 100 100 64 43 56 50 63 58 49 65 66 52 98 9 46 27 47 39 8 68 72 58 24 100 100 100 84 88 99 100 100 100 100 100 100 100 100 100 100 100 100 100 100
100 100 100 100 96 84 82 77 66 99 100 100 100 97 56 77 26 52 49 64 71 82 100 99 100 100 100 100 100 100 100 100 100 100 100 100 100 100 100 100 97 100 100 100
100 100 100 100 100 100 100 100 100 100 100 100 100 100 100 37 23 53 85 70 23 75 100 100 92 100 100 98 100 100 100 100 100 100 100 100 100 100 100 100 100 100 100 100
13 39 74 98 100 100 100 100 100 99 100 100 100 100 100 100 95 63 67 56 49 50 72 100 78 98 100 100 100 100 100 100 100 100 100 100 100 100 100 100 100 100 100 100
5 50 93 99 100 100 100 100 100 100 100 100 100 100 100 100 100 99 82 63 80 100 100 100 88 56 100 100 100 100 100 100 100 100 100 100 100 100 100 94 99 100 100 100
0 2 4 9 20 82 100 100 100 100 100 100 100 100 100 100 100 93 99 100 100 100 100 96 46 8 92 100 100 100 99 100 100 100 100 100 100 100 100 100 100 100 100 100
5 5 5 5 5 6 100 100 100 100 100 100 100 100 100 100 100 100 100 100 100 100 100 100 82 45 54 86 100 100 100 100 100 100 100 100 100 100 100 100 100 100 100 100
0 4 5 5 5 5 62 100 100 100 89 19 100 100 100 100 100 100 100 100 100 100 100 100 94 97 100 99 79 100 100 100 100 100 100 100 100 100 100 100 100 100 100 100
47 56 44 67 58 8 79 100 100 100 16 5 15 46 89 100 100 100 100 100 100 100 100 100 100 100 100 100 100 100 100 100 100 100 100 100 100 100 100 100 100 100 100 100
100 100 100 100 100 34 74 100 100 100 69 18 7 27 100 100 100 100 100 100 100 100 100 100 100 100 100 100 100 100 100 100 100 100 100 100 100 100 100 100 100 100 100 98
59 99 100 90 66 21 37 31 100 100 88 14 67 56 97 100 100 96 100 100 100 100 100 100 100 100 100 100 100 100 100 100 100 100 100 100 100 100 100 100 100 100 100 100
27 98 69 58 10 5 7 42 100 100 100 97 60 60 100 100 100 98 100 100 100 100 100 100 100 100 100 100 100 100 100 100 100 100 100 100 100 100 100 100 100 100 100 96
12 7 9 5 5 5 5 22 100 100 100 100 81 67 100 100 100 100 100 100 100 100 100 100 100 100 100 100 100 100 100 100 100 100 100 100 100 100 92 72 87 100 100 100
0 0 2 3 5 15 42 99 100 100 100 100 100 94 100 100 100 100 100 100 100 100 100 100 100 100 100 100 100 100 100 100 100 100 100 100 94 84 100 100 100 100 100 100
5 5 5 5 30 100 100 76 100 100 100 100 100 100 100 100 100 100 100 100 100 100 100 100 100 100 100 100 100 100 100 100 100 100 100 100 100 100 100 100 100 100 100 100
1 5 0 24 84 100 100 100 100 100 100 100 100 100 100 100 100 100 100 100 100 100 100 100 100 100 100 100 100 100 100 100 100 100 100 100 100 100 100 100 100 100 100 100
5 5 5 23 98 100 100 100 100 100 100 100 100 100 100 100 100 100 100 100 100 100 100 100 100 100 100 100 100 100 100 100 100 100 100 100 100 100 100 100 100 100 100 100

GFSNGP_prec_cloud_066.txt.gz
Cloud_Cover
65 100 54 100 67 100 69 100 100 100 100 100 97 80 33 9 5 5 5 0 0 0 0 0 0 0 0 0 0 0 0 41 100 70 37 25 10 100 100 100 100 100 100 100
5 7 5 6 5 5 21 97 100 100 100 56 47 98 100 32 5 5 5 5 4 4 0 0 0 0 0 0 0 0 0 0 0 0 0 0 0 2 40 100 100 59 100 100
18 30 13 11 31 77 64 69 57 84 70 91 54 86 100 100 59 12 5 5 0 0 0 0 0 0 0 0 0 0 0 0 0 0 0 0 0 90 44 2 56 100 100 100
88 8 35 40 3 5 7 8 61 94 95 100 55 35 44 14 17 11 6 0 2 0 0 0 0 4 5 77 23 1 0 0 0 0 0 0 55 100 94 19 88 100 100 100
100 100 100 86 98 100 100 100 100 100 100 100 100 100 93 65 94 2 0 2 4 2 0 0 2 0 33 100 7 5 5 5 5 5 5 5 99 99 42 72 100 100 100 100
14 96 99 100 100 93 32 58 96 94 100 100 68 55 12 5 7 3 5 21 5 0 0 4 0 5 5 5 17 100 93 37 5 5 5 25 100 88 51 95 100 100 100 100
7 31 13 49 100 100 94 57 100 100 81 14 7 5 7 5 5 4 2 4 5 2 2 2 3 5 6 5 5 36 25 63 68 38 15 100 90 87 82 100 100 100 100 100
38 88 44 34 53 74 44 85 86 92 97 55 34 32 26 72 8 5 18 29 5 8 5 5 5 5 5 5 5 76 70 98 83 83 94 100 97 100 100 100 100 100 100 100
56 20 5 5 5 5 6 12 21 18 8 61 85 45 57 49 37 26 5 5 5 5 5 5 5 5 5 5 40 92 88 58 38 73 100 100 100 100 100 100 100 100 100 100
3 5 5 10 14 6 35 5 5 5 10 37 31 28 14 11 35 17 5 5 5 5 5 10 9 5 5 38 35 60 92 100 27 100 100 100 100 100 100 100 100 100 100 100
4 5 16 100 100 100 100 100 33 76 91 100 100 100 100 100 94 34 72 54 36 46 35 94 67 47 5 37 83 98 100 100 100 100 100 99 100 100 100 100 100 100 100 100
1 7 91 100 100 100 100 100 100 100 100 100 100 100 100 100 100 88 55 63 64 90 99 89 98 100 72 65 100 100 100 100 100 100 100 100 100 100 100 100 100 100 100 100
5 5 84 100 100 100 100 100 100 100 100 100 100 100 100 100 100 100 100 100 100 100 100 100 100 100 100 100 100 100 100 100 100 100 100 100 100 100 100 100 100 100 100 100
3 4 5 34 56 5 10 82 99 100 100 99 100 100 100 100 100 100 100 95 100 100 100 99 100 100 100 100 98 100 100 100 100 100 100 100 100 100 100 100 100 100 100 100
2 17 5 3 3 2 4 5 55 100 100 100 95 100 100 100 100 100 100 100 99 100 100 100 100 100 100 100 100 100 100 100 100 100 100 100 100 100 100 100 100 100 100 99
5 29 38 1 0 5 5 53 5 55 100 100 100 100 99 100 100 100 100 100 100 100 100 100 100 100 100 100 100 100 100 100 100 100 100 100 100 100 100 100 100 100 100 100
5 21 4 5 9 27 5 5 48 82 98 100 100 50 36 100 100 100 100 94 99 100 100 100 100 100 100 100 100 100 100 100 100 100 100 100 100 100 100 100 100 100 100 100
23 4 39 70 86 90 71 100 26 10 100 100 100 28 85 75 98 100 100 100 100 100 100 100 100 100 100 100 100 87 100 100 100 100 100 100 100 100 100 100 100 100 100 100
29 5 23 84 49 79 100 100 100 100 100 100 100 88 54 28 8 53 72 99 100 100 100 100 100 100 100 100 100 100 100 100 100 100 100 100 100 100 100 100 100 100 100 100
1 2 3 5 5 5 27 87 100 100 100 100 100 91 98 96 93 61 48 38 77 100 100 100 100 100 100 100 100 100 100 100 100 100 100 100 100 100 100 100 100 100 100 100
5 5 5 5 5 5 5 5 5 22 62 90 88 90 100 87 100 96 95 86 98 100 100 100 100 100 100 100 100 100 100 100 100 100 100 100 100 100 100 100 100 100 100 100
5 5 5 5 5 5 5 5 5 5 5 100 100 98 99 99 100 100 100 86 100 100 100 99 100 100 100 100 100 100 100 100 100 100 100 100 100 100 100 100 100 100 100 100
2 5 5 5 5 5 5 5 10 43 59 82 100 100 100 100 100 100 99 100 100 100 100 100 100 100 100 100 100 100 100 100 100 100 100 100 100 100 100 100 100 100 97 83
2 4 5 5 5 5 5 41 100 90 93 100 100 100 100 100 100 100 100 100 100 100 100 100 100 100 100 100 100 100 100 100 100 100 100 100 100 100 100 100 100 100 100 100
5 5 5 5 5 5 5 45 99 100 100 100 100 100 100 100 100 100 100 100 100 100 100 100 100 100 100 100 100 100 100 100 100 100 100 100 100 100 100 100 100 100 100 100
5 5 5 2 5 7 9 76 99 100 100 100 100 100 100 100 100 100 100 100 100 100 100 100 100 100 100 100 100 100 100 100 100 100 100 100 100 100 100 100 100 100 100 100
5 5 5 5 5 39 68 63 55 97 100 100 100 100 100 100 100 100 100 100 100 100 100 100 100 100 100 100 100 100 100 100 100 100 100 100 100 100 100 100 100 100 100 100

GFSNGP_prec_cloud_069.txt.gz
Cloud_Cover
76 8 5 24 88 5 59 91 15 100 87 62 5 8 99 100 100 96 100 100 100 84 5 4 0 0 0 0 0 0 0 0 0 0 19 16 1 24 1 5 8 36 100 100
5 60 55 6 94 100 100 28 100 100 100 97 100 99 100 100 100 100 100 100 100 100 7 5 0 0 0 0 0 0 0 0 0 0 0 0 0 0 0 0 0 28 100 100
7 7 5 6 7 100 52 55 100 100 100 100 100 100 100 100 100 100 100 100 72 5 5 1 5 0 0 0 0 0 0 0 0 0 0 0 0 0 0 0 0 0 1 84
5 89 28 5 4 5 5 24 43 89 100 100 100 89 88 100 84 100 86 73 7 2 0 0 1 0 0 0 0 0 0 1 5 3 1 0 0 0 4 7 0 0 26 99
5 9 37 27 5 5 20 59 28 5 89 100 100 96 50 24 40 54 5 5 5 5 6 5 0 0 0 0 0 0 5 5 5 5 5 6 5 16 99 62 45 45 96 100
5 61 6 12 57 99 100 100 75 44 58 83 48 65 62 98 100 48 15 31 5 4 1 0 2 3 65 0 4 5 0 5 5 5 62 100 64 13 100 65 83 96 100 100
24 6 6 29 19 5 35 57 78 100 85 78 86 89 100 98 20 25 100 15 5 5 5 4 3 0 2 4 2 4 5 5 5 68 69 93 74 99 100 98 98 100 100 100
24 94 77 55 41 10 5 77 100 100 96 96 100 93 25 44 51 58 34 5 5 5 5 5 5 5 5 5 5 5 5 5 11 74 84 89 85 100 100 100 100 100 100 100
5 5 5 5 5 9 56 72 82 100 100 100 100 100 100 100 99 86 8 5 14 71 77 59 84 82 74 57 44 26 5 40 87 82 100 98 100 100 100 100 100 100 100 100
51 48 32 5 5 5 6 99 100 100 100 63 99 100 100 100 100 100 100 57 12 5 8 17 30 22 6 5 7 23 6 15 80 90 90 100 100 100 100 100 100 100 100 100
5 5 5 4 3 3 5 15 100 100 100 100 100 100 100 100 100 94 100 100 82 100 83 77 79 73 77 46 55 98 100 23 25 68 72 100 100 100 100 100 100 100 100 100
1 0 0 5 5 5 5 18 28 92 100 100 100 100 100 100 100 100 61 100 100 100 100 100 100 100 100 100 100 100 100 100 100 100 100 100 100 100 100 100 100 100 100 100
0 0 0 2 5 5 5 5 5 17 89 100 100 100 100 100 100 100 100 99 100 100 100 100 100 100 100 100 100 100 100 100 100 100 100 100 100 100 100 100 100 100 100 100
0 0 3 5 5 5 5 1 2 5 5 16 98 100 100 100 100 100 100 100 100 100 100 100 100 100 100 100 100 100 100 100 100 100 100 100 100 100 100 100 100 100 100 100
1 4 3 2 5 2 1 0 5 5 41 21 5 82 100 100 100 100 100 100 100 100 100 100 100 100 100 100 100 100 100 100 100 100 100 100 100 100 100 100 100 100 100 100
0 0 0 4 5 5 5 5 5 5 12 100 100 100 100 100 100 100 100 100 100 100 100 100 98 100 97 100 100 100 100 100 100 100 100 100 100 100 100 100 100 100 100 100
0 4 0 3 5 5 5 5 5 5 5 46 96 100 100 100 100 99 64 94 100 100 100 100 100 100 88 100 100 100 100 100 100 100 100 100 100 100 100 100 100 100 100 100
0 0 0 0 5 5 4 0 3 5 5 5 5 81 100 100 100 100 89 79 99 100 100 100 100 100 100 100 100 100 100 100 100 100 100 100 100 100 100 100 100 100 100 100
0 0 0 0 2 5 5 5 5 5 5 5 22 24 15 93 96 97 70 45 36 29 51 100 100 100 100 100 100 100 100 100 100 100 100 100 100 100 100 100 100 100 100 100
5 0 0 5 5 5 5 5 5 5 5 5 29 100 100 100 96 100 96 74 92 54 98 100 90 100 100 100 100 100 100 100 100 100 100 100 100 100 100 100 100 100 100 100
5 5 5 5 5 5 5 5 5 5 5 5 13 6 79 92 92 100 91 84 100 94 82 34 66 99 84 100 100 100 99 100 100 100 100 100 100 100 100 100 100 100 100 100
5 5 5 5 5 5 1 5 5 5 5 5 5 39 100 85 80 100 100 100 98 100 96 71 75 91 100 100 100 100 100 100 100 100 100 100 100 100 100 100 100 100 100 100
5 5 5 5 5 5 5 5 5 5 5 5 6 67 100 100 100 100 100 100 100 100 97 93 95 89 100 100 100 100 100 100 100 100 100 100 100 100 100 100 100 100 100 100
5 5 5 5 5 5 5 1 5 5 38 92 98 99 100 100 100 100 100 100 100 100 100 100 100 100 100 100 100 100 100 100 100 100 100 100 100 100 100 100 100 100 100 100
5 5 5 5 5 5 5 5 5 5 8 34 91 100 100 100 100 100 100 100 95 100 100 100 100 100 100 100 100 100 100 100 100 100 100 100 100 100 100 100 100 100 100 100
5 5 5 5 5 5 5 5 5 63 6 5 86 74 100 100 100 100 100 100 100 100 100 100 100 100 100 100 100 100 100 100 100 100 100 100 100 100 100 100 100 100 100 100
5 3 5 5 2 5 5 5 5 5 8 70 25 26 66 100 100 100 100 100 100 100 100 100 100 100 100 100 100 100 100 100 100 100 100 100 100 100 100 100 100 100 100 100

GFSNGP_prec_cloud_072.txt.gz
Cloud_Cover
11 36 16 5 5 10 71 84 92 100 100 100 97 63 48 22 73 100 100 100 66 5 9 86 100 100 100 93 5 5 0 0 0 0 0 0 0 0 0 3 2 4 93 70
5 5 5 5 5 48 88 5 5 10 98 65 32 77 99 100 100 86 55 38 59 100 100 81 40 23 5 5 5 5 0 0 0 0 0 0 0 0 0 0 0 0 0 0
5 5 5 5 23 2 22 99 95 41 64 7 23 74 67 91 100 100 100 80 92 100 100 99 85 81 5 5 1 0 0 0 0 0 0 0 0 0 0 0 0 0 0 0
5 5 5 1 1 22 20 28 46 6 38 29 14 46 46 62 82 100 100 100 100 100 100 100 100 100 79 5 4 0 0 0 0 0 0 0 0 0 0 0 0 0 0 0
45 5 5 5 0 0 4 7 29 5 63 78 67 100 100 100 100 100 100 100 97 70 53 53 58 34 10 5 0 0 4 5 4 0 0 0 0 0 0 4 11 3 4 11
16 47 5 0 0 0 0 3 4 15 70 100 100 98 29 64 92 100 100 98 36 41 44 64 37 5 5 5 0 5 0 1 1 0 0 5 5 6 5 38 85 81 100 91
8 5 2 0 0 1 3 0 1 5 5 5 94 100 100 100 100 30 33 59 79 99 16 5 5 5 5 5 4 3 2 2 22 8 5 5 18 39 60 90 100 100 100 100
76 97 46 0 4 5 4 5 2 5 5 53 86 100 100 100 75 71 88 70 61 42 5 5 56 28 21 23 5 5 4 5 6 5 5 22 88 88 64 100 100 100 100 100
4 4 0 0 3 5 5 5 5 5 5 9 91 100 100 100 100 100 89 43 30 99 100 84 10 9 5 5 5 5 5 5 8 5 6 79 84 83 95 100 100 100 100 100
5 5 5 5 5 5 5 5 5 5 5 5 5 33 100 100 100 100 100 100 98 68 98 93 24 60 54 5 14 46 52 25 9 60 99 91 98 98 100 100 100 100 100 100
5 5 5 5 5 5 5 5 5 5 5 5 5 6 81 100 100 100 100 100 100 100 100 98 25 59 100 89 83 77 70 68 56 52 100 82 88 100 100 100 98 99 100 100
5 5 5 2 5 5 1 4 5 5 9 5 5 86 100 91 99 100 100 100 100 100 100 100 76 55 100 100 100 100 100 100 100 100 100 100 100 100 100 100 100 100 100 100
4 0 0 1 5 5 0 5 5 5 5 5 5 5 80 100 100 100 100 100 100 100 100 100 100 100 100 100 100 100 100 100 100 100 100 100 100 100 100 100 100 100 100 100
5 2 3 3 4 5 5 5 5 4 5 5 5 7 91 100 100 100 100 47 100 100 100 100 100 100 100 100 100 100 100 100 100 100 100 100 100 100 100 100 100 100 100 100
5 5 5 5 4 2 1 5 5 5 5 5 5 5 82 64 100 100 100 100 100 74 100 100 100 100 100 100 100 100 100 100 100 100 100 100 100 100 100 100 100 100 100 100
5 5 5 0 0 1 3 5 5 5 5 5 5 5 6 45 88 100 100 100 100 91 76 100 100 100 100 100 100 100 100 100 100 100 100 100 100 100 100 100 100 100 100 100
5 4 2 5 2 5 4 5 5 5 5 5 5 5 5 6 33 6 22 100 100 100 100 98 100 100 100 100 100 100 100 100 100 100 100 100 100 100 100 100 100 100 100 100
4 5 0 1 5 5 5 5 5 5 5 5 5 5 15 13 35 46 73 82 100 100 100 100 86 100 100 100 100 100 100 100 100 100 100 100 100 100 100 100 100 100 100 100
4 1 1 0 5 5 5 5 5 5 5 5 5 5 12 14 5 5 75 92 80 80 100 100 100 100 100 100 100 100 100 100 100 100 100 100 100 100 100 100 100 100 100 100
1 0 0 4 5 5 5 5 5 5 5 5 5 5 18 5 9 85 70 90 39 76 64 100 100 100 96 60 89 100 100 100 100 100 100 100 100 100 100 100 100 100 100 100
5 5 5 5 5 2 5 5 5 5 1 5 5 5 5 6 98 100 100 98 100 62 59 81 100 100 100 100 99 100 100 100 100 100 100 100 100 100 100 100 100 100 100 100
5 5 5 5 5 5 4 5 5 5 5 5 5 5 14 5 100 100 100 100 93 100 100 99 100 100 100 100 100 80 74 100 100 100 100 100 100 100 100 100 100 100 100 100
5 5 5 5 5 5 5 5 5 5 5 6 26 5 5 7 100 100 99 100 100 100 100 98 100 100 100 100 97 83 83 100 100 100 100 100 100 100 100 100 100 99 100 100
2 4 5 5 5 5 8 1 5 5 5 29 82 90 45 30 99 100 100 100 100 100 100 100 100 100 100 99 95 93 100 100 100 100 100 100 100 100 100 100 100 100 100 100
5 5 5 5 5 5 5 5 5 5 5 7 24 47 92 81 62 100 100 100 100 100 100 100 100 100 100 100 100 100 100 100 100 100 100 100 100 100 100 100 100 100 100 100
3 0 4 5 5 5 5 5 5 5 5 5 5 5 75 30 59 100 100 100 100 100 100 100 100 100 100 100 100 100 100 100 100 100 100 100 100 100 100 100 100 100 100 100
5 3 5 5 5 5 5 26 89 25 5 65 84 5 6 5 28 100 100 100 100 100 100 100 100 100 100 100 100 100 100 100 100 100 100 100 100 100 100 100 100 100 100 100

GFSNGP_prec_cloud_075.txt.gz
Cloud_Cover
5 5 0 0 1 1 5 15 10 19 12 77 100 100 19 8 45 100 100 100 34 2 0 0 0 0 3 2 4 4 5 12 5 5 2 0 0 0 0 0 0 0 0 0
5 5 5 5 0 0 0 0 5 5 5 5 5 5 91 98 68 96 27 70 22 6 72 50 39 5 5 32 6 44 73 10 59 72 5 3 0 0 0 0 0 3 0 0
5 5 5 5 0 1 4 0 3 5 1 5 5 5 5 27 48 75 99 100 97 96 100 100 100 100 100 100 100 99 100 100 100 27 35 5 4 0 0 0 0 0 0 0
5 4 4 0 0 0 1 3 4 0 4 5 5 5 5 5 19 79 100 100 100 100 100 100 100 100 100 59 24 95 100 100 97 13 5 4 0 0 0 0 0 0 0 0
5 5 0 0 0 0 0 1 5 5 5 5 5 5 9 25 13 49 39 97 100 99 100 100 100 100 100 100 97 94 100 100 100 12 5 0 0 0 0 0 2 0 0 0
5 10 5 0 0 0 0 2 0 4 5 5 5 5 5 5 45 99 100 100 100 100 100 100 100 100 100 100 100 100 100 100 100 51 5 5 1 2 0 0 65 38 100 99
89 14 2 0 0 3 4 1 0 0 5 5 5 5 5 15 69 68 67 83 100 100 100 100 100 100 100 100 100 100 70 13 5 5 5 0 0 11 5 6 58 95 100 100
82 81 45 0 2 4 0 0 4 4 5 5 5 5 5 5 5 6 54 87 100 100 100 100 80 100 100 98 49 33 33 42 5 5 2 7 27 100 21 63 95 100 100 100
5 5 5 5 0 2 3 2 3 0 1 5 5 5 5 5 5 52 66 27 81 100 100 99 96 96 100 100 39 27 10 5 5 5 5 39 72 88 79 62 99 100 100 100
5 5 7 5 4 5 5 5 5 5 5 5 5 5 5 5 5 5 34 93 100 100 100 100 100 100 100 100 100 98 57 100 47 5 33 23 21 62 100 100 100 100 100 100
7 27 27 16 11 5 5 5 4 5 5 5 5 5 5 5 14 23 100 11 84 100 100 100 100 100 100 100 100 100 100 89 29 8 22 50 62 78 69 95 100 100 100 98
96 99 44 65 21 18 5 5 5 5 5 5 5 5 5 5 5 5 62 100 71 29 53 100 100 100 100 100 100 100 100 100 100 100 100 100 100 100 100 100 97 100 100 99
100 85 88 96 94 64 5 5 3 5 5 5 5 5 5 5 5 5 12 80 100 100 96 42 94 100 100 100 100 100 100 100 100 100 100 100 100 100 100 100 100 100 100 100
100 62 84 99 92 18 5 5 5 5 5 5 5 5 5 5 5 5 30 37 88 100 100 100 88 83 100 100 100 100 100 100 100 100 100 100 100 100 100 100 100 100 100 100
72 22 60 74 68 6 5 4 5 5 5 5 5 5 5 5 5 5 5 5 57 100 100 100 100 100 42 99 100 100 100 100 100 100 100 100 100 100 100 100 100 100 100 100
97 37 19 55 6 5 5 4 3 5 5 5 5 18 28 24 18 6 5 5 45 88 100 100 100 100 100 23 100 100 100 100 100 100 100 100 100 100 100 100 100 100 100 100
89 45 10 19 5 5 5 4 5 5 5 5 5 5 5 5 18 20 5 5 8 40 80 70 17 100 100 100 100 100 100 100 100 100 100 100 100 100 100 100 100 100 100 100
50 23 5 6 5 7 5 5 5 5 5 5 5 5 5 5 5 5 5 5 36 100 100 7 5 5 93 100 100 100 100 100 100 100 100 100 100 100 100 100 100 100 100 100
5 20 5 5 5 5 5 5 5 5 5 5 5 5 5 5 5 5 5 62 100 100 100 62 30 79 85 94 100 100 100 100 100 100 100 100 100 100 100 100 100 100 100 100
5 5 5 5 1 2 5 5 5 5 5 5 5 5 5 5 5 5 6 93 100 96 63 84 90 90 100 100 100 100 100 100 100 100 100 100 100 100 100 100 100 100 100 100
5 5 5 5 4 1 5 5 5 5 5 5 5 5 5 5 5 5 6 87 97 43 100 83 98 85 93 100 100 100 100 100 100 100 100 100 100 100 100 100 100 100 100 100
5 5 5 5 5 4 3 5 5 5 5 5 5 5 12 5 5 5 5 30 74 100 100 80 100 100 100 100 100 100 100 100 100 97 100 100 100 100 100 100 100 100 100 100
5 5 5 5 5 5 5 5 5 5 5 5 5 5 82 84 5 64 57 58 100 100 100 97 100 100 100 100 98 100 100 100 100 99 78 79 89 94 100 100 100 100 100 100
2 1 5 5 5 5 5 5 5 5 5 5 5 96 98 50 39 5 5 39 75 100 100 100 100 100 100 100 92 96 100 100 100 100 100 100 98 100 80 100 100 100 100 100
5 5 5 5 5 5 5 5 5 5 5 65 100 100 100 87 99 12 8 78 94 94 100 100 100 100 100 100 100 100 100 99 100 100 100 100 100 100 85 100 100 100 100 100
5 5 5 5 5 5 8 26 44 12 62 81 100 100 100 100 25 5 8 97 100 100 100 100 88 100 100 100 100 100 100 100 100 100 100 100 100 100 100 100 100 100 100 100
5 5 30 58 10 26 34 92 100 90 89 97 96 100 100 97 21 5 9 93 100 100 100 100 100 100 100 100 100 100 100 100 99 100 100 100 100 100 100 100 100 100 100 100

GFSNGP_prec_cloud_078.txt.gz
Cloud_Cover
5 5 4 0 0 0 0 0 0 0 2 0 1 4 4 32 99 98 100 47 34 16 5 9 4 5 5 0 0 1 22 49 90 100 100 100 100 100 100 84 39 45 39 94
5 5 5 0 0 0 0 0 0 0 0 3 5 0 7 12 5 5 42 77 36 5 5 15 17 3 0 0 0 0 0 0 0 0 0 10 37 77 99 99 92 99 100 100
5 3 0 1 0 0 0 0 0 0 1 5 0 0 4 5 13 9 5 5 35 91 92 96 54 10 5 4 12 4 5 2 1 24 6 5 16 100 100 59 7 2 4 5
5 5 4 0 0 0 0 0 0 0 0 5 5 5 5 5 5 5 5 57 100 100 70 90 100 100 100 100 100 28 7 5 3 18 5 5 28 96 73 17 5 13 5 2
5 5 0 0 0 0 0 0 0 0 1 5 5 5 12 33 5 5 5 5 5 3 28 100 98 100 100 100 100 100 100 100 92 98 99 82 100 96 96 57 34 5 5 0
5 5 4 0 0 0 0 0 0 2 5 5 5 5 5 5 5 5 5 5 3 5 10 100 100 100 100 100 100 100 100 100 100 100 100 100 100 100 100 57 24 25 100 81
100 54 5 5 5 5 5 5 4 2 2 5 5 5 5 5 5 5 5 5 5 5 54 100 100 100 100 100 100 100 100 100 100 100 100 100 100 100 98 22 67 80 100 100
83 71 46 5 5 6 21 10 5 5 4 5 5 5 5 5 5 5 5 5 5 5 5 6 93 100 100 100 100 100 100 100 100 100 100 100 100 100 87 70 100 100 95 100
100 73 14 5 34 5 5 5 5 44 5 5 5 5 5 5 5 5 5 5 5 5 5 5 16 84 100 100 100 100 100 100 100 100 100 100 100 100 100 100 100 100 100 100
98 65 78 88 76 99 22 44 12 59 25 5 5 5 5 5 5 5 5 5 8 97 24 5 38 15 85 100 100 100 100 100 100 100 100 100 100 100 100 100 100 100 100 100
93 98 56 99 100 85 8 28 39 78 25 8 5 5 5 5 5 8 71 65 33 50 65 93 100 100 99 60 100 100 100 100 100 100 100 100 86 100 100 100 100 100 100 100
100 84 41 99 100 100 62 56 93 100 24 12 5 5 5 5 50 56 19 5 5 43 80 100 100 99 98 40 100 100 100 100 100 100 100 100 100 100 100 100 100 100 100 98
100 63 66 100 96 57 76 95 90 100 5 5 5 5 5 5 5 6 27 5 5 2 5 6 96 100 100 100 100 100 100 100 100 100 100 100 100 100 100 100 100 100 100 96
90 82 83 91 99 49 81 24 31 16 4 4 5 5 5 5 16 9 5 5 5 5 23 59 35 17 100 100 100 100 100 100 100 100 100 100 100 100 100 100 100 100 100 100
47 61 55 75 53 6 27 8 5 5 4 5 3 5 5 5 5 5 5 5 5 5 5 5 9 5 5 20 97 78 100 100 100 100 100 100 100 100 100 100 100 100 100 100
94 48 35 44 11 5 5 5 2 5 5 5 5 3 2 5 5 5 5 5 10 5 5 22 58 6 18 9 8 64 98 100 100 100 100 100 100 100 100 100 100 100 100 100
90 5 12 13 5 5 5 5 5 5 5 5 5 5 5 5 5 5 5 5 5 5 14 75 100 100 41 28 44 80 100 100 100 100 100 100 100 100 100 100 100 100 100 100
40 14 40 6 5 5 4 3 5 5 5 5 5 5 5 5 5 5 5 5 5 5 19 62 86 17 47 20 84 100 100 99 98 100 100 100 100 100 100 100 100 100 100 100
31 48 22 5 5 5 5 5 5 5 5 5 5 5 5 5 5 5 5 5 10 5 5 90 67 48 45 24 93 100 84 96 100 100 100 100 100 100 100 100 100 100 100 100
51 37 5 5 5 2 3 1 5 5 5 5 5 5 5 5 5 5 5 5 5 5 5 16 46 96 98 68 81 97 73 86 96 100 100 100 100 100 100 100 100 100 100 100
8 5 5 5 1 0 0 5 5 5 5 5 5 5 5 5 5 48 56 94 94 5 35 86 29 100 100 85 98 83 85 94 99 100 100 100 100 100 100 100 100 100 100 100
5 5 5 5 5 3 0 4 5 5 5 5 5 5 5 5 31 100 100 100 100 15 64 96 96 98 100 99 100 99 100 100 95 98 100 100 100 100 100 100 100 100 100 100
5 5 5 5 5 5 5 5 5 5 5 5 5 5 5 6 92 100 100 100 100 15 90 100 100 100 92 100 100 97 100 100 100 100 100 99 100 100 100 100 100 100 100 100
5 5 5 5 5 5 5 5 5 5 5 5 5 80 78 80 90 100 100 100 99 86 74 93 100 100 100 100 100 100 100 100 100 100 100 100 100 100 100 100 100 100 100 100
5 11 8 5 7 15 20 36 26 5 15 11 32 100 100 99 100 98 100 100 11 38 100 100 99 99 63 76 100 100 100 100 100 100 100 100 100 100 100 99 96 85 98 100
8 5 5 38 54 41 78 95 100 88 94 95 73 100 100 98 100 100 100 16 7 34 100 100 100 100 100 100 100 100 100 100 100 100 100 100 100 100 93 94 68 71 83 95
30 54 73 28 13 36 78 100 100 99 97 100 99 89 99 99 87 74 5 5 23 90 100 100 100 100 100 100 100 100 100 100 100 100 100 100 100 100 100 100 100 75 74 91

GFSNGP_prec_cloud_081.txt.gz
Cloud_Cover
5 5 4 0 2 0 3 5 4 2 0 0 0 0 28 25 17 3 5 4 2 3 31 100 100 100 100 100 100 100 85 99 95 100 100 100 100 100 100 100 100 100 100 100
5 5 4 0 0 0 0 0 0 0 0 0 0 5 5 5 5 5 5 5 5 5 5 4 64 100 100 100 100 100 100 100 100 100 100 100 100 100 100 100 100 100 100 100
4 0 0 2 1 5 5 1 0 0 1 5 5 5 5 5 5 5 5 5 6 25 6 5 1 0 23 94 100 100 100 100 100 100 100 100 100 100 100 100 100 100 100 100
5 1 3 0 0 0 0 0 2 4 2 5 5 5 5 5 5 5 5 5 5 5 5 20 55 25 80 59 14 11 30 96 100 100 100 100 100 100 96 95 76 35 53 6
5 4 0 0 0 0 0 0 0 0 1 5 5 5 7 24 49 45 26 5 5 5 3 4 20 39 62 40 22 95 97 69 58 22 76 100 100 100 61 30 99 90 98 70
5 5 4 5 2 1 4 0 0 3 4 5 5 4 5 5 5 5 5 5 5 5 5 5 5 5 5 0 5 9 87 100 100 100 100 100 100 100 100 100 98 92 100 100
17 9 6 5 5 35 5 5 5 5 5 5 2 1 5 5 3 2 5 5 4 5 5 5 5 4 21 27 15 22 92 98 100 100 100 100 100 100 100 100 100 100 100 100
98 30 65 93 48 23 5 5 5 7 29 5 4 2 4 5 5 5 5 5 5 5 5 5 5 5 5 11 44 84 100 100 100 100 100 100 100 100 100 100 100 100 100 100
97 34 83 33 58 5 76 11 12 33 82 5 16 5 5 5 5 5 5 5 4 3 5 5 5 5 5 5 15 100 66 100 100 100 100 100 100 100 96 96 100 100 100 100
97 92 44 36 14 56 58 34 15 50 53 31 5 5 5 5 5 5 5 5 6 68 100 65 5 5 5 5 5 94 100 99 68 100 100 100 100 100 100 100 100 100 100 100
86 5 10 43 44 42 58 87 21 58 5 5 5 5 5 5 5 5 25 84 99 32 5 5 5 5 5 5 5 65 84 35 100 100 99 100 100 100 100 100 100 100 100 100
53 26 11 49 40 65 28 75 20 6 5 5 5 5 5 6 76 98 100 80 5 5 5 5 5 5 5 5 5 25 98 21 73 100 100 100 100 100 100 100 100 100 100 100
37 26 14 70 52 54 49 64 77 6 5 5 5 5 5 5 14 55 6 5 5 5 5 5 5 5 5 5 5 5 5 5 5 86 100 100 100 100 100 100 100 100 100 100
5 89 95 31 54 55 77 53 15 5 3 4 5 5 5 5 5 5 5 0 5 5 5 5 5 5 4 5 5 25 20 6 22 68 100 100 100 100 100 100 100 100 100 100
15 84 18 17 47 56 54 5 5 5 2 0 0 5 5 0 0 0 0 2 5 5 5 5 5 5 5 13 93 94 78 71 33 97 100 100 100 100 100 100 100 100 100 100
7 12 5 38 65 49 6 5 4 2 0 5 5 5 4 1 5 5 5 5 5 5 5 5 5 5 76 68 24 98 100 97 100 100 100 100 100 100 100 100 100 100 100 100
5 5 5 50 9 5 5 5 5 5 5 5 5 5 5 5 5 5 0 5 5 5 5 5 5 5 5 9 19 81 92 100 100 100 100 100 100 100 100 100 100 100 100 100
5 5 5 22 5 5 0 0 5 5 5 5 5 5 5 5 5 5 5 5 5 5 5 5 5 5 5 40 95 100 100 97 100 100 100 100 100 100 100 100 100 100 100 100
11 26 40 5 1 5 5 5 5 5 5 5 5 5 5 5 5 5 5 5 5 5 49 69 76 42 44 99 100 100 91 100 100 100 100 100 100 100 100 100 100 100 100 100
55 83 14 5 0 2 5 1 5 5 5 5 5 5 5 5 5 5 5 5 12 33 82 100 100 100 100 100 100 100 87 100 99 81 86 98 100 100 100 100 100 100 100 100
42 37 5 5 5 0 0 4 5 5 1 5 5 5 5 5 5 5 10 45 100 100 100 100 100 100 100 100 100 97 98 86 97 92 97 100 100 100 100 100 100 100 100 100
5 5 5 5 5 4 1 5 5 5 5 5 5 5 5 5 18 30 75 90 87 100 100 100 100 100 100 93 100 95 96 100 100 94 83 100 100 100 100 100 100 100 100 100
16 5 5 5 5 5 5 5 5 5 5 5 7 60 96 71 100 100 81 98 100 100 100 100 88 98 100 100 100 100 100 100 100 95 86 100 100 100 100 100 100 100 100 100
24 5 5 5 5 53 68 11 31 5 5 5 8 67 100 98 48 100 95 98 97 100 100 87 96 100 100 99 95 80 84 100 97 100 100 100 100 100 100 100 100 100 100 100
8 39 64 74 65 95 86 43 79 20 51 58 39 24 83 100 100 81 96 99 74 80 79 100 100 100 100 100 100 97 100 100 100 100 100 100 100 100 100 100 100 100 100 100
27 42 35 32 34 38 34 99 100 100 100 98 54 5 61 94 97 100 95 95 96 89 90 96 100 100 100 100 100 100 100 100 100 100 100 100 100 100 100 100 100 100 100 100
64 34 37 5 5 8 88 100 97 100 100 97 94 80 88 91 99 90 97 93 94 94 100 100 100 100 100 100 100 100 100 100 100 100 100 100 100 100 100 100 100 100 100 100

GFSNGP_prec_cloud_084.txt.gz
Cloud_Cover
5 5 1 0 0 0 0 0 0 0 0 0 2 5 5 5 0 2 9 73 100 100 100 100 100 87 35 62 99 99 100 94 68 100 100 100 100 100 100 100 100 100 100 100
4 0 0 3 0 0 0 0 0 0 0 0 0 0 0 0 3 5 2 0 60 100 100 100 100 100 100 82 22 100 11 5 83 62 91 5 34 100 100 100 100 100 100 100
3 0 0 0 0 0 0 0 0 3 0 0 0 0 0 0 3 5 5 5 5 5 83 100 100 93 96 100 100 98 100 100 69 88 25 70 23 78 56 44 99 99 100 100
5 5 4 0 0 0 0 0 0 0 0 0 1 2 4 5 5 5 5 5 5 5 5 5 22 53 100 88 29 17 8 45 46 100 100 95 73 100 100 91 80 58 100 87
5 0 0 4 0 0 5 0 0 0 3 0 2 5 5 5 5 5 5 5 5 5 5 5 5 3 0 0 2 14 93 100 100 100 100 100 67 88 100 100 100 100 100 100
5 5 2 0 5 2 0 0 5 5 5 2 5 5 5 5 5 5 5 5 4 4 5 5 5 5 5 5 5 5 0 0 19 50 97 100 100 100 100 100 100 100 100 100
9 5 5 5 5 5 31 7 5 5 5 5 3 1 0 0 3 5 5 5 5 5 5 5 5 5 5 5 5 5 55 37 11 34 67 41 51 99 96 97 100 100 100 100
5 5 5 5 5 6 11 36 14 45 36 5 4 0 3 3 3 5 5 4 0 0 0 5 1 5 0 2 5 5 5 55 70 92 87 77 70 100 100 100 100 100 100 100
22 6 5 5 5 5 21 75 86 22 5 5 5 5 5 5 5 5 4 0 0 0 3 5 5 5 0 0 5 5 5 40 17 6 17 89 88 94 98 100 100 100 100 100
30 46 34 7 5 7 25 10 85 57 5 5 5 5 5 5 2 0 1 5 5 32 95 32 4 5 4 5 5 5 5 5 23 54 97 53 69 100 100 100 100 100 100 100
6 13 8 5 6 14 10 46 90 42 5 5 5 3 0 0 0 3 5 5 24 3 0 0 0 0 0 4 5 5 5 5 5 5 54 71 100 91 100 100 100 100 100 100
91 69 57 16 5 5 51 60 5 5 5 2 4 0 0 0 1 2 0 0 0 0 0 0 0 0 0 1 5 5 5 5 5 5 5 39 100 100 100 100 100 100 100 100
78 76 19 14 60 76 7 5 5 5 5 0 0 0 0 0 0 0 0 0 0 0 0 0 0 0 0 1 5 5 5 5 7 38 44 63 100 100 100 100 100 100 100 100
53 63 30 48 51 13 5 5 5 1 0 0 0 0 0 0 0 0 0 0 0 0 0 0 0 0 0 5 7 34 42 67 100 100 100 100 100 100 100 100 100 100 100 100
96 54 49 22 50 5 5 5 5 0 0 0 0 0 0 0 0 0 0 0 0 0 0 0 0 0 0 5 5 14 79 100 100 100 80 96 100 100 100 100 100 100 100 100
100 100 36 14 6 5 5 5 0 0 0 0 0 0 0 0 0 0 0 0 0 0 0 0 0 0 1 5 5 6 71 100 100 89 68 100 100 100 100 100 100 100 100 100
100 98 48 15 5 4 5 0 0 0 0 0 0 0 0 0 0 0 0 0 0 0 0 3 0 0 5 5 24 78 100 100 100 100 82 100 100 100 100 100 100 100 100 100
87 100 51 5 3 4 5 5 0 0 0 0 0 1 4 5 2 0 0 2 4 5 3 5 5 5 12 35 62 100 100 100 100 89 100 100 92 100 100 100 100 100 100 100
80 100 57 8 1 5 5 4 1 0 3 1 5 5 3 5 5 5 5 5 5 5 3 7 72 100 100 100 100 100 100 99 100 100 100 100 100 100 100 100 95 100 100 100
100 100 98 11 4 1 5 0 0 0 0 0 0 5 5 5 5 20 73 94 23 95 26 52 100 100 100 100 100 100 100 100 100 99 87 91 92 89 100 86 72 73 97 100
100 100 65 59 5 5 1 0 2 2 5 5 6 36 96 98 100 100 100 97 42 92 83 99 100 100 100 100 100 100 99 100 100 100 100 100 99 96 92 80 95 100 100 100
94 82 5 45 5 5 5 5 5 5 44 68 99 100 100 94 100 100 87 88 95 95 100 99 100 100 100 100 100 100 100 100 100 100 100 100 100 97 100 100 100 100 100 100
36 34 5 12 18 9 5 5 5 6 74 100 100 99 100 100 100 100 95 88 97 98 100 95 95 100 100 97 100 100 99 100 100 100 100 100 100 100 100 100 100 100 100 100
86 25 5 39 5 5 5 9 68 83 96 72 66 84 88 89 90 94 93 99 97 100 99 83 99 100 100 100 100 100 100 100 100 100 100 100 100 100 100 100 100 100 100 100
81 47 38 5 5 5 16 74 81 60 29 83 56 5 41 99 100 83 97 96 100 100 100 100 97 98 100 100 100 100 100 100 100 100 100 100 100 100 100 100 100 100 100 100
96 31 42 5 5 5 48 100 96 73 100 91 14 75 100 100 100 100 100 99 99 100 100 100 100 100 100 100 100 100 100 100 100 100 100 100 100 100 100 100 100 100 100 100
77 8 5 5 5 27 90 100 93 90 77 84 98 100 98 100 100 98 100 100 100 100 100 100 100 100 100 100 100 100 100 100 100 100 100 100 100 100 100 100 100 100 100 100

GFSNGP_prec_cloud_087.txt.gz
Cloud_Cover
5 0 2 1 0 0 0 0 0 0 0 0 0 2 1 15 99 96 55 100 100 100 100 100 100 100 100 100 100 100 100 100 100 100 100 100 100 100 100 100 100 100 100 100
0 0 2 0 0 0 0 0 0 0 0 0 0 0 0 0 17 66 85 64 100 100 100 100 100 100 100 100 100 100 100 100 100 100 100 100 100 100 100 100 100 100 100 100
4 0 0 3 0 0 4 0 0 12 0 0 0 0 0 0 4 2 67 100 100 100 100 100 100 100 100 100 100 100 100 100 100 78 100 10 88 100 100 100 100 100 100 97
4 1 8 0 0 0 0 1 0 0 0 0 0 0 0 0 0 0 5 21 100 100 100 100 100 100 100 100 100 100 100 100 100 100 28 11 5 15 33 97 100 100 100 100
5 4 0 0 0 0 0 0 0 0 0 0 0 0 0 1 5 5 5 5 5 12 78 100 100 100 100 100 100 100 100 100 100 100 79 54 97 84 85 91 83 28 6 31
4 2 2 1 0 0 0 1 0 0 0 0 0 2 5 5 5 3 3 4 5 5 2 0 4 9 89 100 92 100 100 79 16 38 73 100 100 100 100 100 100 100 100 98
4 3 3 0 0 0 1 1 0 0 0 0 1 1 0 0 0 0 0 0 0 0 0 0 0 0 0 0 16 64 73 15 5 5 33 100 100 100 100 100 100 100 100 93
5 5 5 5 5 3 5 5 5 5 3 0 4 0 0 0 0 0 0 0 0 0 0 0 0 0 0 0 0 0 0 0 0 1 5 4 92 100 100 100 100 100 100 97
68 48 78 71 43 5 5 5 5 5 5 5 4 0 0 1 5 5 0 0 0 0 0 0 0 0 0 0 0 0 0 0 0 0 0 4 4 87 100 100 100 100 100 100
83 79 77 92 93 55 33 5 4 1 3 2 2 5 5 5 1 0 0 0 0 0 0 0 0 0 0 0 0 0 0 0 0 0 2 4 5 5 100 100 100 100 100 100
54 45 48 24 34 5 5 5 5 5 4 5 5 3 5 0 0 0 0 0 0 0 0 0 0 0 0 0 0 0 0 0 0 0 2 3 5 5 7 60 100 100 100 100
56 93 62 27 22 24 29 5 5 5 3 0 1 1 5 0 0 0 0 0 0 0 0 0 0 0 0 0 0 1 5 5 5 5 5 5 5 5 6 59 100 100 100 100
91 82 80 54 6 5 5 5 5 5 5 5 0 0 0 0 0 0 0 0 0 0 0 0 0 0 0 0 0 5 5 5 5 6 5 5 5 99 100 36 92 100 100 100
96 95 76 61 5 5 5 5 5 5 2 0 0 0 0 0 0 0 0 0 0 0 0 0 0 0 0 0 2 5 5 6 62 100 100 82 72 67 99 100 97 100 54 100
100 67 84 69 6 5 5 5 4 0 2 0 0 0 0 0 0 0 0 0 0 0 0 0 0 0 0 0 1 5 5 6 88 100 100 96 97 100 100 100 100 84 100 100
100 100 100 73 13 5 5 5 5 4 2 0 0 0 0 0 0 0 0 0 0 0 0 0 0 0 0 5 5 5 5 19 88 100 100 91 99 100 100 100 100 100 100 100
100 100 100 98 84 9 5 5 5 5 5 0 0 0 0 0 0 0 0 0 0 0 0 0 0 0 0 5 5 5 65 90 100 100 100 66 81 98 99 100 100 100 100 100
100 100 100 100 96 16 12 20 5 5 5 0 0 0 0 1 3 5 5 5 5 5 5 21 12 12 38 50 94 100 100 100 100 100 100 100 98 100 87 100 100 100 100 100
100 100 100 100 55 5 28 5 5 5 5 3 2 4 5 5 5 49 86 99 95 96 12 42 60 94 100 100 100 100 100 100 100 100 100 99 96 68 92 100 100 100 100 96
100 100 100 100 87 5 31 5 5 5 5 1 4 5 30 94 95 98 100 98 94 100 100 92 96 100 100 100 100 100 100 100 100 100 100 100 97 92 94 98 100 100 79 99
100 100 100 100 100 12 6 16 5 5 5 5 6 65 98 100 100 100 98 100 94 100 100 100 100 100 100 100 100 100 100 100 100 100 99 95 100 95 96 88 69 84 100 100
100 100 100 100 100 35 5 5 5 5 5 20 92 100 100 100 100 99 100 100 98 100 100 98 99 98 100 100 98 100 100 100 100 86 86 94 98 100 100 99 100 100 98 100
100 100 100 100 100 67 5 5 5 5 57 84 58 91 71 78 99 99 92 54 100 100 100 100 100 100 100 100 100 89 100 100 98 93 93 100 99 100 99 100 100 98 99 99
100 100 100 100 100 73 7 5 5 25 10 5 5 5 27 98 90 92 99 98 100 100 100 100 100 100 100 98 100 100 100 100 95 94 90 99 100 96 100 100 99 100 100 100
100 100 100 100 100 12 5 6 5 5 5 5 5 5 66 100 100 98 100 100 100 100 100 100 100 100 94 99 100 100 100 100 100 100 99 97 100 100 95 100 100 100 100 100
100 100 100 100 100 5 5 15 5 5 5 5 5 54 67 68 98 100 100 100 100 100 100 99 100 100 99 100 100 100 100 100 100 100 99 100 94 98 100 100 100 100 100 100
100 100 100 100 95 5 5 63 10 5 38 56 94 92 21 73 98 100 100 99 100 99 97 93 98 100 100 100 100 100 100 100 100 100 100 99 100 100 100 100 100 100 100 100

GFSNGP_prec_cloud_090.txt.gz
Cloud_Cover
3 0 2 0 1 0 0 0 2 9 1 5 3 6 21 78 98 45 100 100 100 100 100 100 100 100 100 100 100 100 100 100 100 100 100 100 100 100 100 100 100 100 100 100
0 0 0 0 0 0 0 0 0 4 76 100 10 4 0 4 5 5 5 66 66 100 100 100 100 100 100 100 100 100 100 100 100 100 100 100 100 100 100 100 100 100 100 100
4 0 0 2 0 0 4 0 0 5 2 6 5 5 1 0 1 3 33 5 10 100 100 100 100 100 100 100 100 98 100 100 100 100 100 100 100 100 100 100 100 100 100 100
16 0 5 0 0 0 0 0 0 0 0 0 0 0 5 5 5 5 6 98 44 72 100 100 100 100 100 100 100 97 100 100 100 100 100 100 95 99 100 100 100 100 100 82
4 4 0 0 0 0 0 0 0 0 0 0 0 4 5 5 5 5 5 21 10 75 100 100 100 100 100 100 100 100 100 100 100 100 100 100 100 100 100 100 100 100 100 100
5 5 0 0 0 0 0 0 0 0 0 0 0 3 3 5 5 5 1 0 10 98 8 17 97 100 100 100 100 100 100 100 100 99 50 45 87 97 100 100 100 100 100 100
3 4 1 0 0 0 0 0 0 0 0 0 0 0 0 0 0 0 0 0 0 5 68 74 93 100 53 24 100 100 100 100 95 30 12 5 9 57 90 100 100 98 100 100
5 5 2 0 0 1 0 0 3 5 5 5 0 0 0 0 0 0 0 0 0 0 0 0 2 2 2 3 3 0 3 5 5 37 20 4 4 1 4 55 100 100 100 100
4 4 4 5 5 5 5 5 5 5 5 5 5 5 1 0 0 0 0 0 0 0 0 0 0 0 0 0 0 0 0 0 0 0 0 0 0 0 0 5 82 100 100 100
5 12 5 5 5 5 5 5 5 5 5 5 4 5 5 5 5 0 0 0 0 0 0 0 0 0 0 0 0 0 0 0 0 0 0 0 0 0 5 5 5 12 100 100
15 79 5 5 5 5 5 5 5 5 5 3 4 5 5 5 5 1 0 0 0 0 0 0 0 0 0 0 0 0 0 0 0 0 0 0 0 5 5 17 37 84 100 100
100 92 90 60 6 5 5 5 5 5 3 2 1 1 1 5 5 1 1 0 0 0 0 0 0 0 0 0 0 0 0 0 0 4 5 5 5 5 5 5 18 100 100 100
100 100 100 100 100 82 17 47 66 34 5 5 5 5 0 0 0 0 0 0 0 0 0 0 0 0 0 0 0 0 0 0 0 5 5 5 5 31 29 5 7 47 80 80
42 96 100 100 100 100 100 100 97 81 6 5 5 0 0 0 0 0 0 0 0 0 0 0 0 0 0 0 0 0 5 0 3 5 13 57 99 100 43 100 84 16 99 100
55 27 95 100 100 100 100 99 32 34 6 5 5 3 2 5 0 0 0 0 0 0 0 0 0 0 0 0 0 5 5 5 5 74 100 100 100 100 56 91 100 100 97 100
44 96 93 100 100 100 100 100 92 5 5 5 5 5 4 5 4 0 0 0 0 3 5 1 5 1 1 3 5 5 5 5 90 100 100 100 100 91 24 52 81 100 100 100
61 47 100 100 100 100 100 100 100 9 8 5 7 5 2 4 4 0 3 3 5 5 5 5 5 65 85 92 100 100 100 100 100 100 100 100 100 100 36 42 93 100 100 100
56 11 60 96 100 100 100 100 100 62 29 44 5 5 5 5 5 33 68 79 78 56 40 96 95 92 79 98 100 100 100 100 100 100 100 100 100 100 100 100 92 98 85 90
95 86 72 77 100 100 100 100 100 100 73 100 7 5 5 5 5 5 5 5 5 26 22 24 45 44 57 85 100 100 100 100 100 100 100 100 94 96 60 58 38 15 69 80
98 87 66 100 100 100 100 100 100 100 88 100 14 5 5 5 5 5 5 5 5 75 99 63 87 6 41 30 80 100 100 99 100 97 100 100 100 100 100 100 96 98 94 82
100 100 86 95 97 91 100 100 100 100 100 53 5 5 5 5 5 5 7 74 5 30 98 91 91 99 99 100 100 92 78 95 100 95 92 100 100 71 58 83 97 98 68 89
100 100 100 98 99 100 100 100 100 100 100 100 42 5 5 5 5 9 5 34 57 91 100 96 98 100 100 100 100 100 100 100 100 100 100 98 95 99 99 94 94 100 71 82
100 100 100 80 94 100 100 100 100 100 100 100 71 5 5 5 9 91 97 7 98 97 100 100 100 100 100 100 87 98 100 100 100 100 100 94 93 100 96 97 82 88 83 85
100 100 99 94 100 100 100 100 100 100 100 100 83 5 5 37 62 40 27 87 100 100 100 100 100 100 100 76 92 97 98 100 99 100 100 99 99 79 81 88 95 96 88 79
100 100 100 100 100 100 100 100 100 100 100 100 62 5 5 77 68 56 59 76 100 100 99 82 100 98 98 99 98 98 93 91 100 100 100 100 97 100 100 97 94 96 98 95
100 100 98 100 100 100 100 100 100 100 100 100 8 5 6 11 5 17 5 81 100 99 82 93 85 95 99 95 100 100 100 100 100 100 100 100 100 100 100 97 93 100 100 100
100 100 100 100 100 100 100 100 100 100 100 94 5 5 46 5 7 37 23 11 85 5 68 87 91 96 100 98 100 100 100 100 100 100 100 100 100 100 100 100 100 100 100 100

GFSNGP_prec_cloud_093.txt.gz
Cloud_Cover
0 0 0 0 0 0 0 0 1 5 5 3 5 93 88 68 98 76 98 97 100 100 100 100 100 100 100 100 100 100 100 100 100 100 100 100 100 100 100 100 100 100 100 100
0 0 0 0 0 0 0 0 5 2 2 5 5 10 12 5 5 26 5 34 5 58 84 100 100 100 100 100 100 100 100 100 100 100 100 100 100 100 100 100 100 100 100 100
5 0 0 2 0 0 0 2 4 5 2 5 5 5 0 3 4 9 67 23 93 93 57 96 100 100 100 100 100 100 100 100 100 100 100 100 100 100 100 100 100 100 100 100
5 1 4 0 0 0 0 0 0 0 0 1 0 0 0 0 0 0 2 8 20 7 6 28 97 99 100 100 100 100 100 85 95 100 100 100 100 100 100 100 100 100 100 100
4 4 0 0 0 0 0 0 0 0 0 2 4 4 0 0 0 2 4 3 3 5 24 11 93 90 89 100 100 100 78 100 100 99 88 100 100 100 98 100 99 100 100 100
5 5 0 0 0 0 0 1 0 0 0 0 0 2 0 5 5 12 25 10 88 100 100 76 100 56 4 100 100 100 100 100 100 100 100 98 98 98 100 100 82 100 100 100
4 5 5 0 0 0 0 0 0 0 0 0 0 0 0 0 0 0 0 0 0 2 0 3 3 84 100 100 100 100 100 100 100 74 99 98 100 73 5 7 4 38 78 100
0 2 0 0 0 0 0 1 4 2 2 0 0 0 0 0 0 0 0 0 0 0 0 0 0 0 0 0 2 0 1 0 0 1 1 0 0 1 8 2 0 5 5 44
4 2 0 0 0 0 0 0 0 0 1 4 0 0 0 0 0 0 0 0 0 0 0 0 0 0 0 0 0 0 0 0 0 0 0 0 0 0 0 0 1 1 5 5
5 6 3 1 1 1 0 0 5 5 5 5 5 5 5 5 1 0 0 3 5 4 4 0 0 0 0 0 0 0 0 0 0 0 0 0 0 0 2 5 5 8 35 16
79 66 91 92 100 60 8 5 47 47 31 12 18 5 4 0 0 0 0 0 0 0 0 0 0 0 0 0 0 0 0 0 0 0 0 0 2 5 5 5 8 82 82 100
5 14 75 100 100 100 92 97 68 18 55 39 25 10 5 2 5 1 0 0 0 0 0 0 0 0 0 0 0 0 0 0 0 0 0 0 5 5 5 5 15 22 71 100
5 5 11 65 31 100 100 100 100 93 77 59 49 20 5 5 5 5 0 2 0 0 0 0 0 0 0 0 0 0 0 0 0 5 5 5 5 5 5 5 5 5 75 100
9 8 17 18 30 36 67 86 100 100 100 100 100 96 46 5 5 5 5 5 5 2 0 0 0 4 5 5 5 5 3 0 5 100 25 5 21 38 78 82 17 5 5 42
5 36 57 34 60 62 50 37 60 90 100 100 100 100 100 59 5 5 5 3 5 5 1 4 5 5 5 5 5 5 5 14 66 84 83 95 100 100 100 100 46 49 16 5
18 9 58 82 54 30 56 58 34 16 100 100 100 100 100 100 12 5 5 5 5 5 5 5 5 5 5 27 38 26 9 21 88 88 100 100 100 100 100 95 27 56 71 90
7 85 99 88 91 100 93 100 100 100 100 100 100 100 100 100 100 26 6 16 5 5 5 5 5 5 56 56 5 83 92 72 75 98 95 100 100 100 100 100 99 63 98 38
92 47 66 67 83 100 100 100 100 100 100 100 100 100 100 100 100 100 100 7 5 5 5 5 9 82 26 5 32 94 99 96 76 71 72 83 92 92 99 99 100 96 84 96
100 100 98 93 100 100 100 100 100 100 74 82 100 100 100 100 100 99 16 5 5 5 5 5 65 39 5 6 95 98 100 100 84 97 97 70 68 100 87 94 95 86 38 52
100 100 100 100 100 100 100 100 100 100 100 99 100 100 100 100 100 94 17 5 5 5 96 96 85 6 5 5 63 87 81 74 91 82 80 95 91 88 92 100 100 94 99 91
100 100 100 100 100 100 100 100 100 100 100 100 100 100 100 100 100 77 55 66 5 69 99 57 62 86 75 88 100 93 85 94 98 100 100 100 100 96 75 84 52 31 81 100
100 100 100 100 100 100 100 100 100 100 100 100 100 100 100 100 100 48 5 75 94 100 92 95 92 99 100 100 84 87 92 92 84 94 99 100 100 100 94 63 92 95 92 88
100 100 100 100 100 100 100 100 100 100 100 100 100 100 100 100 100 99 99 7 100 90 97 99 100 100 100 95 48 92 85 83 91 97 100 99 100 94 99 99 90 96 95 93
100 100 100 100 100 100 100 100 100 100 100 100 100 100 100 100 61 12 20 42 83 94 98 100 100 100 100 50 78 80 76 81 99 100 100 100 100 100 100 92 86 85 78 79
100 100 100 100 100 100 100 100 100 100 100 100 100 100 100 100 100 41 46 7 29 99 54 21 95 96 78 79 87 78 92 100 100 100 100 100 100 100 96 92 74 88 90 81
100 100 100 100 100 100 100 100 100 100 100 100 100 100 100 100 100 64 80 5 7 99 5 5 72 100 99 94 98 76 85 97 100 100 100 100 100 100 100 100 100 100 100 100
100 100 100 100 100 100 100 100 100 100 100 100 100 100 100 100 94 99 91 5 66 44 5 5 13 78 100 99 73 78 83 100 100 100 100 100 100 99 96 100 100 100 100 100

GFSNGP_prec_cloud_096.txt.gz
Cloud_Cover
0 0 2 0 0 0 0 0 1 2 5 5 12 5 21 7 50 100 64 85 100 100 100 98 45 100 100 100 100 100 100 100 100 100 100 100 100 100 100 100 100 100 100 100
0 0 0 0 0 0 0 0 0 0 2 5 5 2 1 3 5 5 5 12 4 5 99 30 75 30 0 100 100 100 30 100 100 100 100 100 100 100 100 100 100 100 100 100
3 0 0 2 0 0 0 0 1 3 0 0 2 2 3 2 0 4 5 5 5 5 5 9 28 45 92 31 100 100 100 100 100 100 100 100 100 100 100 100 100 100 100 100
5 1 2 0 0 0 0 0 0 0 0 1 0 0 0 0 0 4 5 3 4 4 2 1 0 2 2 20 100 100 100 100 100 100 100 100 100 100 100 100 100 100 100 100
5 4 0 0 0 0 0 0 0 0 0 0 0 0 0 0 1 5 5 5 4 4 5 4 5 5 32 75 14 98 88 98 100 100 100 100 100 100 100 100 100 100 100 100
4 5 1 0 0 0 0 0 0 0 0 0 0 0 0 0 1 3 0 0 0 0 0 0 5 7 50 60 65 100 100 94 99 74 96 100 100 100 97 99 100 100 100 100
1 5 1 0 0 0 0 0 0 0 0 0 0 0 0 0 0 0 0 0 0 5 5 5 5 4 5 5 18 98 100 100 100 100 74 95 100 100 100 100 90 100 100 99
3 2 3 0 0 0 0 0 0 0 0 0 0 0 0 0 0 0 0 0 0 0 0 0 0 0 0 0 0 0 1 6 2 1 1 3 6 5 4 4 3 0 4 4
0 0 0 0 0 0 0 0 1 0 0 0 0 0 0 0 0 0 0 0 0 0 0 0 0 0 0 0 0 0 0 0 0 0 0 0 0 0 0 0 0 3 5 5
5 5 5 5 12 2 1 1 0 0 0 2 5 5 5 5 4 4 1 3 3 0 0 0 0 4 1 4 3 0 0 0 0 0 0 0 0 0 1 4 5 5 5 5
5 51 24 79 22 44 28 6 24 53 66 61 33 41 86 80 88 79 97 88 42 5 5 4 5 5 5 3 3 0 4 4 0 0 0 0 0 3 5 5 5 5 15 67
5 3 5 8 61 14 56 100 100 100 100 100 100 100 100 100 100 100 100 93 68 37 8 10 5 5 5 5 0 3 1 0 0 0 0 0 3 5 5 5 5 8 19 68
5 11 5 5 5 5 18 94 63 60 55 86 100 100 99 98 98 31 67 100 100 82 51 29 32 5 5 5 5 5 5 5 5 5 5 5 8 100 11 19 5 5 5 22
78 6 66 5 73 21 82 20 71 100 85 86 100 100 100 100 90 92 86 100 100 100 100 100 59 8 5 5 5 5 5 8 12 5 5 5 5 42 98 100 98 82 7 30
100 30 22 98 89 99 89 93 100 100 100 100 100 100 100 100 100 100 100 100 100 100 100 100 32 24 5 5 20 19 21 86 91 79 52 48 63 66 90 97 100 98 88 36
99 100 100 88 90 100 100 100 100 100 100 100 100 100 100 100 100 100 96 100 100 100 100 100 92 46 13 48 17 13 66 82 100 98 98 97 65 66 96 100 100 100 100 100
100 100 100 100 100 100 100 100 100 100 100 100 100 100 100 100 100 100 100 100 100 100 100 100 100 5 83 11 5 94 99 92 96 75 76 97 96 95 100 94 64 76 99 100
100 100 100 100 100 100 100 100 100 100 100 100 100 100 100 100 100 100 100 100 100 100 100 100 12 96 25 5 61 96 32 79 80 87 12 96 100 100 82 90 85 95 91 100
100 100 100 100 100 100 100 100 100 100 100 100 100 100 100 100 100 100 100 100 100 100 100 88 76 18 5 6 87 66 74 99 100 100 94 91 98 100 100 98 84 90 88 82
99 100 100 100 100 100 100 100 100 100 100 100 100 100 100 100 100 100 100 100 100 100 100 98 82 5 5 5 75 100 75 96 100 97 94 99 100 95 100 100 100 92 53 98
100 100 100 100 100 100 100 100 100 100 100 100 100 100 100 100 100 100 100 100 100 100 100 74 57 62 75 94 100 14 37 100 100 100 100 99 97 90 94 84 76 84 99 98
100 100 100 100 100 100 100 100 100 100 100 100 100 100 100 100 100 100 100 100 100 100 96 93 45 100 100 100 68 20 94 95 94 96 99 96 97 99 100 99 93 68 92 92
22 93 100 100 100 100 100 100 100 100 100 100 100 100 100 100 100 100 100 100 100 100 100 52 98 100 100 78 14 72 91 95 97 100 100 91 92 96 99 100 97 90 93 94
13 96 100 100 100 100 100 100 100 100 100 100 100 100 100 100 100 100 100 100 100 100 96 90 99 100 100 75 88 95 79 98 100 100 100 100 100 94 95 96 99 100 92 89
85 81 93 100 100 100 100 100 100 100 100 100 100 100 100 100 100 100 100 100 100 100 87 33 65 99 62 100 100 92 88 95 99 100 88 92 91 99 100 95 96 100 98 90
5 11 47 92 86 100 100 100 100 100 100 100 100 100 100 100 100 100 100 100 100 100 67 23 16 61 84 95 95 71 83 92 94 93 100 97 100 100 100 100 100 100 99 98
5 5 5 18 100 100 100 100 100 100 100 100 100 100 100 100 100 100 100 100 100 97 53 61 5 58 96 94 98 100 88 94 94 100 86 100 100 100 100 100 100 100 100 100

GFSNGP_prec_cloud_099.txt.gz
Cloud_Cover
1 0 0 0 0 0 0 0 1 0 0 1 6 64 40 90 85 100 100 100 68 10 24 18 91 75 89 98 100 100 100 100 100 100 100 100 100 100 100 100 100 100 100 100
5 0 0 0 0 0 0 0 0 0 0 0 0 3 5 5 5 5 5 32 58 38 94 5 5 12 2 4 1 58 94 100 100 100 100 100 100 100 100 100 100 100 100 100
4 0 0 2 0 0 0 0 0 0 0 0 0 0 0 0 1 2 2 4 5 5 5 5 4 4 5 5 10 5 5 88 99 100 100 100 100 100 100 100 100 100 100 100
5 1 0 0 0 0 0 0 0 0 0 0 0 0 0 0 5 5 5 5 5 5 0 0 0 0 0 0 0 36 72 100 100 100 100 100 100 100 100 100 100 100 100 100
5 11 0 0 0 0 0 0 0 0 0 0 0 0 0 5 5 5 5 5 2 0 0 0 0 0 0 0 0 4 5 29 10 85 100 100 100 100 98 37 97 100 100 100
5 5 0 4 1 5 0 0 0 4 0 0 0 2 0 0 2 5 4 2 0 0 0 0 0 0 0 3 5 12 56 36 5 25 86 31 18 7 57 98 100 100 100 100
4 5 3 0 0 1 1 0 0 0 1 5 5 0 1 1 0 0 0 0 0 0 0 2 2 2 0 5 8 10 13 14 61 93 92 97 98 99 100 100 100 27 10 43
4 5 4 0 0 0 0 0 0 0 0 0 0 0 0 0 0 0 0 0 0 2 0 0 0 0 5 5 5 24 17 6 2 0 0 0 3 4 4 10 32 29 3 4
0 0 0 0 0 0 0 0 0 5 1 0 0 0 0 0 0 4 4 5 5 5 5 5 5 5 5 5 5 5 0 0 0 2 5 5 5 0 4 0 0 5 5 5
5 5 3 0 0 2 0 0 0 5 5 5 5 5 5 5 5 5 5 5 5 5 16 54 92 92 100 11 2 0 0 0 4 5 5 5 5 0 1 5 5 5 6 38
29 4 27 6 5 5 5 5 6 5 5 5 5 10 17 12 45 56 13 5 5 5 5 46 31 5 5 5 5 5 5 3 5 5 5 5 4 3 4 5 8 26 11 38
60 100 23 20 5 5 16 92 100 100 97 86 81 69 82 82 78 64 81 100 98 95 86 58 34 22 5 5 5 5 5 5 5 5 5 5 5 5 5 5 64 6 16 82
0 52 100 66 6 13 99 92 84 100 100 99 100 100 100 100 100 100 100 100 100 100 100 100 100 100 27 46 5 5 5 5 9 11 5 5 8 67 80 13 5 5 6 69
0 4 44 98 88 90 78 63 99 83 92 100 100 100 100 100 100 100 100 100 100 100 100 100 100 70 100 45 5 5 5 5 25 21 37 80 90 91 94 92 74 6 55 100
0 0 5 47 90 73 100 100 99 100 91 89 52 87 100 100 100 100 100 100 100 100 100 100 100 99 59 30 20 11 6 84 90 96 89 96 66 95 100 100 100 100 64 46
5 5 2 3 95 100 100 100 98 91 100 100 100 100 100 100 100 100 100 100 98 69 94 100 100 100 48 6 28 5 75 92 97 82 83 50 28 88 100 100 83 92 81 36
5 18 88 100 59 78 100 100 100 100 100 100 100 100 100 100 100 100 100 100 80 78 100 100 100 75 5 59 5 5 75 76 85 90 100 100 99 96 94 99 100 100 100 74
2 5 41 90 100 100 100 70 100 100 100 100 100 100 100 100 100 100 100 100 100 100 100 100 100 100 98 19 8 88 94 98 93 100 100 100 100 100 100 97 95 99 100 99
0 1 5 66 99 94 100 100 100 100 100 100 100 100 100 100 100 100 100 100 100 100 100 100 100 94 96 45 92 81 100 95 90 100 100 96 82 92 96 100 100 100 99 96
2 2 1 24 98 100 100 100 100 100 100 100 100 100 100 100 100 100 100 100 100 100 100 100 100 95 100 97 16 97 99 86 100 100 97 100 87 99 98 66 93 98 81 90
5 5 4 5 75 100 100 100 100 100 100 100 100 100 100 100 100 100 100 100 100 100 100 100 100 100 100 86 96 100 94 100 100 100 100 100 100 100 99 97 98 99 98 97
5 5 5 5 5 56 100 100 100 100 100 100 100 100 100 100 100 100 100 100 100 100 100 100 100 100 100 100 100 82 88 100 100 100 100 100 100 100 97 99 99 98 98 99
8 5 5 5 5 10 74 84 81 100 100 100 100 100 100 100 100 100 100 100 100 100 100 100 100 99 99 100 96 92 100 98 97 93 100 100 100 98 100 98 100 100 100 100
19 5 5 5 5 5 5 10 72 99 90 100 100 100 100 100 100 100 100 100 100 100 100 100 100 98 100 96 100 100 96 100 100 98 100 91 99 100 100 99 97 100 100 98
61 26 5 5 5 5 5 26 94 100 100 100 100 100 100 100 100 100 100 100 100 100 100 100 97 100 96 84 100 99 99 92 99 100 79 99 98 100 100 100 100 100 99 93
44 62 5 5 5 5 5 5 91 100 100 100 100 100 100 100 100 100 100 100 100 100 100 100 100 100 46 90 100 97 100 100 92 97 100 96 97 100 100 100 100 100 100 92
49 53 5 5 5 5 5 5 12 81 74 100 100 100 100 100 100 100 100 100 100 100 100 100 100 100 92 100 78 91 100 100 92 100 80 97 100 93 99 100 98 95 97 100

GFSNGP_prec_cloud_102.txt.gz
Cloud_Cover
1 2 0 0 0 0 0 0 2 0 0 1 1 1 5 5 56 100 94 62 28 75 100 96 100 100 100 100 100 100 100 100 100 100 100 100 100 100 100 100 100 100 100 100
5 2 0 1 0 0 0 0 0 0 0 0 0 0 0 2 5 5 5 5 43 66 65 54 28 31 59 77 65 6 21 100 100 100 100 100 100 100 100 100 100 100 100 100
5 2 0 2 0 0 0 0 0 0 0 0 0 0 1 4 5 4 5 4 4 5 5 5 0 0 0 3 3 11 14 59 93 100 100 100 100 44 76 100 93 89 100 100
20 2 0 0 0 0 0 0 0 0 0 0 0 0 0 0 5 4 5 5 5 5 2 0 0 0 0 0 0 0 0 0 0 0 12 17 5 27 5 52 85 98 100 79
5 54 1 0 0 0 0 0 0 0 0 0 0 0 0 0 2 4 5 4 5 0 0 0 0 0 0 0 0 0 0 0 0 0 1 2 10 20 48 23 26 32 30 78
5 6 0 0 0 0 0 0 0 0 0 0 4 0 0 0 0 0 0 5 0 0 0 0 0 0 0 0 4 4 5 5 8 13 14 8 5 5 6 5 46 25 6 5
5 18 4 0 0 0 0 0 0 1 0 0 0 0 0 0 0 1 2 5 3 2 5 1 0 2 3 5 5 5 21 53 59 40 48 85 24 46 85 84 71 47 81 55
5 23 13 0 0 0 0 0 0 0 0 5 5 6 4 4 5 5 5 5 5 5 5 5 5 5 5 5 5 5 5 5 5 4 5 5 5 5 10 7 10 5 5 5
0 0 5 5 5 2 0 0 0 0 1 5 2 5 28 96 76 66 73 34 5 13 15 6 38 40 9 7 9 54 50 5 5 3 0 4 1 0 0 0 5 5 5 5
0 0 0 4 99 100 7 4 1 1 3 4 5 5 5 6 82 100 100 100 100 100 100 94 78 91 96 68 27 7 12 44 36 11 28 17 5 5 5 5 5 8 29 9
0 0 0 0 1 54 98 70 59 7 88 57 21 56 46 90 98 100 100 100 100 100 100 100 100 100 100 90 95 100 100 74 75 30 5 7 5 5 20 5 61 100 100 100
4 0 0 0 0 0 1 5 69 100 100 100 100 94 99 100 97 100 100 100 100 100 100 100 100 100 98 100 84 54 5 5 5 8 5 12 42 78 12 79 64 35 10 55
2 0 0 0 0 0 0 5 4 6 68 98 96 100 100 100 100 100 100 96 100 100 100 100 100 100 86 92 91 83 33 28 98 41 98 83 100 100 100 88 87 68 73 75
5 5 2 0 0 0 0 4 4 24 12 5 49 72 98 100 100 100 100 100 100 100 100 100 100 100 100 96 100 100 75 76 100 98 100 91 97 100 97 100 100 100 92 95
5 8 13 15 3 0 0 5 64 95 82 100 100 100 100 100 100 100 100 100 100 100 100 100 100 100 100 100 100 100 100 100 82 94 50 97 98 98 100 100 100 100 83 22
5 5 6 5 5 5 1 1 10 99 100 100 100 100 100 100 100 100 100 100 100 100 100 100 100 100 100 100 100 100 100 100 98 83 91 98 100 100 100 93 100 100 96 94
17 5 22 8 11 5 5 4 5 5 40 100 100 100 100 96 98 100 100 100 100 100 100 80 98 100 100 100 100 100 100 97 100 82 86 100 100 100 96 100 100 100 99 65
74 96 97 84 38 19 5 5 4 0 1 38 98 100 100 100 100 100 100 100 100 99 100 100 100 100 100 100 100 100 100 100 98 99 98 93 100 100 99 100 100 100 95 96
85 91 95 100 94 8 5 5 5 5 5 5 40 74 90 88 100 100 100 98 99 100 100 100 100 100 100 100 100 100 100 100 98 96 100 100 100 95 98 100 99 82 86 90
100 100 100 100 100 71 5 5 5 5 5 5 5 44 57 95 100 100 100 100 100 100 100 100 100 100 100 100 100 88 100 100 100 100 100 100 87 95 99 96 100 76 79 92
100 100 100 100 100 100 52 5 0 5 5 5 5 5 38 100 100 100 100 100 100 100 100 100 100 100 100 100 100 100 100 71 98 94 91 100 96 90 100 100 100 100 100 98
100 100 100 100 100 100 100 5 5 5 3 5 5 5 60 99 100 100 100 100 100 100 100 100 100 100 100 100 100 100 92 100 91 85 94 100 100 100 100 100 100 100 100 100
66 98 100 100 100 100 100 42 5 5 5 69 86 60 5 17 81 100 68 100 100 100 100 100 100 100 100 100 99 77 85 85 84 94 100 96 100 100 100 100 100 100 100 100
88 98 100 100 100 100 100 50 10 11 5 5 5 58 55 5 8 65 79 100 100 100 100 100 100 100 100 100 100 100 97 100 99 91 99 97 92 100 100 100 98 100 100 91
92 99 100 100 100 100 100 100 76 81 5 5 43 78 61 92 73 87 51 100 100 100 100 100 100 100 100 100 100 100 100 100 100 100 84 94 100 100 100 100 100 100 100 90
100 100 100 100 100 100 100 100 77 41 5 5 35 100 93 100 100 98 91 100 99 100 100 100 100 100 100 100 100 100 70 96 92 98 98 100 98 100 100 100 100 100 100 100
100 100 100 100 100 100 100 96 54 20 5 30 99 99 100 90 99 100 100 100 100 100 100 100 100 100 100 100 100 54 69 84 89 100 93 96 96 100 100 100 96 100 100 100

GFSNGP_prec_cloud_105.txt.gz
Cloud_Cover
5 1 2 5 5 5 5 0 4 0 0 0 0 0 0 0 3 5 5 2 6 13 26 26 52 100 100 100 100 100 100 100 100 88 100 100 100 100 100 100 100 100 100 100
7 1 4 5 2 1 5 1 0 0 0 0 0 0 0 0 0 3 4 5 4 2 3 5 3 5 99 100 100 100 100 100 100 100 100 100 100 100 100 100 100 100 100 100
5 2 3 0 0 4 0 0 0 0 0 0 0 0 0 0 0 3 2 5 5 5 5 5 0 0 0 0 1 2 2 5 51 93 10 60 56 83 97 61 95 54 73 100
27 2 0 0 0 0 0 0 0 0 0 0 0 0 0 0 0 2 4 5 5 5 5 0 0 0 0 0 0 0 0 0 0 0 0 2 5 4 8 14 26 47 38 6
5 57 0 0 0 0 0 0 0 0 0 0 0 0 0 0 0 1 5 5 5 5 2 0 0 0 0 0 0 0 0 0 0 0 0 0 0 0 0 3 0 0 0 0
6 5 4 0 3 5 1 0 0 0 0 0 0 0 0 0 0 0 0 5 5 5 5 39 6 5 5 5 5 0 0 0 0 0 0 5 5 5 5 5 5 33 55 22
29 48 4 0 0 5 1 0 4 4 1 0 0 0 0 0 0 0 0 0 4 5 5 5 5 5 5 5 5 5 5 5 5 5 5 5 7 56 95 84 75 5 5 0
30 52 42 4 0 1 31 76 55 38 19 5 2 0 0 0 0 0 0 0 0 3 5 5 5 5 5 5 5 5 41 64 70 12 5 5 5 5 4 3 5 5 5 5
0 5 5 5 4 0 0 45 96 85 44 99 100 92 66 14 4 4 5 5 5 5 26 67 95 97 97 97 100 100 85 37 5 5 3 0 5 5 5 5 5 5 42 79
6 5 1 5 5 5 4 0 1 49 99 74 69 100 100 100 100 100 100 100 94 80 73 68 78 98 100 100 100 100 100 52 5 5 5 5 5 5 5 7 37 80 38 80
6 57 5 5 5 5 5 5 2 0 0 58 100 100 100 100 100 100 100 100 100 100 100 100 75 66 90 85 95 99 71 75 65 6 5 14 10 63 94 95 100 100 100 100
5 6 18 5 5 5 10 5 5 1 0 0 0 11 87 100 100 100 100 100 100 100 100 100 100 100 100 100 100 100 100 100 100 100 100 95 100 99 100 100 100 98 100 100
90 13 66 16 5 12 50 5 5 5 0 0 0 5 65 26 47 100 100 100 100 100 100 100 100 100 100 100 100 100 100 100 100 100 100 100 100 100 100 100 100 100 97 100
100 93 34 50 98 97 100 76 51 6 6 1 1 0 1 5 17 66 98 100 100 100 100 100 100 100 100 100 100 100 98 99 100 100 71 97 100 98 100 100 100 82 6 71
100 100 100 100 99 100 100 100 100 86 15 5 5 5 5 5 4 5 49 86 97 99 100 100 100 100 100 66 59 90 100 100 84 91 90 100 100 100 100 100 94 96 90 30
56 98 75 91 98 100 100 100 100 100 82 5 5 5 4 0 3 5 46 100 100 100 100 100 100 100 100 100 100 100 100 100 100 98 100 100 100 100 100 95 100 100 89 15
7 16 100 100 97 100 100 100 100 100 100 22 5 5 5 1 3 6 85 100 100 100 100 100 100 100 100 100 100 100 100 100 100 100 100 98 97 100 97 100 100 100 89 100
85 88 100 100 100 100 100 100 94 100 90 58 5 5 5 5 5 53 100 100 100 100 100 100 100 100 100 100 100 100 100 100 100 100 100 100 100 94 100 98 100 100 92 86
56 100 100 100 100 100 100 100 99 91 73 59 48 5 5 5 5 42 98 88 100 100 88 98 100 100 100 100 100 100 100 100 100 100 100 100 100 96 96 100 99 94 97 100
100 100 100 100 100 100 100 100 100 100 100 14 25 5 5 5 5 6 49 5 26 100 88 100 100 100 100 100 100 100 100 100 100 100 100 100 93 100 100 95 100 99 100 100
82 100 100 100 100 100 100 100 100 100 100 23 25 5 5 5 5 5 5 25 7 82 63 90 100 100 100 100 100 100 100 100 100 100 100 100 100 100 100 100 100 100 100 100
72 100 100 100 100 100 100 100 100 100 100 61 54 5 5 5 5 25 5 80 67 90 87 83 100 100 100 100 100 100 100 100 100 100 100 100 100 100 100 100 100 100 100 100
100 100 100 100 100 100 100 100 100 100 100 97 96 50 36 5 5 16 14 6 47 100 72 91 100 100 100 100 100 100 100 100 100 100 100 100 100 93 100 100 100 100 99 98
100 100 100 100 100 100 100 100 100 100 100 100 76 38 23 34 17 20 5 5 27 36 25 98 100 100 100 100 100 100 100 100 100 98 91 94 59 82 100 100 99 100 98 98
100 100 100 100 100 100 100 100 100 100 100 100 76 74 48 29 6 18 55 5 15 48 64 49 100 100 100 100 100 100 100 99 99 100 74 87 98 100 100 97 97 100 100 100
100 100 100 100 100 100 100 100 100 100 100 100 66 91 72 61 55 23 39 41 7 18 6 24 99 94 100 100 100 100 100 100 96 91 99 93 92 94 99 83 99 100 100 100
100 100 100 100 100 100 100 100 100 100 100 100 87 100 54 18 77 34 18 5 5 5 5 7 36 83 100 100 100 100 100 100 85 100 97 77 88 100 99 90 97 100 99 100

GFSNGP_prec_cloud_108.txt.gz
Cloud_Cover
5 0 3 5 4 5 27 3 4 0 0 0 0 0 0 0 0 0 0 2 4 5 5 5 8 86 100 100 91 99 100 100 100 100 100 100 100 100 100 100 100 100 96 83
5 0 2 5 0 0 4 5 5 3 0 0 0 0 0 0 0 0 0 0 0 4 4 5 2 0 0 14 63 11 36 71 89 99 100 99 100 100 100 100 100 100 98 100
4 0 0 0 0 0 0 0 0 4 0 0 0 0 0 0 0 0 0 3 5 5 5 5 4 0 0 0 0 0 0 0 0 2 4 6 58 13 17 96 100 100 100 100
42 5 4 0 0 0 0 0 0 0 0 0 0 0 0 0 0 0 0 0 5 5 5 5 1 0 0 0 0 0 0 0 0 0 0 0 0 1 5 5 9 7 35 31
56 5 3 5 5 1 0 0 0 0 0 0 0 0 5 3 0 0 0 4 3 5 5 5 5 5 5 5 5 5 5 4 3 0 0 0 0 0 0 0 0 0 0 0
80 16 16 9 5 5 4 0 0 0 0 0 1 0 0 0 2 5 5 2 5 5 5 5 5 4 5 5 5 5 5 5 5 5 2 0 0 0 0 0 1 3 5 6
100 100 10 10 5 5 3 5 0 0 0 0 0 1 2 4 5 5 5 1 5 5 5 9 11 5 5 5 5 5 7 11 7 4 5 5 5 5 5 5 5 5 5 5
56 84 49 8 5 5 5 3 5 5 2 0 0 0 1 1 3 5 6 69 18 5 26 92 100 100 100 100 100 100 99 100 98 58 40 62 57 17 4 4 2 0 2 4
5 5 5 5 5 5 5 5 5 5 5 5 4 0 0 0 0 5 93 89 44 44 80 74 96 100 100 100 100 100 100 84 11 63 62 71 56 13 5 5 5 5 5 23
61 6 5 5 5 5 5 8 11 5 5 5 5 5 5 0 1 4 0 0 6 60 99 98 93 99 100 100 100 100 100 100 100 100 100 96 91 72 86 100 100 100 97 95
35 7 5 5 5 10 6 5 5 5 5 5 5 1 5 4 5 5 5 16 20 14 18 20 40 87 97 98 98 72 81 100 100 100 100 100 100 100 100 100 96 100 96 99
76 5 28 7 5 5 62 6 40 31 5 4 0 1 3 0 0 0 0 2 3 0 2 2 53 96 100 99 100 100 100 100 100 100 100 100 100 100 78 72 78 96 98 100
34 5 22 49 6 60 7 5 5 12 8 5 5 5 5 5 2 0 0 0 0 0 0 4 5 46 15 100 100 100 100 94 100 100 100 99 100 100 100 100 78 100 100 99
100 93 9 6 44 53 100 5 5 5 5 5 5 5 5 5 5 0 1 3 0 0 0 0 5 76 100 100 100 100 100 100 100 100 96 97 99 98 100 100 100 100 48 98
7 78 72 9 5 74 95 42 5 5 5 8 5 5 5 5 10 5 2 5 0 0 0 0 4 31 86 100 100 100 100 100 100 98 100 100 100 100 100 100 100 100 99 93
12 94 95 82 8 61 99 100 97 81 43 78 26 5 17 14 16 7 4 0 0 2 5 5 91 98 100 100 100 100 100 99 100 100 100 100 100 100 100 100 100 100 100 100
100 98 89 98 16 58 26 100 100 100 96 98 100 88 5 6 18 6 5 1 0 5 5 5 5 26 93 100 100 100 100 100 98 100 100 100 100 100 100 100 100 100 100 100
100 100 100 100 100 100 100 100 100 100 98 100 98 86 20 5 5 5 5 5 0 5 20 5 5 23 94 98 94 100 100 100 100 100 100 100 100 100 100 100 100 100 100 100
100 97 100 100 100 100 100 100 100 100 98 74 84 72 85 60 13 5 5 5 4 5 5 5 52 89 100 70 70 100 100 100 100 100 100 97 99 100 100 100 100 100 100 100
80 97 100 100 100 100 100 100 100 100 100 100 100 100 94 81 76 58 13 5 5 5 5 5 10 98 72 53 100 100 100 100 100 100 100 100 100 100 100 100 100 100 100 100
80 54 74 100 100 100 100 100 100 100 100 100 100 100 100 100 79 49 72 5 5 5 5 5 5 5 12 100 100 100 100 100 98 100 100 100 100 100 100 100 100 100 100 98
97 40 97 100 100 100 100 100 100 100 100 100 100 100 100 100 74 56 57 65 5 5 5 5 5 39 76 100 91 95 96 100 100 100 100 100 100 100 100 100 100 100 100 100
90 89 100 100 100 100 100 100 100 100 100 100 100 100 100 100 100 93 100 93 5 5 5 5 5 72 99 81 63 98 98 100 100 100 100 100 100 100 100 99 100 100 100 100
100 100 99 73 100 100 100 100 100 100 100 100 100 100 100 100 100 98 100 99 5 5 5 5 29 79 100 77 42 29 83 100 100 100 100 100 100 98 100 99 100 100 100 100
100 100 100 100 100 100 100 100 100 100 100 100 100 100 100 100 100 88 100 97 5 22 21 5 13 72 18 6 64 56 87 100 100 100 100 100 100 100 100 100 100 100 100 100
100 100 100 100 100 100 100 100 100 100 100 100 100 100 100 100 100 100 99 55 5 53 25 5 5 5 33 35 28 79 86 90 96 100 100 100 100 100 100 100 100 100 100 100
100 100 100 100 100 100 100 100 100 100 100 100 100 100 100 100 100 100 100 54 5 56 40 5 5 5 9 84 74 70 100 100 97 100 100 100 100 100 100 100 97 99 100 98

GFSNGP_prec_cloud_111.txt.gz
Cloud_Cover
5 5 7 5 0 1 7 5 76 0 0 0 0 0 0 0 0 0 0 0 0 0 4 5 5 1 0 4 20 47 55 100 100 100 100 100 100 100 100 100 100 100 100 100
60 5 5 5 5 4 0 0 5 1 0 0 0 0 0 0 0 0 0 0 0 0 0 0 4 4 0 0 0 0 1 4 5 31 99 100 100 100 100 100 100 100 100 100
5 5 5 5 21 5 4 0 0 0 0 0 0 3 3 1 0 0 0 0 0 0 1 5 5 5 0 0 0 0 0 0 0 0 1 0 3 39 90 23 62 92 100 100
35 5 5 5 5 4 2 3 5 4 0 0 0 0 0 0 0 1 4 2 2 4 5 5 5 5 1 0 0 1 5 4 3 1 0 0 0 0 0 0 1 5 3 34
54 5 2 1 0 0 5 0 0 4 3 0 0 0 0 0 0 0 3 5 5 5 5 5 5 13 5 4 2 1 5 5 5 5 5 2 0 0 0 0 0 0 2 5
14 83 4 4 5 5 5 4 0 0 0 0 0 0 0 0 0 0 4 1 4 5 21 20 19 40 21 24 42 6 10 8 6 5 6 8 5 5 5 5 20 69 83 54
74 87 34 4 1 0 2 0 5 0 0 0 0 0 0 4 2 0 0 0 0 0 4 66 90 100 100 100 100 100 100 100 100 100 100 100 100 100 100 100 100 100 100 87
37 73 21 5 5 2 0 5 0 2 5 2 0 0 0 0 0 0 0 1 0 0 0 0 0 0 1 56 99 100 100 100 100 100 100 100 100 100 100 100 100 100 100 100
5 3 0 0 0 1 5 4 3 4 4 1 5 5 4 0 0 0 0 0 0 0 1 5 4 5 5 4 5 5 59 99 100 100 100 100 100 100 100 79 94 100 100 100
3 5 9 0 0 5 5 5 35 9 5 3 5 5 5 4 0 0 0 0 0 0 0 0 0 0 0 0 0 0 0 22 91 100 100 100 100 100 100 94 58 14 16 62
15 31 5 5 2 5 5 5 31 90 61 5 5 3 5 1 5 0 0 0 3 0 5 2 0 0 0 0 0 0 0 6 70 100 100 98 100 92 100 99 99 100 99 96
99 100 27 8 6 22 5 16 32 82 90 19 5 5 2 0 1 1 4 1 5 5 5 2 0 0 0 0 0 0 4 21 100 100 100 100 100 100 93 69 82 85 92 100
100 100 100 100 100 100 96 48 19 100 100 100 16 5 5 5 4 2 5 5 5 5 5 5 4 0 0 0 4 5 74 100 100 100 100 100 73 100 100 100 61 67 92 99
98 56 95 100 100 100 100 100 100 100 100 100 95 10 5 5 40 5 35 31 25 22 5 28 5 0 0 2 3 5 33 5 35 83 65 100 100 94 97 100 100 96 84 100
100 100 100 100 100 100 100 100 100 100 100 100 100 72 5 5 5 42 100 97 36 64 32 86 5 0 0 2 5 24 61 15 18 14 89 82 90 100 98 100 100 92 61 18
100 99 100 100 100 100 100 100 100 100 99 100 100 89 42 54 54 80 100 100 100 97 67 50 23 0 4 5 5 9 36 48 45 83 75 83 97 100 100 100 100 100 99 90
98 100 72 81 76 92 100 100 100 100 100 100 100 96 88 100 70 76 63 92 100 100 91 75 14 5 5 5 5 5 5 5 60 99 72 100 100 100 100 100 100 100 97 91
12 61 90 88 100 100 100 100 100 100 100 100 100 100 100 99 70 68 57 98 92 100 100 100 41 6 5 4 5 5 5 22 80 80 92 100 99 100 100 100 100 100 84 88
5 5 5 24 91 86 100 100 100 100 100 100 100 100 100 99 92 72 84 99 77 100 100 100 66 34 5 5 5 5 46 90 90 79 67 63 100 100 100 100 100 94 97 98
42 74 20 32 96 83 20 15 99 100 100 100 100 100 100 100 100 96 87 89 96 100 100 100 98 91 5 5 5 22 66 100 88 68 68 78 98 100 100 100 100 100 99 71
46 65 14 54 90 100 100 100 100 100 100 100 100 100 100 100 100 100 100 88 100 100 100 100 100 100 5 5 42 68 100 93 75 17 58 92 100 100 100 100 97 95 93 90
70 92 79 99 100 100 100 100 100 100 100 100 100 100 100 100 100 100 66 90 100 100 100 100 100 100 6 67 86 100 89 63 5 23 81 100 100 100 99 100 96 94 98 100
100 100 100 100 100 100 100 100 100 100 100 100 100 100 100 100 100 100 98 72 100 100 100 100 100 100 67 81 87 98 44 5 10 65 94 99 100 100 100 100 100 99 92 100
100 100 100 100 100 100 100 100 100 100 100 100 100 100 100 100 100 100 100 100 100 100 100 100 100 100 100 76 96 39 5 5 57 95 100 100 100 100 100 100 100 100 100 95
100 100 100 100 100 100 100 100 100 100 100 100 100 100 100 100 100 100 100 100 100 100 100 100 100 100 100 28 5 5 5 11 74 95 100 100 100 100 100 100 99 100 100 96
100 100 100 100 100 100 100 100 100 100 100 100 100 100 100 100 100 100 100 100 100 100 100 100 100 100 93 5 5 5 5 5 65 97 96 100 100 100 100 99 95 99 100 97
100 100 100 100 100 100 100 100 100 100 100 100 100 100 100 100 100 100 100 100 100 100 100 100 100 100 44 5 5 5 5 15 83 98 100 98 94 94 100 98 82 94 98 99

GFSNGP_prec_cloud_114.txt.gz
Cloud_Cover
5 5 5 5 3 0 0 0 4 0 0 0 0 0 0 0 0 0 0 0 1 2 0 0 1 5 5 0 0 0 0 0 0 1 8 86 98 59 28 70 73 100 100 100
5 2 0 1 3 2 0 0 0 0 0 0 0 0 0 0 0 0 0 0 0 0 4 5 5 5 16 5 5 5 4 4 0 0 0 0 1 12 85 100 92 30 60 37
4 0 0 2 0 0 3 1 1 3 0 0 0 0 0 0 0 0 0 4 5 6 50 83 100 100 100 100 100 86 66 60 11 5 2 3 0 0 0 0 3 92 87 97
23 5 29 5 5 5 5 5 5 5 5 5 2 0 0 0 0 0 0 0 1 3 12 17 50 48 97 100 100 100 100 100 86 21 5 5 5 8 2 1 0 0 0 14
15 10 2 1 5 5 5 5 5 5 5 5 4 5 5 0 0 0 0 0 0 0 0 0 2 3 4 1 0 2 41 98 100 100 100 100 100 100 96 88 70 51 14 5
7 64 4 0 3 2 3 5 5 5 5 5 5 5 5 5 5 5 5 5 1 0 0 0 0 0 5 3 0 0 0 0 0 20 96 100 100 100 100 100 100 100 100 100
98 98 5 0 2 0 3 4 5 5 5 5 6 5 5 5 5 4 5 5 5 5 0 0 0 0 5 1 0 0 0 0 0 0 0 0 20 78 100 99 99 93 100 98
77 88 24 73 5 4 7 38 100 12 4 5 13 28 11 5 4 2 3 5 5 5 5 4 0 1 0 0 0 0 0 0 0 0 0 0 0 0 0 19 88 100 95 84
100 64 100 61 95 76 25 6 12 86 82 5 88 72 31 5 5 5 4 2 5 5 5 5 4 0 5 5 9 3 0 0 0 0 0 0 4 42 72 72 56 31 10 65
100 67 100 100 100 100 100 100 98 11 20 46 5 5 5 5 5 5 4 1 0 1 5 5 5 8 5 16 71 20 3 0 0 0 0 7 88 99 95 60 5 5 5 6
100 100 100 100 100 100 100 100 100 100 100 100 100 100 72 72 98 23 5 5 5 5 18 72 95 100 94 98 84 72 5 0 0 8 39 52 5 5 5 5 14 65 88 90
100 100 100 81 99 100 100 100 100 98 100 100 96 98 82 98 34 21 11 5 40 85 74 82 95 100 100 100 100 75 25 0 0 2 6 9 5 5 14 40 74 90 97 96
100 100 100 94 100 100 100 89 100 100 97 95 69 68 43 38 42 46 7 77 100 64 7 45 70 84 100 100 100 89 7 2 0 0 0 0 1 9 100 100 23 32 51 100
100 100 100 100 68 78 100 100 96 94 58 74 56 30 79 100 98 80 100 80 74 36 31 71 92 99 100 100 100 100 19 4 5 5 5 5 5 46 98 100 100 66 10 54
100 100 100 100 100 100 100 14 64 81 97 81 63 99 100 100 100 100 100 97 82 79 55 64 58 60 100 100 100 100 57 5 0 2 5 6 14 63 100 100 100 100 100 100
4 44 100 100 100 97 98 92 89 98 100 100 100 100 100 98 95 100 100 100 59 93 81 60 57 61 100 100 100 100 91 13 5 5 5 5 45 26 99 82 88 96 77 8
5 2 5 5 5 5 9 61 98 100 100 100 100 100 100 100 100 100 100 100 93 100 100 100 68 48 99 100 100 100 100 22 12 5 5 5 5 45 52 70 81 87 71 17
0 0 5 5 31 57 74 90 100 100 100 100 100 100 100 100 100 100 100 100 100 100 100 100 97 71 86 100 100 100 100 42 19 5 5 6 16 52 86 65 59 87 24 8
5 6 51 90 100 100 100 100 100 100 100 100 100 100 100 100 100 100 100 100 100 100 100 100 99 92 100 100 100 100 64 81 77 16 11 45 7 5 75 99 98 92 22 34
76 100 100 100 100 100 100 100 100 100 100 100 100 100 100 100 100 100 100 100 100 100 100 100 100 82 100 100 100 100 59 100 87 94 65 13 11 23 28 100 100 78 15 61
100 100 100 100 100 100 100 100 100 100 100 100 100 100 100 100 100 100 100 100 100 100 100 100 100 100 100 100 100 100 100 100 100 85 7 5 5 7 89 97 99 69 78 75
100 86 100 100 100 100 100 100 100 100 100 100 100 100 100 100 100 100 100 100 100 100 100 100 100 100 100 100 100 100 88 100 100 8 52 55 22 53 98 96 100 100 98 80
91 100 100 100 100 100 100 100 100 100 100 100 100 100 100 100 100 100 100 100 100 100 100 100 100 100 100 100 100 99 100 100 100 18 5 70 68 97 99 100 100 100 100 99
100 100 100 100 100 100 100 100 100 100 100 100 100 100 100 100 100 100 100 100 100 100 100 100 100 100 100 100 100 92 100 100 100 37 39 94 98 95 100 100 100 100 100 74
17 100 100 100 100 98 100 100 100 100 100 100 100 100 100 100 100 100 100 100 100 100 100 100 100 100 100 100 100 100 100 100 98 63 54 94 100 100 100 100 100 100 98 96
5 8 41 77 97 92 100 100 100 100 100 100 100 100 100 100 100 100 100 100 100 100 100 100 100 100 100 100 100 100 100 100 77 37 55 85 97 100 100 99 95 90 95 95
4 15 26 100 98 100 100 98 100 100 100 100 100 100 100 100 100 100 100 100 100 100 100 100 100 100 100 100 100 100 100 100 50 43 50 94 83 100 100 99 92 87 95 98

GFSNGP_prec_cloud_117.txt.gz
Cloud_Cover
0 0 0 0 0 0 1 1 4 1 0 0 0 0 0 0 0 0 0 0 0 0 0 3 5 5 5 9 25 60 87 78 100 100 100 90 45 8 4 0 3 5 5 5
5 0 0 1 0 1 5 5 5 6 27 5 5 5 5 0 0 5 5 0 0 0 0 0 0 0 5 5 5 5 0 1 7 50 97 99 100 100 100 95 30 3 0 2
5 2 5 5 5 5 5 4 1 0 0 4 5 5 2 2 5 5 5 4 5 5 5 5 1 0 4 5 5 5 3 0 0 0 0 0 4 16 74 94 100 100 100 95
5 5 9 5 4 4 5 7 32 59 8 5 2 3 5 5 1 4 5 5 5 5 5 5 5 5 5 5 5 5 4 0 0 0 0 0 0 0 0 0 5 10 33 72
5 28 4 5 22 46 86 87 20 16 72 45 5 73 73 5 5 4 5 0 0 0 3 5 5 5 5 4 5 5 1 5 5 5 0 0 0 0 0 0 0 0 5 45
100 100 6 100 100 97 100 100 100 95 99 79 100 100 97 61 26 6 5 5 5 5 0 0 1 5 5 5 4 4 4 0 1 5 5 0 0 0 0 0 0 0 0 2
95 97 100 5 91 100 100 100 100 100 100 77 81 92 86 22 6 65 33 11 5 5 5 5 5 5 4 5 5 5 5 5 5 5 5 5 2 0 0 0 0 2 4 4
100 82 96 94 80 98 100 83 100 100 100 100 84 42 100 95 97 27 40 95 75 5 5 5 5 5 5 5 4 5 5 5 5 5 5 5 5 0 0 0 0 0 0 2
60 67 99 100 100 100 100 100 100 100 100 100 42 100 90 38 93 63 32 6 18 5 5 5 5 5 5 5 5 5 5 5 5 5 5 5 4 0 0 0 3 3 1 5
100 100 100 100 100 100 100 100 100 100 100 100 100 46 6 89 9 6 19 5 5 5 5 5 5 5 6 5 5 10 5 5 5 5 5 5 4 0 0 0 4 5 9 58
100 100 100 100 100 100 100 100 100 100 100 100 100 100 100 86 100 77 99 100 25 58 20 11 5 7 27 57 42 21 13 10 5 5 5 5 5 0 0 2 5 50 83 100
98 39 92 34 23 10 15 27 65 100 100 100 100 100 100 100 100 100 100 100 100 100 58 54 71 32 17 100 88 33 11 50 79 5 5 5 5 5 0 4 5 12 74 93
17 5 5 5 98 79 69 41 42 6 44 100 89 100 100 100 100 100 100 100 100 100 100 100 100 57 5 56 100 99 87 68 100 7 5 5 4 5 5 5 5 5 7 77
0 0 4 5 1 2 5 5 5 5 8 66 49 77 100 100 100 100 100 100 100 100 100 82 100 100 74 82 100 100 69 74 100 25 5 5 5 5 5 5 5 5 5 14
5 5 20 5 1 5 5 5 5 5 5 5 5 50 48 100 100 100 100 100 100 100 100 100 100 100 100 78 100 100 100 100 100 100 86 14 5 11 5 5 5 5 5 18
9 5 5 5 28 6 4 5 9 54 5 92 83 100 100 100 100 100 100 100 100 100 100 100 100 100 100 85 100 100 100 100 100 100 95 9 5 38 5 5 5 5 70 90
100 96 23 5 5 5 5 5 9 82 95 90 97 88 100 100 100 100 100 100 100 100 100 100 100 100 100 100 100 100 100 100 100 100 100 26 5 83 12 5 35 58 71 20
33 26 0 0 5 71 66 90 80 76 100 99 100 100 97 100 100 100 100 100 100 100 100 100 100 100 100 100 100 100 100 100 100 100 100 66 5 86 46 5 5 62 90 37
1 2 42 53 5 20 70 86 95 100 99 97 100 100 100 100 100 100 100 100 100 100 100 100 100 100 100 100 100 100 100 100 100 100 100 83 63 69 5 5 11 65 100 99
36 6 12 81 100 100 100 100 100 100 100 100 100 100 100 100 100 100 100 100 100 100 100 100 100 100 100 100 100 100 100 100 100 100 100 95 94 99 5 31 89 98 100 100
100 100 100 100 100 100 100 100 100 100 100 100 100 100 100 100 100 100 100 100 100 100 100 100 100 100 100 100 100 100 100 100 100 100 100 100 100 100 5 8 85 98 100 99
95 100 100 100 100 100 100 100 100 100 100 100 100 100 100 100 100 100 100 100 100 100 100 100 100 100 100 100 100 100 100 100 100 100 100 98 100 100 15 7 94 100 100 100
4 7 90 100 100 100 100 100 100 100 100 100 100 100 100 100 100 100 100 100 100 100 100 100 100 100 100 100 100 100 100 100 100 100 98 96 100 100 42 63 98 100 100 100
0 1 5 9 11 20 56 100 100 100 100 100 100 100 100 100 100 100 100 100 100 100 100 100 100 100 100 100 100 100 100 100 100 100 98 100 100 75 79 98 100 100 100 100
0 0 0 0 4 3 4 82 100 100 100 98 100 100 100 100 100 100 100 100 100 100 100 100 100 100 100 100 100 100 100 100 100 100 100 100 100 100 93 79 100 100 100 100
0 0 0 0 0 0 0 16 62 76 99 96 92 90 88 100 100 100 100 100 100 100 100 100 100 100 100 100 100 100 100 100 100 100 100 100 100 100 74 100 100 100 100 100
0 0 0 2 0 0 0 7 5 78 95 89 98 100 100 100 100 100 100 100 100 100 100 100 100 100 100 100 100 100 100 100 100 100 100 100 100 100 70 97 100 100 100 100

GFSNGP_prec_cloud_120.txt.gz
Cloud_Cover
4 5 5 0 5 5 5 5 14 68 5 5 5 5 0 0 0 0 0 0 0 0 0 0 0 0 0 5 5 5 5 4 0 0 0 0 0 0 0 0 2 18 31 70
10 5 5 5 5 62 54 16 10 63 74 5 5 5 5 3 2 0 0 0 0 0 0 0 0 0 0 0 5 5 5 5 5 4 0 0 5 0 0 0 0 0 0 0
5 4 5 4 5 5 5 93 28 30 6 5 10 53 49 5 5 5 5 2 1 0 5 1 2 0 0 5 5 5 5 5 5 5 5 5 0 5 4 0 0 0 0 0
7 5 4 5 21 19 44 49 100 97 91 49 13 5 5 5 5 5 5 5 5 4 1 1 3 4 1 1 5 5 5 5 5 5 5 5 0 0 1 5 5 0 0 0
6 46 5 16 91 94 71 44 93 100 100 99 80 72 76 100 98 98 87 56 98 94 64 5 5 5 5 5 5 5 5 5 5 5 5 5 5 0 0 0 0 0 1 2
100 78 20 14 24 88 100 100 100 100 100 100 100 100 100 100 100 100 94 97 100 100 80 18 17 43 12 58 5 5 5 5 5 5 5 5 5 5 0 0 0 2 0 0
100 34 47 100 100 100 100 100 100 100 100 100 100 100 100 100 100 100 94 84 76 94 97 100 27 94 100 81 81 90 38 5 10 5 5 5 5 5 5 1 0 1 0 0
97 98 100 100 100 100 100 100 100 66 70 73 99 64 81 96 100 90 14 83 100 87 94 100 80 9 85 98 58 100 92 16 6 43 13 5 5 5 5 5 1 5 5 3
100 100 100 100 100 100 100 100 100 100 100 100 100 36 37 56 37 8 5 5 49 100 91 98 100 81 79 91 73 51 100 94 5 35 56 9 5 5 5 5 5 3 1 5
24 17 61 29 42 82 98 100 94 54 5 5 6 24 27 5 5 5 7 10 5 14 52 82 99 83 92 70 83 100 99 100 26 82 94 83 5 11 10 7 5 4 5 5
5 7 47 92 74 100 100 100 47 68 95 57 86 83 35 19 5 9 10 5 6 18 30 86 85 79 80 61 62 90 100 100 100 100 100 100 9 26 90 68 48 5 5 68
83 5 9 100 100 86 95 55 71 77 20 5 5 4 5 5 5 5 5 5 29 74 100 100 100 93 78 98 90 85 87 100 100 100 100 100 57 16 63 68 100 5 17 74
74 12 59 100 100 41 5 6 31 54 91 99 96 8 5 5 5 53 70 33 73 100 100 100 100 99 100 99 100 100 100 100 100 100 100 100 100 84 97 41 72 5 5 57
5 8 95 97 57 5 0 4 5 5 5 11 38 31 65 72 56 40 44 92 100 100 100 100 100 100 100 100 100 100 100 100 100 100 100 98 100 99 100 100 97 16 4 5
9 5 19 16 2 2 3 4 0 3 37 86 100 98 63 91 100 100 95 96 100 100 100 100 100 100 100 100 100 100 100 82 100 100 100 100 100 100 100 100 93 98 5 5
5 24 4 1 0 2 37 83 5 5 47 35 7 14 49 97 99 100 100 100 100 100 100 100 100 100 100 100 100 100 100 100 100 100 100 100 100 100 98 100 73 100 13 12
100 100 99 97 6 5 94 98 56 11 61 41 27 59 100 100 100 100 100 100 100 100 100 100 100 100 100 100 100 100 100 100 100 100 100 100 100 100 100 100 85 97 34 20
28 36 30 2 0 0 2 24 100 100 76 99 100 94 50 69 100 100 100 100 100 100 100 100 100 100 100 100 100 100 100 100 100 100 100 100 100 100 100 100 80 100 71 9
90 100 98 78 6 53 94 65 92 100 100 100 98 90 95 100 100 100 100 100 100 100 100 100 100 100 100 100 100 100 100 100 100 100 100 100 100 100 100 100 79 100 100 5
86 81 13 64 100 100 100 100 100 100 100 85 100 100 100 100 100 100 100 100 100 100 100 100 100 96 100 100 100 100 100 100 100 100 100 100 100 100 100 100 86 88 100 6
24 97 99 98 60 89 100 72 8 79 100 100 62 100 100 100 100 100 100 100 100 100 100 100 100 100 100 100 100 100 100 100 100 100 100 100 100 100 100 100 100 84 100 55
83 96 96 65 3 5 35 5 37 32 99 100 100 100 100 100 100 100 100 100 100 100 96 91 100 100 100 100 100 100 100 100 100 100 100 100 100 100 100 100 100 100 100 100
5 5 0 0 0 0 0 3 0 19 56 5 41 100 100 100 100 94 57 100 100 100 100 99 100 100 100 100 100 100 100 100 100 100 100 100 100 100 100 100 100 100 100 100
3 1 0 0 0 0 0 0 0 5 5 1 0 2 5 90 36 100 100 100 100 100 100 100 100 100 100 100 100 100 100 100 100 100 100 100 100 100 100 100 100 100 100 100
0 0 0 0 0 0 1 3 5 5 5 5 5 5 5 11 38 86 94 100 100 93 100 100 100 100 100 100 100 100 100 100 100 100 100 100 100 100 100 100 100 100 99 100
0 1 1 0 1 3 5 5 5 5 5 5 3 2 41 98 94 83 100 100 100 100 100 100 100 100 100 100 100 100 100 100 100 100 100 100 100 100 100 100 100 100 100 94
4 5 5 5 5 5 5 5 5 5 5 5 5 5 21 96 94 76 90 96 100 100 100 100 100 100 100 100 100 100 100 100 100 100 100 100 100 100 100 100 100 100 100 98